[[{"header":{"parameterUnit":"m.s-1","parameterCategory":1,"la1":31.0,"la2":29.5877,"lo1":-88.7671,"lo2":-86.6584,"dy":0.0162,"dx":0.0185,"nx":115,"ny":88,"refTime":"2023-04-18T06:00:00:Z","depth":0,"parameterNumber":2,"parameterNumberName":"U-component_of_WINDS"},"data":[0.0,0.0,0.0,0.0,0.0,0.0,0.0,0.0,0.0,0.0,0.0,0.0,0.0,0.0,0.0,0.0,0.0,0.0,0.0,0.0,0.0,0.0,0.0,0.0,0.0,0.0,0.0,0.0,0.0,0.0,0.0,0.0,0.0,0.0,0.0,0.0,0.0,0.0,0.0,0.0,0.0,0.0,0.0,0.0,0.0,0.0,0.0,0.0,0.0,0.0,0.0,0.0,0.0,0.0,0.0,0.0,0.0,0.0,0.0,0.0,0.0,0.0,0.0,0.0,0.0,0.0,0.0,0.0,0.0,0.0,0.0,0.0,0.0,0.0,0.0,0.0,0.0,0.0,0.0,0.0,0.0,0.0,0.0,0.0,0.0,0.0,0.0,0.0,0.0,0.0,0.0,0.0,0.0,0.0,0.0,0.0,0.0,0.0,0.0,0.0,0.0,0.0,0.0,0.0,0.0,0.0,0.0,0.0,0.0,0.0,0.0,0.0,0.0,0.0,0.0,0.0,0.0,0.0,0.0,0.0,0.0,0.0,0.0,0.0,0.0,0.0,0.0,0.0,0.0,0.0,0.0,0.0,0.0,0.0,0.0,0.0,0.0,0.0,0.0,0.0,0.0,0.0,0.0,0.0,0.0,0.0,0.0,0.0,0.0,0.0,0.0,0.0,0.0,0.0,0.0,0.0,0.0,0.0,0.0,0.0,0.0,0.0,0.0,0.0,0.0,0.0,0.0,0.0,0.0,0.0,0.0,0.0,0.0,0.0,0.0,0.0,0.0,0.0,0.0,0.0,0.0,0.0,0.0,0.0,0.0,0.0,0.0,0.0,0.0,0.0,0.0,0.0,0.0,0.0,0.0,0.0,0.0,0.0,0.0,0.0,0.0,0.0,0.0,0.0,0.0,0.0,0.0,0.0,0.0,0.0,0.0,0.0,0.0,0.0,0.0,0.0,0.0,0.0,0.0,0.0,0.0,0.0,0.0,0.0,0.0,0.0,0.0,0.0,0.0,0.0,0.0,0.0,0.0,0.0,0.0,0.0,0.0,0.0,0.0,0.0,0.0,0.0,0.0,0.0,0.0,0.0,0.0,0.0,0.0,0.0,0.0,0.0,0.0,0.0,0.0,0.0,0.0,0.0,0.0,0.0,0.0,0.0,0.0,0.0,0.0,0.0,0.0,0.0,0.0,0.0,0.0,0.0,0.0,0.0,0.0,0.0,0.0,0.0,0.0,0.0,0.0,0.0,0.0,0.0,0.0,0.0,0.0,0.0,0.0,0.0,0.0,0.0,0.0,0.0,0.0,0.0,0.0,0.0,0.0,0.0,0.0,0.0,0.0,0.0,0.0,0.0,0.0,0.0,0.0,0.0,0.0,0.0,0.0,0.0,0.0,0.0,0.0,0.0,0.0,0.0,0.0,0.0,0.0,0.0,0.0,0.0,0.0,0.0,0.0,0.0,0.0,0.0,0.0,0.0,0.0,0.0,0.0,0.0,0.0,0.0,0.0,0.0,0.0,0.0,0.0,0.0,0.0,0.0,0.0,0.0,0.0,0.0,0.0,0.0,0.0,0.0,0.0,0.0,0.0,0.0,0.0,0.0,0.0,0.0,0.0,0.0,0.0,0.0,0.0,0.0,0.0,0.0,0.0,0.0,0.0,0.0,0.0,0.0,0.0,0.0,0.0,0.0,0.0,0.0,0.0,0.0,0.0,0.0,0.0,0.0,0.0,0.0,0.0,0.0,0.0,0.0,0.0,0.0,0.0,0.0,0.0,0.0,0.0,0.0,0.0,0.0,0.0,0.0,0.0,0.0,0.0,0.0,0.0,0.0,0.0,0.0,0.0,0.0,0.0,0.0,0.0,0.0,0.0,0.0,0.0,0.0,0.0,0.0,0.0,0.0,0.0,0.0,0.0,0.0,0.0,0.0,0.0,0.0,0.0,0.0,0.0,0.0,0.0,0.0,0.0,0.0,0.0,0.0,0.0,0.0,0.0,0.0,0.0,0.0,0.0,0.0,0.0,0.0,0.0,0.0,0.0,0.0,0.0,0.0,0.0,0.0,0.0,0.0,0.0,0.0,0.0,0.0,0.0,0.0,0.0,0.0,0.0,0.0,0.0,0.0,0.0,0.0,0.0,0.0,0.0,0.0,0.0,0.0,0.0,0.0,0.0,0.0,0.0,0.0,0.0,0.0,0.0,0.0,0.0,0.0,0.0,0.0,0.0,0.0,0.0,0.0,0.0,0.0,0.0,0.0,0.0,0.0,0.0,0.0,0.0,0.0,0.0,0.0,0.0,0.0,0.0,0.0,0.0,0.0,0.0,0.0,0.0,0.0,0.0,0.0,0.0,0.0,0.0,0.0,0.0,0.0,0.0,0.0,0.0,0.0,0.0,0.0,0.0,0.0,0.0,0.0,0.0,0.0,0.0,0.0,0.0,0.0,0.0,0.0,0.0,0.0,0.0,0.0,0.0,0.0,0.0,0.0,0.0,0.0,0.0,0.0,0.0,0.0,0.0,0.0,0.0,0.0,0.0,0.0,0.0,0.0,0.0,0.0,0.0,0.0,0.0,0.0,0.0,0.0,0.0,0.0,0.0,0.0,0.0,0.0,0.0,0.0,0.0,0.0,0.0,0.0,0.0,0.0,0.0,0.0,0.0,0.0,0.0,0.0,0.0,0.0,0.0,0.0,0.0,0.0,0.0,0.0,0.0,0.0,0.0,0.0,0.0,0.0,0.0,0.0,0.0,0.0,0.0,0.0,0.0,0.0,0.0,0.0,0.0,0.0,0.0,0.0,0.0,0.0,0.0,0.0,0.0,0.0,0.0,0.0,0.0,0.0,0.0,0.0,0.0,0.0,0.0,0.0,0.0,0.0,0.0,0.0,0.0,0.0,0.0,0.0,0.0,0.0,0.0,0.0,0.0,0.0,0.0,0.0,0.0,0.0,0.0,0.0,0.0,0.0,0.0,0.0,0.0,0.0,0.0,0.0,0.0,0.0,0.0,0.0,0.0,0.0,0.0,0.0,0.0,0.0,0.0,0.0,0.0,0.0,0.0,0.0,0.0,0.0,0.0,0.0,0.0,0.0,0.0,0.0,0.0,0.0,0.0,0.0,0.0,0.0,0.0,0.0,0.0,0.0,0.0,0.0,0.0,0.0,0.0,0.0,0.0,0.0,0.0,0.0,0.0,0.0,0.0,0.0,0.0,0.0,0.0,0.0,0.0,0.0,0.0,0.0,0.0,0.0,0.0,0.0,0.0,0.0,0.0,0.0,0.0,0.0,0.0,0.0,0.0,0.0,0.0,0.0,0.0,0.0,0.0,0.0,0.0,0.0,0.0,0.0,0.0,0.0,0.0,0.0,0.0,0.0,0.0,0.0,0.0,0.0,0.0,0.0,0.0,0.0,0.0,0.0,0.0,0.0,0.0,0.0,0.0,0.0,0.0,0.0,0.0,0.0,0.0,0.0,0.0,0.0,0.0,0.0,0.0,0.0,0.0,0.0,0.0,0.0,0.0,0.0,0.0,0.0,0.0,0.0,0.0,0.0,0.0,0.0,0.0,0.0,0.0,0.0,0.0,0.0,0.0,0.0,0.0,0.0,0.0,0.0,0.0,0.0,0.0,0.0,0.0,0.0,0.0,0.0,0.0,0.0,0.0,0.0,0.0,0.0,0.0,0.0,0.0,0.0,0.0,0.0,0.0,0.0,0.0,0.0,0.0,0.0,0.0,0.0,0.0,0.0,0.0,0.0,0.0,0.0,0.0,0.0,0.0,0.0,0.0,0.0,0.0,0.0,0.0,0.0,0.0,0.0,0.0,0.0,0.0,0.0,0.0,0.0,0.0,0.0,0.0,0.0,0.0,0.0,0.0,0.0,0.0,0.0,0.0,0.0,0.0,0.0,0.0,0.0,0.0,0.0,0.0,0.0,0.0,0.0,0.0,0.0,0.0,0.0,0.0,0.0,0.0,0.0,0.0,0.0,0.0,0.0,0.0,0.0,0.0,0.0,0.0,0.0,0.0,0.0,0.0,0.0,0.0,0.0,0.0,0.0,0.0,0.0,0.0,0.0,0.0,0.0,0.0,0.0,0.0,0.0,0.0,0.0,0.0,0.0,0.0,0.0,0.0,0.0,0.0,0.0,0.0,0.0,0.0,0.0,0.0,0.0,0.0,0.0,0.0,0.0,0.0,0.0,0.0,0.0,0.0,0.0,0.0,0.0,0.0,0.0,0.0,0.0,0.0,0.0,0.0,0.0,0.0,0.0,0.0,0.0,3.7899,0.0,0.0,0.0,0.0,0.0,0.0,0.0,0.0,0.0,0.0,0.0,0.0,0.0,0.0,0.0,0.0,0.0,0.0,0.0,0.0,0.0,0.0,0.0,0.0,0.0,0.0,0.0,0.0,0.0,0.0,0.0,0.0,0.0,0.0,0.0,0.0,0.0,0.0,0.0,0.0,0.0,0.0,0.0,0.0,0.0,0.0,0.0,0.0,0.0,0.0,0.0,0.0,0.0,0.0,0.0,0.0,0.0,0.0,0.0,0.0,0.0,0.0,0.0,0.0,0.0,0.0,0.0,0.0,0.0,0.0,0.0,0.0,0.0,0.0,0.0,0.0,0.0,0.0,0.0,0.0,0.0,0.0,0.0,0.0,0.0,0.0,0.0,0.0,0.0,0.0,0.0,0.0,0.0,0.0,0.0,0.0,0.0,0.0,0.0,0.0,0.0,0.0,0.0,0.0,0.0,0.0,0.0,0.0,0.0,0.0,3.7923,3.8265,3.8299,3.8299,3.8299,0.0,0.0,0.0,0.0,0.0,0.0,0.0,0.0,0.0,0.0,0.0,0.0,0.0,0.0,0.0,0.0,0.0,0.0,0.0,0.0,0.0,0.0,0.0,0.0,0.0,0.0,0.0,0.0,0.0,0.0,0.0,0.0,0.0,0.0,0.0,0.0,0.0,0.0,0.0,0.0,0.0,0.0,0.0,0.0,0.0,0.0,0.0,0.0,0.0,0.0,0.0,0.0,0.0,0.0,0.0,0.0,0.0,0.0,0.0,0.0,0.0,0.0,0.0,0.0,0.0,0.0,0.0,0.0,0.0,0.0,0.0,0.0,0.0,0.0,0.0,0.0,0.0,0.0,0.0,0.0,0.0,0.0,0.0,0.0,0.0,0.0,0.0,0.0,0.0,0.0,0.0,0.0,0.0,0.0,0.0,0.0,0.0,0.0,0.0,0.0,0.0,0.0,0.0,0.0,0.0,0.0,0.0,0.0,0.0,0.0,0.0,0.0,3.887,3.887,3.8905,0.0,0.0,0.0,0.0,0.0,0.0,0.0,0.0,0.0,0.0,0.0,0.0,0.0,0.0,0.0,0.0,0.0,0.0,0.0,0.0,0.0,0.0,0.0,0.0,0.0,0.0,0.0,0.0,0.0,0.0,0.0,0.0,0.0,0.0,0.0,0.0,0.0,0.0,0.0,0.0,0.0,0.0,0.0,0.0,0.0,0.0,0.0,0.0,0.0,0.0,0.0,0.0,0.0,0.0,0.0,0.0,0.0,0.0,0.0,0.0,0.0,0.0,0.0,0.0,0.0,0.0,0.0,0.0,0.0,0.0,0.0,0.0,0.0,0.0,0.0,0.0,0.0,0.0,0.0,0.0,0.0,0.0,0.0,0.0,0.0,0.0,0.0,0.0,0.0,0.0,0.0,0.0,0.0,0.0,0.0,0.0,0.0,0.0,0.0,0.0,0.0,0.0,0.0,0.0,0.0,0.0,0.0,0.0,0.0,0.0,3.9893,4.0664,4.0664,0.0,4.0664,0.0,0.0,0.0,0.0,0.0,0.0,0.0,0.0,0.0,0.0,0.0,0.0,0.0,0.0,0.0,0.0,0.0,0.0,0.0,0.0,0.0,0.0,0.0,0.0,0.0,0.0,0.0,0.0,0.0,0.0,0.0,0.0,0.0,0.0,0.0,0.0,0.0,0.0,0.0,0.0,0.0,0.0,0.0,0.0,0.0,0.0,0.0,0.0,0.0,0.0,0.0,0.0,0.0,0.0,0.0,0.0,0.0,0.0,0.0,0.0,0.0,0.0,0.0,0.0,0.0,0.0,0.0,0.0,0.0,0.0,0.0,0.0,0.0,0.0,0.0,0.0,0.0,0.0,0.0,0.0,0.0,0.0,0.0,0.0,0.0,0.0,0.0,0.0,0.0,0.0,0.0,0.0,0.0,0.0,0.0,0.0,0.0,0.0,0.0,0.0,0.0,0.0,0.0,0.0,0.0,0.0,0.0,0.0,0.0,0.0,4.056,4.0871,4.1,4.1,0.0,0.0,0.0,0.0,0.0,0.0,0.0,0.0,0.0,0.0,0.0,0.0,0.0,0.0,0.0,0.0,0.0,0.0,0.0,0.0,0.0,0.0,0.0,0.0,0.0,0.0,0.0,0.0,0.0,0.0,0.0,0.0,0.0,0.0,0.0,0.0,0.0,0.0,0.0,0.0,0.0,0.0,0.0,0.0,0.0,0.0,0.0,0.0,0.0,0.0,0.0,0.0,0.0,0.0,0.0,0.0,0.0,0.0,0.0,0.0,0.0,0.0,0.0,0.0,0.0,0.0,0.0,0.0,0.0,0.0,0.0,0.0,0.0,0.0,0.0,0.0,0.0,0.0,0.0,0.0,0.0,0.0,0.0,0.0,0.0,0.0,0.0,0.0,0.0,0.0,0.0,0.0,0.0,0.0,0.0,0.0,0.0,0.0,0.0,0.0,0.0,0.0,0.0,0.0,0.0,0.0,0.0,0.0,0.0,0.0,4.0918,4.0965,4.1012,4.1059,4.114,4.114,0.0,0.0,0.0,0.0,0.0,0.0,0.0,0.0,0.0,0.0,0.0,0.0,0.0,0.0,0.0,0.0,0.0,0.0,0.0,0.0,0.0,0.0,0.0,0.0,0.0,0.0,0.0,0.0,0.0,0.0,0.0,0.0,0.0,0.0,0.0,0.0,0.0,0.0,0.0,0.0,0.0,0.0,0.0,0.0,0.0,0.0,0.0,0.0,0.0,0.0,0.0,0.0,0.0,0.0,0.0,0.0,0.0,0.0,0.0,0.0,0.0,0.0,0.0,0.0,0.0,0.0,0.0,0.0,0.0,0.0,0.0,0.0,0.0,0.0,0.0,0.0,0.0,0.0,0.0,0.0,0.0,0.0,0.0,0.0,0.0,0.0,0.0,0.0,0.0,0.0,0.0,0.0,0.0,0.0,0.0,0.0,0.0,0.0,0.0,0.0,0.0,0.0,0.0,0.0,0.0,0.0,0.0,0.0,4.0871,4.1047,4.114,4.1198,4.1209,4.1209,0.0,0.0,0.0,0.0,0.0,0.0,0.0,0.0,0.0,0.0,0.0,0.0,0.0,0.0,0.0,0.0,0.0,0.0,0.0,0.0,0.0,0.0,0.0,0.0,0.0,0.0,0.0,0.0,0.0,0.0,0.0,0.0,0.0,0.0,0.0,0.0,0.0,0.0,0.0,0.0,0.0,0.0,0.0,0.0,0.0,0.0,0.0,0.0,0.0,0.0,0.0,0.0,0.0,0.0,0.0,0.0,0.0,0.0,0.0,0.0,0.0,0.0,0.0,0.0,0.0,0.0,0.0,0.0,0.0,0.0,0.0,0.0,0.0,0.0,0.0,0.0,0.0,0.0,0.0,0.0,0.0,0.0,0.0,0.0,0.0,0.0,0.0,0.0,0.0,0.0,0.0,0.0,0.0,0.0,0.0,0.0,0.0,0.0,0.0,0.0,0.0,0.0,0.0,0.0,0.0,0.0,0.0,0.0,0.0,4.1739,4.2367,4.2706,4.2812,4.2859,4.2952,0.0,0.0,0.0,0.0,0.0,0.0,0.0,0.0,0.0,0.0,0.0,0.0,0.0,0.0,0.0,0.0,0.0,0.0,0.0,0.0,0.0,0.0,0.0,0.0,0.0,0.0,0.0,0.0,0.0,0.0,0.0,0.0,0.0,0.0,0.0,0.0,0.0,0.0,0.0,0.0,0.0,0.0,0.0,0.0,0.0,0.0,0.0,0.0,0.0,0.0,0.0,0.0,0.0,0.0,0.0,0.0,0.0,0.0,0.0,0.0,0.0,0.0,0.0,0.0,0.0,0.0,0.0,0.0,0.0,0.0,0.0,0.0,0.0,0.0,0.0,0.0,0.0,0.0,0.0,0.0,0.0,0.0,0.0,0.0,0.0,0.0,0.0,0.0,0.0,0.0,0.0,0.0,0.0,0.0,0.0,0.0,0.0,0.0,0.0,0.0,0.0,0.0,0.0,0.0,0.0,0.0,0.0,0.0,0.0,4.2775,0.0,4.3828,4.3851,4.3979,4.4071,0.0,0.0,0.0,0.0,0.0,0.0,0.0,0.0,0.0,0.0,0.0,0.0,0.0,0.0,0.0,0.0,0.0,0.0,0.0,0.0,0.0,0.0,0.0,0.0,0.0,0.0,0.0,0.0,0.0,0.0,0.0,0.0,0.0,0.0,0.0,0.0,0.0,0.0,0.0,0.0,0.0,0.0,0.0,0.0,0.0,0.0,0.0,0.0,0.0,0.0,0.0,0.0,0.0,0.0,0.0,0.0,0.0,0.0,0.0,0.0,0.0,0.0,0.0,0.0,0.0,0.0,0.0,0.0,0.0,0.0,0.0,0.0,0.0,0.0,0.0,0.0,0.0,0.0,0.0,0.0,0.0,0.0,0.0,0.0,0.0,0.0,0.0,0.0,0.0,0.0,0.0,0.0,0.0,0.0,0.0,0.0,0.0,0.0,0.0,0.0,0.0,0.0,0.0,0.0,0.0,0.0,0.0,0.0,4.3659,4.3957,4.4166,4.441,4.4369,4.4475,4.4404,0.0,0.0,0.0,0.0,0.0,0.0,0.0,0.0,0.0,0.0,0.0,0.0,0.0,0.0,0.0,0.0,0.0,0.0,0.0,0.0,0.0,0.0,0.0,0.0,0.0,0.0,0.0,0.0,0.0,0.0,0.0,0.0,0.0,0.0,0.0,0.0,0.0,0.0,0.0,0.0,0.0,0.0,0.0,0.0,0.0,0.0,0.0,0.0,0.0,0.0,0.0,0.0,0.0,0.0,0.0,0.0,0.0,0.0,0.0,0.0,0.0,0.0,0.0,0.0,0.0,0.0,0.0,0.0,0.0,0.0,0.0,0.0,0.0,0.0,0.0,0.0,0.0,0.0,0.0,0.0,0.0,0.0,0.0,0.0,0.0,0.0,0.0,0.0,0.0,0.0,0.0,0.0,0.0,0.0,0.0,0.0,0.0,0.0,0.0,0.0,0.0,0.0,0.0,0.0,0.0,0.0,0.0,0.0,0.0,4.6743,4.7323,4.7666,4.7865,4.74,4.716,0.0,0.0,0.0,0.0,0.0,0.0,0.0,0.0,0.0,0.0,0.0,0.0,0.0,0.0,0.0,0.0,0.0,0.0,0.0,0.0,0.0,0.0,0.0,0.0,0.0,0.0,0.0,0.0,0.0,0.0,0.0,0.0,0.0,0.0,0.0,0.0,0.0,0.0,0.0,0.0,0.0,0.0,0.0,0.0,0.0,0.0,0.0,0.0,0.0,0.0,0.0,0.0,0.0,0.0,0.0,0.0,0.0,0.0,0.0,0.0,0.0,0.0,0.0,0.0,0.0,0.0,0.0,0.0,0.0,0.0,0.0,0.0,0.0,0.0,0.0,0.0,0.0,0.0,0.0,0.0,0.0,0.0,0.0,0.0,0.0,0.0,0.0,0.0,0.0,0.0,0.0,0.0,0.0,0.0,0.0,0.0,0.0,0.0,0.0,0.0,0.0,0.0,0.0,0.0,0.0,0.0,0.0,0.0,0.0,4.965,4.9829,4.9984,5.0124,4.9657,4.9261,4.8938,0.0,0.0,0.0,0.0,0.0,0.0,0.0,0.0,0.0,0.0,0.0,0.0,0.0,0.0,0.0,0.0,0.0,0.0,0.0,0.0,0.0,0.0,0.0,0.0,0.0,0.0,0.0,0.0,0.0,0.0,0.0,0.0,0.0,0.0,0.0,0.0,0.0,0.0,0.0,0.0,0.0,0.0,0.0,0.0,0.0,0.0,0.0,0.0,0.0,0.0,0.0,0.0,0.0,0.0,0.0,0.0,0.0,0.0,0.0,0.0,0.0,0.0,0.0,0.0,0.0,0.0,0.0,0.0,0.0,0.0,0.0,0.0,0.0,0.0,0.0,0.0,0.0,0.0,0.0,0.0,0.0,0.0,0.0,0.0,0.0,0.0,0.0,0.0,0.0,0.0,0.0,0.0,0.0,0.0,0.0,0.0,0.0,0.0,0.0,0.0,0.0,0.0,0.0,0.0,0.0,0.0,0.0,0.0,5.2744,5.1963,5.1519,5.1338,5.1302,5.0813,0.0,0.0,0.0,0.0,0.0,0.0,0.0,0.0,0.0,0.0,0.0,0.0,0.0,0.0,0.0,0.0,0.0,0.0,0.0,0.0,0.0,0.0,0.0,0.0,0.0,0.0,0.0,0.0,0.0,0.0,0.0,0.0,0.0,0.0,0.0,0.0,0.0,0.0,0.0,0.0,0.0,0.0,0.0,0.0,0.0,0.0,0.0,0.0,0.0,0.0,0.0,0.0,0.0,0.0,0.0,0.0,0.0,0.0,0.0,0.0,0.0,0.0,0.0,0.0,0.0,0.0,0.0,0.0,0.0,0.0,0.0,0.0,0.0,0.0,0.0,0.0,0.0,0.0,0.0,0.0,0.0,0.0,0.0,0.0,0.0,0.0,0.0,0.0,0.0,0.0,0.0,0.0,0.0,0.0,0.0,0.0,0.0,0.0,0.0,0.0,0.0,0.0,0.0,0.0,0.0,0.0,0.0,0.0,0.0,5.6043,5.666,5.6051,5.4199,5.3545,5.2808,0.0,0.0,0.0,0.0,0.0,0.0,0.0,0.0,0.0,0.0,0.0,0.0,0.0,0.0,0.0,0.0,0.0,0.0,0.0,0.0,0.0,0.0,0.0,0.0,0.0,0.0,0.0,0.0,0.0,0.0,0.0,0.0,0.0,0.0,0.0,0.0,0.0,0.0,0.0,0.0,0.0,0.0,0.0,0.0,0.0,0.0,0.0,0.0,0.0,0.0,0.0,0.0,0.0,0.0,0.0,0.0,0.0,0.0,0.0,0.0,0.0,0.0,0.0,0.0,0.0,0.0,0.0,0.0,0.0,0.0,0.0,0.0,0.0,0.0,0.0,0.0,0.0,0.0,0.0,0.0,0.0,0.0,0.0,0.0,0.0,0.0,0.0,0.0,0.0,0.0,0.0,0.0,0.0,0.0,0.0,0.0,0.0,0.0,0.0,0.0,0.0,0.0,0.0,0.0,0.0,0.0,0.0,0.0,5.5874,5.7449,5.886,5.8882,5.7444,5.6218,5.5186,0.0,0.0,0.0,0.0,0.0,0.0,0.0,0.0,0.0,0.0,0.0,0.0,0.0,0.0,0.0,0.0,0.0,0.0,0.0,0.0,0.0,0.0,0.0,0.0,0.0,0.0,0.0,0.0,0.0,0.0,0.0,0.0,0.0,0.0,0.0,0.0,0.0,0.0,0.0,0.0,0.0,0.0,0.0,0.0,0.0,0.0,0.0,0.0,0.0,0.0,0.0,0.0,0.0,0.0,0.0,0.0,0.0,0.0,0.0,0.0,0.0,0.0,0.0,0.0,0.0,0.0,0.0,0.0,0.0,0.0,0.0,0.0,0.0,0.0,0.0,0.0,0.0,0.0,0.0,0.0,0.0,0.0,0.0,0.0,0.0,0.0,0.0,0.0,0.0,0.0,0.0,0.0,0.0,0.0,0.0,0.0,0.0,0.0,0.0,0.0,0.0,0.0,0.0,0.0,0.0,0.0,0.0,0.0,5.7668,5.8032,5.9688,6.0639,6.0603,5.8893,5.7507,0.0,0.0,0.0,0.0,0.0,0.0,0.0,0.0,0.0,0.0,0.0,0.0,0.0,0.0,0.0,0.0,0.0,0.0,0.0,0.0,0.0,0.0,0.0,0.0,0.0,0.0,0.0,0.0,0.0,0.0,0.0,0.0,0.0,0.0,0.0,0.0,0.0,0.0,0.0,0.0,0.0,0.0,0.0,0.0,0.0,0.0,0.0,0.0,0.0,0.0,0.0,0.0,0.0,0.0,0.0,0.0,0.0,0.0,0.0,0.0,0.0,0.0,0.0,0.0,0.0,0.0,0.0,0.0,0.0,0.0,0.0,0.0,0.0,0.0,0.0,0.0,0.0,0.0,0.0,0.0,0.0,0.0,0.0,0.0,0.0,0.0,0.0,0.0,0.0,0.0,0.0,0.0,0.0,0.0,0.0,0.0,0.0,0.0,0.0,0.0,0.0,0.0,0.0,0.0,0.0,0.0,0.0,0.0,5.9138,6.0541,6.1679,6.2328,6.2291,6.0078,5.849,0.0,0.0,0.0,0.0,0.0,0.0,0.0,0.0,0.0,0.0,0.0,0.0,0.0,0.0,0.0,0.0,0.0,0.0,0.0,0.0,0.0,0.0,0.0,0.0,0.0,0.0,0.0,0.0,0.0,0.0,0.0,0.0,0.0,0.0,0.0,0.0,0.0,0.0,0.0,0.0,0.0,0.0,0.0,0.0,0.0,0.0,0.0,0.0,5.7996,0.0,0.0,0.0,0.0,0.0,0.0,0.0,0.0,0.0,0.0,0.0,0.0,0.0,0.0,0.0,0.0,0.0,0.0,0.0,0.0,0.0,0.0,0.0,0.0,0.0,0.0,0.0,0.0,0.0,0.0,0.0,0.0,0.0,0.0,0.0,0.0,0.0,0.0,0.0,0.0,0.0,0.0,0.0,0.0,0.0,0.0,0.0,0.0,0.0,0.0,0.0,0.0,0.0,0.0,0.0,0.0,0.0,0.0,0.0,6.0354,6.1359,6.2315,6.2805,6.2768,6.119,5.9894,0.0,0.0,0.0,0.0,0.0,0.0,0.0,0.0,0.0,0.0,0.0,0.0,0.0,0.0,0.0,0.0,0.0,0.0,0.0,0.0,0.0,0.0,0.0,0.0,0.0,0.0,0.0,0.0,0.0,0.0,0.0,0.0,0.0,0.0,0.0,0.0,0.0,0.0,0.0,0.0,0.0,0.0,0.0,0.0,0.0,0.0,0.0,0.0,0.0,0.0,0.0,0.0,0.0,0.0,0.0,0.0,0.0,0.0,0.0,0.0,0.0,0.0,0.0,0.0,0.0,0.0,0.0,0.0,0.0,0.0,0.0,0.0,0.0,0.0,0.0,0.0,0.0,0.0,0.0,0.0,0.0,0.0,0.0,0.0,0.0,0.0,0.0,0.0,0.0,0.0,0.0,0.0,0.0,0.0,0.0,0.0,0.0,0.0,0.0,0.0,0.0,0.0,0.0,0.0,0.0,0.0,0.0,6.018,6.1624,6.2032,6.2792,6.3209,6.3172,6.2401,6.1594,0.0,0.0,0.0,0.0,0.0,0.0,0.0,0.0,0.0,0.0,0.0,0.0,0.0,0.0,0.0,0.0,0.0,0.0,0.0,0.0,0.0,0.0,0.0,0.0,0.0,0.0,0.0,0.0,0.0,0.0,0.0,0.0,0.0,0.0,0.0,0.0,0.0,0.0,0.0,5.5257,5.6866,0.0,0.0,0.0,0.0,0.0,0.0,0.0,0.0,6.1226,0.0,0.0,0.0,0.0,0.0,0.0,0.0,0.0,0.0,0.0,0.0,0.0,0.0,0.0,0.0,0.0,0.0,0.0,0.0,0.0,0.0,0.0,0.0,0.0,0.0,0.0,0.0,0.0,0.0,0.0,0.0,0.0,0.0,0.0,0.0,0.0,0.0,0.0,0.0,0.0,0.0,0.0,0.0,0.0,0.0,0.0,0.0,0.0,0.0,0.0,0.0,0.0,0.0,0.0,0.0,0.0,6.0368,6.1579,6.3027,6.4589,6.4824,6.4897,6.4897,6.4127,6.3282,6.2365,0.0,0.0,0.0,0.0,0.0,0.0,0.0,0.0,0.0,0.0,0.0,0.0,0.0,0.0,0.0,0.0,0.0,0.0,0.0,0.0,0.0,0.0,0.0,0.0,0.0,0.0,0.0,0.0,0.0,0.0,0.0,0.0,0.0,0.0,0.0,0.0,0.0,0.0,0.0,5.8412,5.9168,0.0,0.0,0.0,0.0,0.0,0.0,0.0,0.0,6.4785,0.0,0.0,0.0,0.0,0.0,0.0,0.0,0.0,0.0,0.0,0.0,0.0,0.0,0.0,0.0,0.0,0.0,0.0,0.0,0.0,0.0,0.0,0.0,0.0,0.0,0.0,0.0,0.0,0.0,0.0,0.0,0.0,0.0,0.0,0.0,0.0,0.0,0.0,0.0,0.0,0.0,0.0,0.0,0.0,0.0,0.0,0.0,0.0,0.0,0.0,0.0,0.0,0.0,0.0,0.0,6.1636,6.3069,6.4286,6.5264,6.5338,6.5338,6.5301,6.4934,6.4347,0.0,0.0,0.0,0.0,0.0,0.0,0.0,0.0,0.0,0.0,0.0,0.0,0.0,0.0,0.0,0.0,0.0,0.0,0.0,0.0,0.0,0.0,0.0,0.0,0.0,0.0,0.0,0.0,0.0,0.0,0.0,0.0,0.0,0.0,0.0,0.0,0.0,0.0,0.0,0.0,6.0755,6.1768,6.2311,0.0,0.0,0.0,0.0,0.0,0.0,6.6957,6.6391,0.0,0.0,0.0,0.0,0.0,0.0,0.0,0.0,0.0,0.0,0.0,0.0,0.0,0.0,0.0,0.0,0.0,0.0,0.0,0.0,0.0,0.0,0.0,0.0,0.0,0.0,0.0,0.0,0.0,0.0,0.0,0.0,0.0,0.0,0.0,0.0,0.0,0.0,0.0,0.0,0.0,0.0,0.0,0.0,0.0,0.0,0.0,0.0,0.0,0.0,0.0,0.0,0.0,0.0,0.0,6.2652,6.4417,6.5474,6.5778,6.5778,6.5778,6.5778,6.5632,6.5228,0.0,0.0,0.0,0.0,0.0,0.0,0.0,0.0,0.0,0.0,0.0,0.0,0.0,0.0,0.0,0.0,0.0,0.0,0.0,0.0,0.0,0.0,0.0,0.0,0.0,0.0,0.0,0.0,0.0,0.0,0.0,0.0,0.0,0.0,0.0,0.0,0.0,0.0,0.0,0.0,0.0,6.4071,6.4981,6.6683,0.0,0.0,0.0,0.0,6.9518,6.8074,0.0,0.0,0.0,0.0,0.0,0.0,0.0,0.0,0.0,0.0,0.0,0.0,0.0,0.0,0.0,0.0,0.0,0.0,0.0,0.0,0.0,0.0,0.0,0.0,0.0,0.0,0.0,0.0,0.0,0.0,0.0,0.0,0.0,0.0,0.0,0.0,0.0,0.0,0.0,0.0,0.0,0.0,0.0,0.0,0.0,0.0,0.0,0.0,0.0,0.0,0.0,0.0,0.0,0.0,0.0,0.0,6.3564,6.5257,6.6589,6.7357,6.7393,6.7393,6.7393,6.6733,6.6329,0.0,0.0,0.0,0.0,0.0,0.0,0.0,0.0,0.0,0.0,0.0,0.0,0.0,0.0,0.0,0.0,0.0,0.0,0.0,0.0,0.0,0.0,0.0,0.0,0.0,0.0,0.0,0.0,0.0,0.0,0.0,0.0,0.0,0.0,0.0,0.0,0.0,0.0,0.0,0.0,0.0,6.4087,6.4981,6.5311,6.5623,0.0,0.0,0.0,6.8714,6.8715,0.0,0.0,0.0,0.0,0.0,0.0,0.0,0.0,0.0,0.0,0.0,0.0,0.0,0.0,0.0,0.0,0.0,0.0,0.0,0.0,0.0,0.0,0.0,0.0,0.0,0.0,0.0,0.0,0.0,0.0,0.0,0.0,0.0,0.0,0.0,0.0,0.0,0.0,0.0,0.0,0.0,0.0,0.0,0.0,0.0,0.0,0.0,0.0,0.0,0.0,0.0,0.0,0.0,0.0,0.0,6.3548,6.4986,6.6811,6.7963,6.8385,6.8825,6.9045,6.9045,6.8274,6.765,0.0,0.0,0.0,0.0,0.0,0.0,0.0,0.0,0.0,0.0,0.0,0.0,0.0,0.0,0.0,0.0,0.0,0.0,0.0,0.0,0.0,0.0,0.0,0.0,0.0,0.0,0.0,0.0,0.0,0.0,0.0,0.0,0.0,0.0,0.0,0.0,0.0,0.0,0.0,0.0,0.0,0.0,6.6533,6.7376,0.0,0.0,0.0,6.9082,6.9411,0.0,0.0,0.0,0.0,0.0,0.0,0.0,0.0,0.0,0.0,0.0,0.0,0.0,0.0,0.0,0.0,0.0,0.0,0.0,0.0,0.0,0.0,0.0,0.0,0.0,0.0,0.0,0.0,0.0,0.0,0.0,0.0,0.0,0.0,0.0,0.0,0.0,0.0,0.0,0.0,0.0,0.0,0.0,0.0,0.0,0.0,0.0,0.0,0.0,0.0,0.0,0.0,0.0,0.0,0.0,0.0,0.0,6.6299,6.8184,6.9192,6.9229,6.9779,7.011,7.0073,6.9522,0.0,0.0,0.0,0.0,0.0,0.0,0.0,0.0,0.0,0.0,0.0,0.0,0.0,0.0,0.0,0.0,0.0,0.0,0.0,0.0,0.0,0.0,0.0,0.0,0.0,0.0,0.0,5.9796,0.0,0.0,0.0,0.0,0.0,0.0,0.0,0.0,0.0,0.0,0.0,0.0,0.0,0.0,6.7467,6.765,6.8898,6.9816,0.0,0.0,7.011,7.011,6.9596,6.9192,0.0,0.0,0.0,0.0,0.0,0.0,0.0,0.0,0.0,0.0,0.0,0.0,0.0,0.0,0.0,0.0,0.0,0.0,0.0,0.0,0.0,0.0,0.0,0.0,0.0,0.0,0.0,0.0,0.0,0.0,0.0,0.0,0.0,0.0,0.0,0.0,0.0,0.0,0.0,0.0,0.0,0.0,0.0,0.0,0.0,0.0,0.0,0.0,0.0,0.0,0.0,0.0,0.0,0.0,0.0,6.7137,6.9026,7.0,7.0,7.0073,7.011,7.011,7.0036,6.9633,0.0,0.0,0.0,0.0,0.0,0.0,0.0,0.0,0.0,0.0,0.0,0.0,0.0,0.0,0.0,0.0,0.0,0.0,0.0,0.0,0.0,0.0,0.0,0.0,0.0,0.0,0.0,0.0,0.0,0.0,0.0,0.0,0.0,0.0,0.0,0.0,0.0,0.0,0.0,0.0,0.0,6.6843,6.7577,6.8421,6.9009,0.0,0.0,7.011,7.011,7.0073,7.0036,7.0036,0.0,0.0,0.0,0.0,0.0,0.0,0.0,0.0,0.0,0.0,0.0,0.0,0.0,0.0,0.0,0.0,0.0,0.0,0.0,0.0,0.0,0.0,0.0,0.0,0.0,0.0,0.0,0.0,0.0,0.0,0.0,0.0,0.0,0.0,0.0,0.0,0.0,0.0,0.0,0.0,0.0,0.0,0.0,0.0,0.0,0.0,0.0,0.0,0.0,0.0,0.0,0.0,0.0,6.723,6.8145,6.9924,7.0844,7.0881,7.1321,7.1578,7.1578,7.1138,7.0697,0.0,0.0,0.0,0.0,0.0,0.0,0.0,0.0,0.0,0.0,0.0,0.0,0.0,0.0,0.0,0.0,0.0,0.0,0.0,0.0,0.0,0.0,0.0,0.0,0.0,0.0,0.0,0.0,6.4815,6.5156,6.512,0.0,0.0,0.0,0.0,0.0,0.0,0.0,0.0,0.0,0.0,6.8274,6.9082,6.9449,0.0,0.0,6.9889,7.011,7.011,7.011,7.011,7.011,6.9853,0.0,0.0,0.0,0.0,0.0,0.0,0.0,0.0,0.0,0.0,0.0,0.0,0.0,0.0,0.0,0.0,0.0,0.0,0.0,0.0,0.0,0.0,0.0,0.0,0.0,0.0,0.0,0.0,0.0,0.0,0.0,0.0,0.0,0.0,0.0,0.0,0.0,0.0,0.0,0.0,0.0,0.0,0.0,0.0,0.0,0.0,0.0,0.0,0.0,0.0,0.0,0.0,6.8069,6.9043,7.0787,7.1651,7.1688,7.2202,7.2532,7.2496,7.1982,7.1541,0.0,0.0,0.0,0.0,0.0,0.0,0.0,0.0,0.0,0.0,0.0,0.0,0.0,0.0,0.0,0.0,0.0,0.0,0.0,0.0,0.0,0.0,0.0,0.0,0.0,0.0,0.0,0.0,6.6001,6.6032,6.6069,0.0,0.0,0.0,0.0,0.0,0.0,0.0,0.0,0.0,0.0,6.9486,7.0,7.0293,7.0477,7.0477,7.066,7.0844,7.0807,7.0807,7.0807,7.0807,0.0,0.0,0.0,0.0,0.0,0.0,0.0,0.0,0.0,0.0,0.0,0.0,0.0,0.0,0.0,0.0,0.0,0.0,0.0,0.0,0.0,0.0,0.0,0.0,0.0,0.0,0.0,0.0,0.0,0.0,0.0,0.0,0.0,0.0,0.0,0.0,0.0,0.0,0.0,0.0,0.0,0.0,0.0,0.0,0.0,0.0,0.0,0.0,0.0,0.0,0.0,0.0,0.0,0.0,6.9884,7.1594,7.2459,7.2459,7.2496,7.2532,7.2496,7.2496,7.2092,7.1321,0.0,0.0,0.0,0.0,0.0,0.0,0.0,0.0,0.0,0.0,0.0,0.0,0.0,0.0,0.0,0.0,0.0,0.0,0.0,0.0,0.0,0.0,0.0,0.0,0.0,0.0,6.6299,6.6811,6.7174,0.0,0.0,0.0,0.0,0.0,0.0,0.0,0.0,0.0,0.0,6.9868,7.0073,7.0146,7.0807,7.1284,7.1284,7.1945,7.2422,7.2422,7.2422,7.2459,0.0,0.0,0.0,0.0,0.0,0.0,0.0,0.0,0.0,0.0,0.0,0.0,0.0,0.0,0.0,0.0,0.0,0.0,0.0,0.0,0.0,0.0,0.0,0.0,0.0,0.0,0.0,0.0,0.0,0.0,0.0,0.0,0.0,0.0,0.0,0.0,0.0,0.0,0.0,0.0,6.4055,6.4621,0.0,0.0,0.0,0.0,0.0,0.0,0.0,0.0,0.0,0.0,0.0,0.0,6.9884,7.0804,7.1924,7.2532,7.2532,7.2532,7.2532,7.2532,7.2532,7.2129,7.1358,0.0,0.0,0.0,0.0,0.0,0.0,0.0,0.0,0.0,0.0,0.0,0.0,0.0,0.0,0.0,0.0,0.0,0.0,0.0,0.0,0.0,0.0,0.0,0.0,0.0,6.7989,0.0,0.0,0.0,0.0,0.0,0.0,0.0,0.0,0.0,0.0,0.0,6.918,7.0274,7.0653,7.1101,7.1615,7.1945,7.2092,0.0,0.0,0.0,0.0,0.0,0.0,0.0,0.0,0.0,0.0,0.0,0.0,0.0,0.0,6.8495,6.8495,6.8495,6.8495,6.8495,0.0,0.0,0.0,0.0,0.0,0.0,0.0,0.0,0.0,0.0,0.0,0.0,0.0,0.0,0.0,0.0,6.4427,0.0,0.0,0.0,0.0,0.0,0.0,0.0,0.0,6.6281,6.6647,6.6647,6.7195,6.7487,0.0,6.7999,6.7451,0.0,0.0,0.0,0.0,0.0,0.0,0.0,0.0,7.06,7.1321,7.2092,7.2532,7.2532,7.2532,7.2532,7.2532,7.2532,7.2275,7.1762,7.1468,7.1064,0.0,0.0,0.0,0.0,0.0,0.0,0.0,0.0,0.0,0.0,0.0,0.0,0.0,0.0,0.0,0.0,0.0,0.0,0.0,0.0,0.0,0.0,0.0,6.962,0.0,0.0,0.0,0.0,0.0,0.0,0.0,0.0,0.0,6.8935,6.949,7.0251,7.1112,7.1458,7.1851,7.2422,0.0,0.0,0.0,0.0,0.0,0.0,0.0,7.2532,7.2532,7.2532,7.2349,7.1798,7.1284,7.0917,7.0917,0.0,0.0,7.022,7.011,7.011,7.011,7.011,7.011,7.011,7.011,7.0183,0.0,0.0,0.0,0.0,0.0,0.0,0.0,0.0,6.7724,6.7724,0.0,0.0,0.0,0.0,0.0,0.0,0.0,0.0,0.0,0.0,6.9669,7.0073,7.0036,7.0073,7.011,7.0146,7.0146,7.0146,7.0036,6.8328,0.0,0.0,0.0,0.0,0.0,0.0,7.1207,7.1394,7.2129,7.2532,7.2532,7.2532,7.2532,7.2532,7.2532,7.2496,7.2459,7.1762,7.1358,7.1358,7.0587,0.0,0.0,0.0,0.0,0.0,0.0,0.0,0.0,0.0,0.0,0.0,0.0,0.0,0.0,0.0,0.0,0.0,0.0,0.0,0.0,7.1629,0.0,0.0,0.0,0.0,0.0,0.0,0.0,0.0,0.0,0.0,7.0641,7.0617,7.0969,7.1878,0.0,0.0,0.0,0.0,7.2532,7.2532,7.2532,7.2532,7.2532,7.2532,7.2532,7.2532,0.0,0.0,7.2496,7.2496,7.2459,7.2496,7.2422,7.2018,7.0513,7.0257,7.0257,7.022,7.0293,7.0183,7.0183,7.033,7.0513,7.0623,0.0,0.0,0.0,0.0,6.9473,6.9426,6.9539,6.9467,6.9412,6.9412,6.9412,0.0,0.0,0.0,0.0,0.0,0.0,6.9522,6.9743,6.9963,7.011,7.011,7.0697,7.0954,7.0991,7.1541,7.1798,7.1798,7.1301,7.0547,6.9668,0.0,0.0,0.0,0.0,7.1521,7.2129,7.2386,7.2532,7.2532,7.2532,7.2532,7.2532,7.2532,7.2532,7.2496,7.2275,7.2165,7.2165,7.1394,0.0,0.0,0.0,0.0,0.0,0.0,0.0,0.0,0.0,0.0,0.0,0.0,0.0,0.0,0.0,0.0,0.0,0.0,0.0,7.2295,7.3257,7.3576,0.0,0.0,0.0,0.0,0.0,0.0,0.0,0.0,0.0,7.1728,7.1659,7.1709,0.0,0.0,7.2299,7.2358,7.2438,7.2532,7.2532,0.0,0.0,0.0,7.2532,7.2532,7.2532,7.2532,7.2532,7.2532,7.2532,7.2532,7.2532,7.2532,7.2349,7.1945,7.1798,7.1798,7.1835,7.1798,7.1798,7.1835,7.1835,7.1872,7.2369,7.1849,7.1218,7.1005,7.1057,7.1041,7.1065,7.1176,7.112,7.1027,7.1027,7.1027,7.0587,6.9853,6.9522,0.0,0.0,0.0,7.077,7.1064,7.1064,7.1027,7.1101,7.1578,7.1798,7.1798,7.2275,7.2532,7.2532,7.2532,7.2018,7.1101,0.0,0.0,7.1762,7.1798,7.2018,7.2496,7.2532,7.2532,7.2532,7.2826,7.312,7.345,7.3156,7.2973,7.2973,7.2679,7.2532,7.2496,7.2055,7.1651,0.0,0.0,0.0,0.0,0.0,0.0,0.0,0.0,0.0,0.0,0.0,6.9891,0.0,0.0,0.0,0.0,7.2741,7.3031,7.3695,7.4396,0.0,0.0,0.0,0.0,0.0,0.0,0.0,7.2869,7.2541,7.2354,7.2687,7.2248,7.1903,7.1816,7.2,7.2181,7.2299,0.0,7.2438,7.2496,7.2532,7.2532,7.2532,7.2532,7.2532,7.2532,7.2532,7.2532,7.2532,7.2532,7.2532,7.2532,7.2532,7.2532,7.2532,7.2532,7.2532,7.2532,7.2532,7.2532,7.2532,7.2532,7.2532,7.3484,7.3372,7.1775,7.1398,7.1854,7.18,7.2079,7.2553,7.2496,7.2532,7.2532,7.2532,7.2092,7.1358,7.0624,0.0,0.0,7.1394,7.1798,7.2496,7.2532,7.2532,7.2496,7.2496,7.2532,7.2496,7.2532,7.2532,7.2532,7.2532,7.2496,7.2532,7.2532,7.2532,7.2532,7.2496,7.2532,7.2606,7.2606,7.2642,7.2716,7.3413,7.4147,7.4845,7.4184,7.378,7.378,7.3083,7.2679,7.2679,7.2642,7.2275,7.1598,0.0,0.0,0.0,0.0,0.0,0.0,0.0,0.0,0.0,0.0,0.0,0.0,0.0,0.0,0.0,7.4561,0.0,7.5208,7.5095,0.0,0.0,0.0,7.4778,7.4657,7.4568,7.4438,7.4131,0.0,0.0,0.0,0.0,7.1842,7.1816,7.1816,7.1903,7.224,7.2263,7.2321,7.2438,7.2496,7.2496,7.2532,7.2606,7.2679,7.2679,7.2642,7.2789,7.2789,7.2789,7.2753,7.2679,7.2606,7.2569,7.2532,7.2532,7.2532,7.2532,7.2532,7.2532,7.2532,7.2532,7.2532,7.4301,7.4227,7.3224,7.2875,7.2971,7.2795,7.2743,7.2872,7.261,7.2532,7.2532,7.2532,7.2386,7.2202,7.2018,7.2018,7.2239,7.2202,7.2312,7.2496,7.2532,7.2532,7.2532,7.2532,7.2532,7.2532,7.2532,7.2532,7.2532,7.2532,7.2532,7.2532,7.2532,7.2532,7.2532,7.2532,7.2789,7.3413,7.3413,7.3707,7.4331,7.4515,7.4698,7.4918,7.4735,7.4625,7.4625,7.4441,7.4331,7.4331,7.3744,7.3533,7.3717,7.3162,0.0,0.0,0.0,0.0,0.0,0.0,0.0,0.0,0.0,7.2995,7.3225,0.0,7.4676,0.0,7.5205,7.5208,7.4821,7.5056,0.0,0.0,7.5171,7.5017,7.4857,7.4857,7.4737,7.4305,7.4085,7.3752,7.3013,7.2669,7.2248,7.1842,7.1816,7.178,7.1939,7.2024,7.2144,7.2358,7.2358,7.238,7.2606,7.3046,7.3413,7.3413,7.3891,7.4331,7.4331,7.4368,7.4147,7.356,7.3413,7.3156,7.2642,7.2532,7.2532,7.2532,7.2532,7.2532,7.2532,7.2532,7.2532,7.5118,7.5081,7.4635,7.445,7.4413,7.3495,7.3037,7.2982,7.2723,7.261,7.261,7.2496,7.2532,7.2532,7.2532,7.2532,7.2532,7.2532,7.2532,7.2532,7.2532,7.2532,7.2532,7.2532,7.2532,7.2532,7.2532,7.2532,7.2532,7.2532,7.2679,7.301,7.3046,7.323,7.356,7.323,7.3413,7.4221,7.4221,7.4625,7.5395,7.5432,7.5616,7.5946,7.5616,7.5432,7.5432,7.5102,7.4918,7.5037,7.4654,7.4625,7.4974,7.4741,7.4499,0.0,0.0,0.0,0.0,0.0,0.0,0.0,0.0,0.0,0.0,0.0,7.5356,0.0,7.5356,0.0,7.4941,7.5133,7.532,7.5358,7.5358,7.5246,7.5209,7.5133,7.5018,7.4778,7.4274,7.3906,7.3541,7.2797,7.2365,7.2285,7.2376,7.2303,7.2036,7.2084,7.2313,7.2797,7.293,7.3076,7.3487,7.3964,7.4258,7.4258,7.4625,7.4918,7.4918,7.4918,7.4771,7.4331,7.4221,7.4111,7.367,7.3597,7.356,7.356,7.356,7.3303,7.2679,7.2532,7.2532,7.5973,7.5973,7.5824,7.5787,7.5713,7.4195,7.3441,7.3332,7.3019,7.2834,7.2723,7.2553,7.2532,7.2532,7.2532,7.2532,7.2532,7.2532,7.2532,7.2532,7.2532,7.2532,7.2532,7.2532,7.2532,7.2532,7.2532,7.2532,7.2642,7.2642,7.3046,7.3817,7.3854,7.4258,7.4992,7.4368,7.4368,7.5065,7.5175,7.5542,7.624,7.6276,7.6607,7.7231,7.6644,7.624,7.624,7.5579,7.5271,7.5485,7.5547,7.5699,7.5882,7.6243,7.6466,0.0,7.6203,0.0,0.0,0.0,0.0,0.0,0.0,0.0,0.0,7.5356,7.5427,7.5318,7.5356,7.532,7.532,7.532,7.5356,7.5501,7.5501,7.5501,7.5501,7.5356,7.5245,7.5208,7.4369,7.3963,7.4206,7.3162,7.2606,7.3091,7.3296,7.3276,7.2775,7.2702,7.2921,7.3722,7.3854,7.4037,7.4625,7.4955,7.5065,7.5065,7.5249,7.5212,7.5322,7.5322,7.5212,7.5102,7.5065,7.4992,7.4955,7.4882,7.4882,7.4808,7.4771,7.4368,7.3266,7.2789,7.2679,7.6827,7.679,7.6084,7.5787,7.575,7.5453,7.5234,7.5033,7.4293,7.3462,7.2723,7.2553,7.2532,7.2532,7.2532,7.2532,7.2532,7.2532,7.2532,7.2532,7.2532,7.2532,7.2532,7.2532,7.2532,7.2532,7.2532,7.2826,7.3487,7.345,7.3891,7.4661,7.4698,7.5065,0.0,0.0,0.0,0.0,7.6533,7.6937,7.7084,7.7084,7.7157,7.7304,7.7157,0.0,7.7084,7.6937,7.6925,7.7142,7.6655,0.0,0.0,0.0,0.0,0.0,0.0,0.0,0.0,0.0,0.0,0.0,7.6084,7.5855,7.5321,7.5392,7.5501,7.5427,7.5465,7.5465,7.5465,7.5462,7.5462,7.5501,7.5501,7.5427,7.5356,7.532,7.5133,7.4619,7.4778,7.467,7.4271,7.4227,7.4236,7.428,7.4409,7.4445,7.4418,7.4129,7.4117,7.4482,7.4639,7.4735,7.4882,7.5469,7.5873,7.5946,7.646,7.679,7.679,7.679,7.657,7.6056,7.5873,7.5652,7.5102,7.4918,7.5028,7.4918,7.4955,7.4808,7.4515,7.3927,7.345,7.7682,0.0,7.7199,7.7013,0.0,7.7013,7.6958,7.6829,7.5421,7.4457,7.3823,7.3707,7.345,7.3083,7.3083,7.2863,7.2532,7.2532,7.2532,7.2532,7.2532,7.2716,7.3083,7.3083,7.3303,7.367,7.367,7.3891,7.4294,7.4294,7.4698,7.5506,7.5506,7.5873,7.668,7.6717,7.6717,7.6717,7.7121,7.7341,7.7341,7.7341,7.7341,7.7341,0.0,0.0,0.0,0.0,0.0,0.0,0.0,0.0,0.0,0.0,0.0,7.8447,7.8238,7.8134,7.8254,7.7873,7.7493,7.7226,7.7225,7.6728,7.5506,7.5501,7.5501,7.5501,7.5501,7.5501,7.5501,7.5501,7.5501,7.5501,7.5501,7.5615,7.5888,7.6002,7.6045,7.6158,7.5952,7.5668,7.532,7.4974,7.4885,7.4845,7.5165,7.5445,7.5372,7.5018,7.4848,7.5312,7.5849,7.6093,7.613,7.6387,7.668,7.679,7.7047,7.7268,7.7341,7.7341,7.7157,7.679,7.6717,7.6533,7.6203,7.6093,7.613,7.6093,7.6093,7.613,7.6056,7.5139,7.4294,7.8722,7.8722,7.8685,7.8611,7.8499,7.8499,7.8425,7.8109,0.0,0.0,0.0,7.4978,7.4515,7.3927,7.3927,7.356,7.2936,7.2936,7.2936,7.2936,7.2936,7.3266,7.3891,7.3891,7.4258,7.4882,7.4918,7.4992,7.5102,7.5139,7.5506,7.624,7.6313,7.668,7.7268,7.7341,7.7378,7.7524,7.7414,7.7341,7.7341,7.7341,7.7341,7.7341,7.7341,7.7341,7.7341,7.7341,7.7402,7.7584,7.8146,7.8383,7.8257,7.9293,7.974,7.9441,7.9267,7.9247,7.9324,7.8675,7.8255,7.8252,7.8099,7.7411,7.6036,7.5921,7.5921,7.5921,7.5921,7.5959,7.5921,7.5921,7.5921,7.5921,7.5921,7.6227,7.68,7.6914,7.7109,7.757,7.6998,7.6611,7.6481,7.5899,7.5374,7.5537,7.6089,7.6397,7.624,7.5836,7.5629,7.624,7.6754,7.7231,7.7304,7.7268,7.7341,7.7268,7.7304,7.7341,7.7341,7.7341,7.7341,7.7268,7.7304,7.7268,7.7304,7.7194,7.7341,7.7341,7.7341,7.7341,7.7194,7.6276,7.5359,8.0357,8.0357,8.0357,7.9948,7.9316,7.9316,7.8852,7.7997,7.7051,7.6161,7.5363,7.519,7.5,7.4735,7.4735,7.4698,7.4551,7.4551,7.4588,0.0,7.4588,7.4625,7.4735,7.4735,7.4808,7.4918,7.4918,7.5285,7.5873,7.5909,7.635,7.7047,7.7157,7.7194,7.7304,7.7341,7.7671,7.8405,7.7671,7.7341,7.7341,7.7341,7.7341,7.7341,7.7341,7.7341,7.7341,7.7341,7.7402,7.7584,7.782,7.8257,7.9004,7.9293,7.974,8.0276,8.0278,8.0277,8.0277,8.02,7.9856,7.913,7.8443,7.7908,7.7678,7.764,7.764,7.764,7.7564,7.764,7.764,7.7602,7.7564,7.7602,7.7602,7.7717,7.7793,7.7831,7.7608,7.7061,7.6948,7.7107,7.6938,7.7088,7.7244,7.7515,7.7382,7.7604,7.7132,7.7047,7.7047,7.7121,7.7231,7.7341,7.7341,7.7341,7.7341,7.7341,7.7341,7.7341,7.7341,7.7341,7.7341,7.7341,7.7341,7.7341,7.7341,7.7341,7.7341,7.7341,7.7341,7.7341,7.7341,7.7011,7.668,8.0691,8.0691,8.0691,8.0468,8.0134,8.0134,7.9594,7.8795,7.8424,7.7624,7.6633,7.642,7.6043,7.5579,7.5579,7.5322,7.4918,7.4918,7.4918,7.4918,7.4918,7.5139,7.5542,7.5579,7.5799,7.6203,7.624,7.6387,7.6717,7.6754,7.6937,7.7304,7.7341,7.7561,7.8002,7.8002,7.8405,7.9213,7.8442,7.8222,7.8626,7.8662,7.8662,7.8662,7.8662,7.8662,7.8662,7.8662,7.8504,7.8162,7.8411,7.8498,7.8202,7.9064,7.9576,7.9665,8.0199,8.0506,8.0506,8.0506,8.0353,7.9971,7.9589,7.936,7.936,7.8519,7.8022,7.8022,7.8022,7.8022,7.8022,7.8022,7.8022,7.8022,7.8022,7.8213,7.8634,7.871,7.8676,7.8622,7.8571,7.8421,7.8041,7.7961,7.7808,7.7694,7.7651,7.757,7.7304,7.7341,7.7341,7.7304,7.7341,7.7341,7.7341,7.7341,7.7341,7.7341,7.7341,7.7341,7.7341,7.7341,7.7341,7.7341,7.7341,7.7341,7.7341,7.7341,7.7341,7.7341,7.7341,7.7341,7.7341,7.7341,7.7194,8.1248,8.1285,8.1248,8.1137,8.0988,8.0765,8.032,7.9799,7.9706,7.92,7.8256,7.7671,7.7095,7.6484,7.6447,7.6056,7.5506,7.5469,7.5469,7.5469,7.5469,7.5799,7.6313,7.635,7.6717,7.7268,7.7341,7.7341,7.7341,7.7341,7.7414,7.7598,7.7598,7.8038,7.8846,7.8883,7.925,7.9984,7.9433,7.936,7.9764,7.98,7.98,7.98,7.9764,7.98,7.98,7.98,7.9507,7.8919,7.9224,7.9068,7.8301,7.9166,7.9751,7.9622,8.0154,8.0506,8.0506,8.0506,8.0506,8.0506,8.0506,8.0506,8.0391,7.9321,7.8557,7.8557,7.8634,7.8596,7.8634,7.8634,7.8557,7.8557,7.8557,7.8901,7.9436,7.9551,7.9667,8.0085,7.9751,7.9274,7.8791,7.8363,7.7979,7.7651,7.7365,7.7341,7.7341,7.7341,7.7341,7.7341,7.7341,7.7341,7.7341,7.7341,7.7341,7.7341,7.7341,7.7341,7.7341,7.7341,7.7341,7.7341,7.7341,7.7341,7.7341,7.7341,7.7341,7.7341,7.7341,7.7341,7.7341,7.7341,7.7341,8.292,8.2957,8.292,8.2511,8.1806,8.1063,8.0691,8.058,8.0502,8.0348,7.9993,7.8623,7.7783,7.7473,7.7413,7.7242,7.7047,7.7084,7.7047,7.7047,7.7084,7.7121,7.7157,7.7194,7.7231,7.7341,7.7341,7.7341,7.7341,7.7378,7.7745,7.8405,7.8479,7.8883,7.958,7.969,8.0057,8.0865,8.0828,8.0461,7.9837,7.98,7.98,7.98,7.98,7.98,7.9874,7.98,7.9764,7.969,7.9717,8.0156,8.0757,8.043,8.049,8.1342,8.0889,8.0506,8.0506,8.0506,8.0506,8.0506,8.0506,8.0506,8.0506,8.0353,8.0238,8.0162,8.0238,8.0087,8.0277,8.0163,8.0011,7.9896,8.0011,8.0315,8.0239,8.0391,8.0083,7.9133,7.9085,7.8791,7.8363,7.809,7.8072,7.796,7.757,7.7341,7.7341,7.7341,7.7341,7.7341,7.7341,7.7341,7.7341,7.7341,7.7341,7.7341,7.7341,7.7341,7.7341,7.7341,7.7341,7.7341,7.7341,7.7341,7.7341,7.7341,7.7341,7.7341,7.7341,7.7341,7.7341,7.7341,7.7341,8.318,8.318,8.318,8.2994,8.266,8.2326,8.188,8.1471,8.1413,8.1116,8.0539,7.9928,7.9142,7.8403,7.7864,7.7524,7.7463,7.7341,7.7341,7.7341,7.7341,7.7341,7.7341,7.7341,7.7341,7.7341,7.7341,7.7341,7.7414,7.7818,7.8479,7.9213,7.9286,7.969,8.0461,8.0498,8.0901,8.1672,8.1709,8.1525,8.1232,8.1195,8.1195,8.1195,8.1195,8.1195,8.1195,8.1232,8.0975,8.0571,8.0498,8.0493,8.0481,8.0704,8.108,8.1506,8.1378,8.127,8.127,8.0773,8.0506,8.0506,8.0506,8.0506,8.0506,8.0506,8.0506,8.0468,8.0199,8.004,7.9999,7.9751,7.9538,7.9538,7.9538,7.9583,7.9538,7.9583,7.9358,7.894,7.8891,7.869,7.82,7.7789,7.7826,7.796,7.7651,7.7304,7.7341,7.7341,7.7341,7.7341,7.7341,7.7341,7.7341,7.7341,7.7341,7.7341,7.7341,7.7341,7.7341,7.7341,7.7341,7.7341,7.7341,7.7341,7.7341,7.7341,7.7341,7.7341,7.7341,7.7341,7.7341,7.7341,7.7341,8.318,8.318,8.318,8.318,8.318,8.318,8.2846,8.2363,8.2326,8.1954,8.1397,8.1137,8.0613,7.9749,7.8795,7.8367,7.8246,7.7904,7.7671,7.7635,7.7451,7.7341,7.7341,7.7598,7.7671,7.7708,7.7928,7.8038,7.8075,7.8589,7.9323,8.0021,8.0131,8.0534,8.1269,8.1342,8.1636,8.2113,8.2186,8.2186,8.215,8.2186,8.2186,8.2186,8.2186,8.2186,8.2186,8.2186,8.1929,8.1342,8.1342,8.1112,8.0739,8.1196,8.1477,8.142,8.1854,8.2072,8.1917,8.1461,8.1194,8.1156,8.1003,8.085,8.0812,8.0621,8.0506,8.043,7.9999,7.9751,7.9836,7.9538,7.932,7.9358,7.9358,7.9358,7.9403,7.932,7.9358,7.9133,7.8989,7.869,7.8146,7.7651,7.751,7.7903,7.7688,7.7341,7.7341,7.7341,7.7341,7.7341,7.7341,7.7341,7.7341,7.7341,7.7341,7.7341,7.7341,7.7341,7.7341,7.7341,7.7341,7.7341,7.7341,7.7341,7.7341,7.7341,7.7341,7.7341,7.7341,7.7341,7.7341,7.7341,7.7341,8.318,8.318,8.318,8.318,8.318,8.318,8.318,8.3032,8.3106,8.3069,8.2846,8.2251,8.1917,8.171,8.0777,8.017,7.9818,7.9057,7.8701,7.8504,7.7781,7.7378,7.7378,7.8148,7.8516,7.8589,7.914,7.9543,7.9617,7.9727,8.0131,8.0901,8.0938,8.1342,8.1966,8.2039,8.215,8.2186,8.2186,8.2186,8.2186,8.2186,8.2186,8.2186,8.2186,8.2186,8.2186,8.2186,8.215,8.2113,8.2076,8.226,8.269,8.214,8.1736,8.1557,8.2385,8.2716,8.2304,8.2482,8.2684,8.2684,8.1996,8.1691,8.1537,8.0965,8.0621,8.0507,8.0144,7.9984,8.0351,8.0195,8.0081,8.004,8.0238,8.0199,8.0277,7.9958,8.0121,7.9583,7.9037,7.8588,7.809,7.7592,7.7629,7.7883,7.7592,7.7341,7.7341,7.7341,7.7341,7.7341,7.7341,7.7341,7.7341,7.7341,7.7341,7.7341,7.7341,7.7341,7.7341,7.7341,7.7341,7.7341,7.7341,7.7341,7.7341,7.7341,7.7341,7.7341,7.7341,7.7341,7.7341,7.7341,7.7341,8.3663,8.318,8.318,8.318,8.318,8.318,8.318,8.318,8.318,8.318,8.3143,8.2883,8.2771,8.2734,8.2378,8.1556,8.0318,7.9963,7.9731,7.9633,7.9338,7.9191,7.9228,7.9462,7.951,7.9522,7.9717,8.0057,8.0534,8.0571,8.0975,8.1636,8.1782,8.1929,8.215,8.2186,8.2186,8.2186,8.2186,8.2186,8.2186,8.2186,8.2186,8.2186,8.2186,8.2186,8.2186,8.2186,8.2186,8.2186,8.2186,8.2434,8.2935,8.3135,8.3269,8.3386,8.3039,8.2642,8.247,8.2468,8.2298,8.1952,8.2033,8.1924,8.1498,8.1225,8.1036,8.0952,8.0858,8.0849,8.0717,8.0091,7.9218,7.8639,7.8779,7.9112,7.8928,7.8639,7.8484,7.8574,7.82,7.7903,7.8016,7.7592,7.751,7.7903,7.7592,7.7365,7.7341,7.7341,7.7341,7.7341,7.7341,7.7341,7.7341,7.7341,7.7341,7.7341,7.7341,7.7341,7.7341,7.7341,7.7341,7.7341,7.7341,7.7341,7.7341,7.7341,7.7341,7.7341,7.7341,7.7341,7.7341,7.7341,7.7341,8.4295,8.3626,8.3589,8.344,8.318,8.318,8.318,8.318,8.318,8.318,8.318,8.318,8.318,8.318,8.318,8.2564,8.137,8.0955,8.0725,8.0627,8.0406,8.0258,8.0332,8.0333,8.0382,8.0456,8.0525,8.0956,8.1586,8.1623,8.2043,8.2732,8.2708,8.2769,8.2708,8.2745,8.2806,8.2708,8.256,8.2434,8.2471,8.2316,8.2186,8.2186,8.2186,8.2186,8.2186,8.2186,8.2186,8.2186,8.2186,8.2434,8.3032,8.3779,8.4242,8.4314,8.3909,8.3424,8.3337,8.3263,8.3133,8.2699,8.274,8.2671,8.2321,8.201,8.1859,8.1859,8.1859,8.1812,8.1441,8.0792,7.9778,7.8908,7.8926,7.8996,7.881,7.848,7.8276,7.8165,7.7903,7.7826,7.796,7.7629,7.7592,7.7979,7.7592,7.7304,7.7341,7.7341,7.7341,7.7341,7.7341,7.7341,7.7341,7.7341,7.7378,7.7378,7.7341,7.7341,7.7341,7.7341,7.7341,7.7341,7.7341,7.7341,7.7341,7.7341,7.7341,7.7341,7.7341,7.7341,7.7341,7.7341,7.7341,8.5112,8.4443,8.4406,8.3923,8.3329,8.3217,8.318,8.318,8.318,8.318,8.318,8.318,8.318,8.318,8.318,8.3106,8.2787,8.2075,8.1659,8.1464,8.0836,8.054,8.0614,8.1059,8.1229,8.1266,8.181,8.2423,8.2802,8.2861,8.3132,8.3726,8.3726,8.3672,8.3832,8.3726,8.3779,8.3672,8.3227,8.2994,8.2972,8.2497,8.2251,8.2186,8.2186,8.2186,8.2186,8.2186,8.2186,8.2186,8.2186,8.2434,8.3053,8.3951,8.4438,8.4193,8.481,8.5067,8.4681,8.491,8.5006,8.4805,8.4551,8.4091,8.3773,8.332,8.2901,8.2775,8.2859,8.2745,8.2399,8.2418,8.214,8.1445,8.0967,8.0718,8.0267,8.008,7.9613,7.8517,7.8219,7.8146,7.8034,7.7924,7.7915,7.81,7.7924,7.7671,7.7745,7.7745,7.7488,7.7488,7.7745,7.7965,7.7671,7.7378,7.7451,7.7451,7.7378,7.7341,7.7341,7.7341,7.7341,7.7341,7.7341,7.7341,7.7341,7.7341,7.7341,7.7341,7.7341,7.7341,7.7341,7.7341,7.7341,8.5966,8.5186,8.4629,8.4257,8.396,8.344,8.318,8.318,8.318,8.318,8.318,8.318,8.318,8.318,8.318,8.318,8.3143,8.2824,8.269,8.2616,8.2394,8.2245,8.226,8.2325,8.2253,8.2076,8.2104,8.2497,8.2913,8.3032,8.3284,8.3779,8.3937,8.3885,8.3937,8.3885,8.3885,8.3885,8.3726,8.3452,8.3053,8.2853,8.2622,8.2251,8.2186,8.2186,8.2186,8.2186,8.2186,8.2186,8.2186,8.2471,8.3032,8.3688,8.4041,8.3937,8.4193,8.4341,8.4292,8.4665,8.4848,8.4542,8.4492,8.4378,8.406,8.3795,8.3424,8.3175,8.3351,8.3401,8.2939,8.2848,8.2571,8.1482,8.1716,8.1812,8.1366,8.1106,8.0501,7.9542,7.9265,7.9265,7.9265,7.9019,7.897,7.9154,7.9007,7.8919,7.8956,7.8846,7.9029,7.9029,7.8993,7.8772,7.8626,7.8516,7.8552,7.8332,7.8038,7.7855,7.7745,7.7708,7.7635,7.7598,7.7561,7.7488,7.7451,7.7414,7.7488,7.7341,7.7341,7.7341,7.7341,7.7341,7.7341,8.6784,8.6004,8.5483,8.4889,8.4369,8.3849,8.344,8.3217,8.318,8.318,8.318,8.318,8.318,8.318,8.318,8.318,8.318,8.318,8.318,8.318,8.318,8.318,8.318,8.2964,8.2721,8.2471,8.2279,8.2684,8.3284,8.334,8.3726,8.439,8.4486,8.4486,8.4486,8.4486,8.4438,8.4242,8.4193,8.3832,8.3169,8.3032,8.2732,8.2279,8.2186,8.2186,8.2186,8.2186,8.2316,8.2497,8.2684,8.2913,8.3053,8.3563,8.3989,8.4193,8.4242,8.4292,8.4486,8.4892,8.4892,8.4627,8.4803,8.4892,8.4533,8.439,8.3989,8.3795,8.3757,8.3779,8.3415,8.3303,8.2984,8.2458,8.2227,8.2106,8.1777,8.119,8.058,7.9903,7.9753,7.98,7.98,7.98,7.98,7.98,7.98,7.98,7.98,7.9727,7.98,7.9837,7.9617,7.9543,7.969,7.969,7.969,7.9323,7.8919,7.8772,7.8626,7.8662,7.8626,7.8662,7.8626,7.8332,7.8259,7.8002,7.7928,7.7671,7.7488,7.7341,7.7341,7.7341,7.7341,8.7601,8.6895,8.6821,8.5855,8.4592,8.4369,8.3886,8.3254,8.318,8.318,8.318,8.318,8.318,8.318,8.318,8.318,8.318,8.318,8.318,8.318,8.318,8.318,8.318,8.2964,8.2721,8.2471,8.2407,8.289,8.3618,8.3672,8.439,8.5062,8.5148,8.5393,8.519,8.5393,8.5062,8.4665,8.458,8.4003,8.3053,8.3032,8.2732,8.2251,8.2186,8.2186,8.2186,8.2279,8.2497,8.2913,8.334,8.3396,8.3227,8.3563,8.4092,8.4486,8.4618,8.4803,8.519,8.519,8.5232,8.5105,8.527,8.5471,8.519,8.4803,8.4486,8.439,8.4092,8.3832,8.3779,8.3726,8.3651,8.358,8.2908,8.2214,8.1276,8.064,8.0456,8.022,7.9947,7.9984,8.0167,8.0131,8.0131,8.0131,8.0167,8.0241,8.0241,8.0314,8.0057,8.0131,8.0388,8.0461,8.0681,8.0681,8.0681,8.0571,8.0094,7.9764,7.9433,7.936,7.936,7.9433,7.9543,7.925,7.8993,7.8736,7.8479,7.8259,7.7928,7.7524,7.7451,7.7598,7.7451,8.7973,8.7675,8.7044,8.6189,8.5223,8.4666,8.396,8.3217,8.318,8.318,8.318,8.318,8.318,8.318,8.318,8.318,8.318,8.318,8.318,8.318,8.318,8.318,8.318,8.2964,8.2782,8.2633,8.2471,8.2708,8.3169,8.3284,8.3634,8.4292,8.4757,8.4892,8.4892,8.4892,8.4848,8.4627,8.4292,8.3742,8.3111,8.2994,8.2769,8.2215,8.2186,8.2186,8.2251,8.2622,8.2585,8.2471,8.2913,8.3169,8.3053,8.3563,8.3989,8.4142,8.4193,8.4193,8.439,8.4757,8.4757,8.4438,8.5018,8.5311,8.4937,8.4803,8.4486,8.4242,8.3937,8.3672,8.334,8.3227,8.309,8.2769,8.301,8.2979,8.246,8.2311,8.2018,8.1654,8.1489,8.1415,8.1415,8.1415,8.1415,8.1415,8.1415,8.1415,8.1232,8.1269,8.1158,8.1452,8.1636,8.1636,8.1636,8.1636,8.1672,8.1709,8.1379,8.0865,8.0351,7.9837,7.9764,7.9727,8.0057,7.9947,7.9727,7.947,7.9176,7.8883,7.8883,7.8699,7.8369,7.8295,7.7892,8.8084,8.8047,8.7564,8.6858,8.6041,8.5223,8.4443,8.3737,8.3329,8.318,8.318,8.318,8.318,8.318,8.318,8.318,8.318,8.318,8.318,8.318,8.318,8.318,8.318,8.3024,8.2941,8.2696,8.2571,8.2745,8.2972,8.3032,8.334,8.3885,8.4193,8.4341,8.4341,8.4341,8.4205,8.4003,8.3885,8.3508,8.2732,8.2913,8.2708,8.2279,8.2186,8.2186,8.2251,8.2497,8.2497,8.2407,8.2708,8.3032,8.3032,8.3284,8.3726,8.4142,8.4242,8.4242,8.4292,8.4533,8.4438,8.4092,8.4533,8.4757,8.458,8.4341,8.3795,8.3937,8.3508,8.3032,8.2769,8.2647,8.2497,8.2407,8.2769,8.3032,8.2708,8.2548,8.2497,8.2279,8.2186,8.2186,8.2186,8.2186,8.2186,8.215,8.2039,8.2039,8.2039,8.2186,8.2186,8.2186,8.2186,8.2003,8.1929,8.1929,8.1929,8.2039,8.2003,8.1599,8.1232,8.0571,8.0681,8.0718,8.0755,8.0681,8.0461,8.0204,7.9947,7.98,7.991,7.969,7.9286,7.8772,7.8369,8.8084,8.8084,8.8084,8.7601,8.6709,8.5929,8.5038,8.4295,8.3514,8.318,8.318,8.318,8.318,8.318,8.318,8.318,8.318,8.318,8.318,8.318,8.318,8.318,8.318,8.318,8.3001,8.2758,8.2696,8.2782,8.283,8.2853,8.3111,8.3508,8.3672,8.3832,8.3832,8.3832,8.3508,8.3284,8.3396,8.3148,8.2497,8.2585,8.2622,8.2279,8.2186,8.2186,8.2186,8.2251,8.2186,8.2186,8.2708,8.2972,8.2994,8.2994,8.3525,8.4254,8.4438,8.4486,8.458,8.4533,8.4486,8.4092,8.4092,8.4142,8.439,8.3885,8.3508,8.3672,8.283,8.2407,8.2279,8.2251,8.2251,8.2186,8.2251,8.2251,8.2186,8.2186,8.2186,8.2186,8.2186,8.2186,8.2186,8.2186,8.2186,8.2186,8.2186,8.2186,8.2186,8.2186,8.2186,8.2186,8.2186,8.2186,8.215,8.215,8.215,8.215,8.215,8.1966,8.1966,8.1672,8.1893,8.1929,8.1562,8.1342,8.1195,8.0975,8.0718,8.0681,8.0718,8.0351,7.991,7.9323,7.8846,8.8084,8.8084,8.8084,8.7601,8.6747,8.5929,8.5149,8.4332,8.3552,8.318,8.318,8.318,8.318,8.318,8.318,8.318,8.318,8.318,8.318,8.318,8.318,8.318,8.318,8.318,8.3061,8.2843,8.2758,8.2659,8.256,8.2497,8.2471,8.2622,8.309,8.3169,8.3227,8.3227,8.3169,8.2972,8.2769,8.256,8.2343,8.2279,8.2343,8.2186,8.2186,8.2186,8.2186,8.2186,8.2186,8.2343,8.2647,8.2972,8.3053,8.3396,8.3779,8.4092,8.4142,8.4142,8.4142,8.4438,8.4486,8.4041,8.4438,8.4848,8.4092,8.3885,8.3508,8.3227,8.2622,8.2279,8.2186,8.2186,8.2186,8.2186,8.2186,8.2186,8.2186,8.2186,8.2186,8.2186,8.2186,8.2186,8.2186,8.2186,8.2186,8.2186,8.2186,8.2186,8.2186,8.2186,8.2186,8.2186,8.2186,8.2186,8.2186,8.2186,8.2186,8.2186,8.2186,8.2186,8.2186,8.2186,8.2186,8.2186,8.2113,8.1929,8.1672,8.1782,8.1562,8.1562,8.1489,8.1158,8.0718,8.0021,7.9323,8.8084,8.8084,8.8084,8.7601,8.6747,8.5929,8.5149,8.4332,8.3552,8.318,8.318,8.318,8.318,8.318,8.318,8.318,8.318,8.318,8.318,8.318,8.318,8.318,8.318,8.318,8.3084,8.2904,8.2843,8.2659,8.2571,8.2508,8.2508,8.2444,8.2745,8.2867,8.2867,8.2769,8.2708,8.2647,8.2407,8.2186,8.2186,8.2186,8.2186,8.2186,8.2186,8.2186,8.2186,8.2186,8.2186,8.2215,8.2497,8.2732,8.2935,8.334,8.3688,8.4193,8.4292,8.4292,8.439,8.4486,8.4486,8.3989,8.4486,8.4486,8.4242,8.4092,8.3937,8.3672,8.3111,8.2497,8.2251,8.2186,8.2186,8.2186,8.2186,8.2186,8.2186,8.2186,8.2186,8.2186,8.2186,8.2186,8.2186,8.2186,8.2186,8.2186,8.2186,8.2186,8.2186,8.2186,8.2186,8.2186,8.2186,8.2186,8.2186,8.2186,8.2186,8.2186,8.2186,8.2186,8.2186,8.2186,8.2186,8.226,8.2333,8.2186,8.2039,8.2186,8.2296,8.2076,8.1929,8.1856,8.1415,8.0534,7.9874,8.8084,8.8084,8.8084,8.7601,8.6747,8.5929,8.5112,8.4332,8.3552,8.318,8.318,8.318,8.318,8.318,8.318,8.318,8.318,8.318,8.318,8.318,8.318,8.318,8.318,8.318,8.3121,8.2964,8.2904,8.2843,8.2758,8.2696,8.2633,8.2696,8.2696,8.2758,8.2696,8.2571,8.2471,8.2471,8.2343,8.2251,8.2186,8.2186,8.2186,8.2186,8.2186,8.2186,8.2186,8.2186,8.2186,8.2186,8.2186,8.2434,8.2732,8.3053,8.3415,8.4486,8.4533,8.4711,8.4803,8.4848,8.4711,8.4142,8.4193,8.4341,8.4486,8.4341,8.4242,8.4054,8.3634,8.2913,8.2407,8.2407,8.2343,8.2251,8.2186,8.2186,8.2186,8.2186,8.2186,8.2186,8.2186,8.2186,8.2186,8.2186,8.2186,8.2186,8.2186,8.2186,8.2186,8.2186,8.2186,8.2186,8.2186,8.2186,8.2186,8.2186,8.2186,8.2186,8.2186,8.2223,8.226,8.2517,8.259,8.2517,8.2517,8.2517,8.27,8.303,8.2994,8.259,8.259,8.2847,8.2113,8.1012,8.0351,8.8084,8.8084,8.8084,8.7601,8.6747,8.5929,8.5075,8.4332,8.3514,8.318,8.318,8.318,8.318,8.318,8.318,8.318,8.318,8.318,8.318,8.318,8.318,8.318,8.318,8.318,8.318,8.3084,8.3024,8.2904,8.2843,8.2758,8.2758,8.2696,8.2696,8.2696,8.2696,8.2633,8.2534,8.2471,8.2343,8.2279,8.2186,8.2186,8.2186,8.2186,8.2186,8.2186,8.2186,8.2186,8.2186,8.2186,8.2186,8.2251,8.2471,8.2769,8.3284,8.39,8.4438,8.4757,8.5105,8.5311,8.5311,8.527,8.5148,8.4892,8.4803,8.4627,8.4486,8.4142,8.3989,8.3508,8.2972,8.2793,8.2585,8.2407,8.2186,8.2186,8.2186,8.2186,8.2186,8.2186,8.2186,8.2186,8.2186,8.2186,8.2186,8.2186,8.2186,8.2186,8.2186,8.2186,8.2186,8.2186,8.2186,8.2186,8.2186,8.2186,8.2186,8.2186,8.2223,8.2296,8.248,8.2957,8.3104,8.3361,8.3398,8.3434,8.3654,8.3875,8.3875,8.3654,8.3765,8.3911,8.2847,8.1709,8.0608,8.8084,8.8047,8.7638,8.6932,8.6115,8.5298,8.4518,8.3775,8.3366,8.318,8.318,8.318,8.318,8.318,8.318,8.318,8.318,8.318,8.318,8.318,8.318,8.318,8.318,8.318,8.318,8.318,8.3084,8.3024,8.3024,8.3001,8.2941,8.2941,8.2941,8.2941,8.2941,8.2843,8.2721,8.2534,8.2471,8.2343,8.2186,8.2186,8.2186,8.2186,8.2186,8.2186,8.2186,8.2186,8.2186,8.2186,8.2186,8.2186,8.2316,8.2434,8.2853,8.3396,8.3951,8.4533,8.5067,8.5314,8.5511,8.5551,8.5551,8.5431,8.5228,8.5105,8.4848,8.4486,8.4292,8.4092,8.3563,8.3227,8.2913,8.2647,8.2407,8.2251,8.2186,8.2186,8.2186,8.2186,8.2186,8.2186,8.2186,8.2186,8.2186,8.2186,8.2186,8.2186,8.2186,8.2186,8.2186,8.2186,8.2186,8.2186,8.2186,8.2186,8.2186,8.2186,8.226,8.2333,8.2737,8.3251,8.4022,8.4646,8.4609,8.4425,8.4278,8.4352,8.4535,8.4646,8.4499,8.4168,8.3398,8.2443,8.1269,8.801,8.7787,8.7081,8.6226,8.5335,8.4666,8.396,8.3292,8.3217,8.318,8.318,8.318,8.318,8.318,8.318,8.318,8.318,8.318,8.318,8.318,8.318,8.318,8.318,8.318,8.318,8.318,8.318,8.318,8.318,8.318,8.318,8.3121,8.318,8.318,8.3121,8.3061,8.288,8.2721,8.2571,8.238,8.2251,8.2186,8.2186,8.2186,8.2186,8.2251,8.2407,8.2251,8.2279,8.2343,8.2316,8.2186,8.2186,8.2186,8.2407,8.2853,8.3508,8.4155,8.4681,8.5314,8.559,8.559,8.559,8.5551,8.5471,8.5393,8.5311,8.498,8.4848,8.4627,8.4155,8.3688,8.3415,8.3111,8.2732,8.237,8.237,8.2343,8.2186,8.2186,8.2186,8.2186,8.2186,8.2186,8.2186,8.2186,8.2186,8.2186,8.2186,8.2186,8.2186,8.2186,8.2186,8.2186,8.2186,8.2186,8.2186,8.2186,8.2296,8.2406,8.2957,8.3581,8.4425,8.5233,8.5637,8.5416,8.5159,8.4976,8.527,8.5306,8.5013,8.4389,8.3544,8.27,8.1636,8.7638,8.6932,8.6821,8.5929,8.4629,8.4406,8.3923,8.3254,8.318,8.318,8.318,8.318,8.318,8.318,8.318,8.318,8.318,8.318,8.318,8.318,8.318,8.318,8.318,8.318,8.318,8.318,8.318,8.318,8.318,8.318,8.318,8.318,8.318,8.318,8.318,8.3121,8.3061,8.2904,8.2721,8.2571,8.2316,8.2279,8.2279,8.2279,8.2343,8.2434,8.2769,8.256,8.2497,8.2732,8.2434,8.2251,8.2186,8.2186,8.2186,8.256,8.3227,8.4142,8.4673,8.5273,8.5628,8.5628,8.5628,8.559,8.5551,8.5551,8.5551,8.5628,8.5433,8.519,8.481,8.4597,8.4314,8.3862,8.3303,8.3016,8.2935,8.2343,8.2251,8.2251,8.2251,8.2251,8.2251,8.2186,8.2186,8.2186,8.2186,8.2186,8.2186,8.2186,8.2186,8.2186,8.2186,8.2186,8.2186,8.2186,8.2186,8.2186,8.2296,8.2517,8.3361,8.4058,8.4682,8.5416,8.5894,8.6077,8.5673,8.5637,8.604,8.5747,8.5123,8.4425,8.3654,8.2774,8.2039,8.7155,8.6709,8.5818,8.5038,8.4369,8.3923,8.3514,8.3254,8.318,8.318,8.318,8.318,8.318,8.318,8.318,8.318,8.318,8.318,8.318,8.318,8.318,8.318,8.318,8.318,8.318,8.318,8.318,8.318,8.318,8.318,8.318,8.318,8.318,8.318,8.318,8.318,8.3061,8.2964,8.2927,8.2927,8.2927,8.301,8.3148,8.3148,8.3148,8.309,8.3032,8.3264,8.3032,8.3169,8.2972,8.3206,8.309,8.2913,8.2769,8.3264,8.3563,8.4054,8.4448,8.5232,8.559,8.5704,8.5704,8.5704,8.5628,8.5667,8.5667,8.5705,8.5667,8.5513,8.5276,8.4991,8.4778,8.441,8.3862,8.3433,8.3132,8.256,8.2186,8.2251,8.2316,8.2316,8.2316,8.2251,8.2251,8.2186,8.2186,8.2186,8.2186,8.2186,8.2186,8.2186,8.2186,8.2186,8.2186,8.2186,8.2186,8.2186,8.2186,8.2663,8.3765,8.4572,8.4903,8.5343,8.5747,8.5894,8.5894,8.582,8.571,8.5453,8.5123,8.4278,8.3508,8.3361,8.237,8.6189,8.6078,8.4889,8.4295,8.4072,8.344,8.318,8.318,8.318,8.318,8.318,8.318,8.318,8.318,8.318,8.318,8.318,8.318,8.318,8.318,8.318,8.318,8.318,8.318,8.318,8.318,8.318,8.318,8.318,8.318,8.318,8.318,8.318,8.318,8.318,8.318,8.318,8.3223,8.3301,8.3378,8.3452,8.3688,8.3832,8.3885,8.3885,8.3742,8.3525,8.3618,8.3563,8.3688,8.3672,8.3726,8.3672,8.3452,8.3396,8.3726,8.4041,8.4254,8.4681,8.5235,8.5628,8.5742,8.5779,8.5742,8.5742,8.5779,8.5815,8.5779,8.5704,8.5779,8.5704,8.5357,8.5317,8.4904,8.4276,8.3862,8.3359,8.2769,8.2444,8.2444,8.2508,8.2508,8.2444,8.2316,8.2251,8.2186,8.2186,8.2186,8.2186,8.2186,8.2186,8.2186,8.2186,8.2186,8.2186,8.2186,8.2186,8.215,8.215,8.2627,8.3654,8.4205,8.4462,8.4939,8.5453,8.5159,8.4792,8.5049,8.527,8.4719,8.4242,8.3838,8.3398,8.3287,8.2663,8.4555,8.4555,8.4443,8.396,8.3329,8.3217,8.318,8.318,8.318,8.318,8.318,8.318,8.318,8.318,8.318,8.318,8.318,8.318,8.318,8.318,8.318,8.318,8.318,8.318,8.318,8.318,8.318,8.318,8.318,8.318,8.318,8.318,8.318,8.318,8.318,8.318,8.3338,8.3471,8.3655,8.3832,8.3951,8.4067,8.4105,8.4041,8.3989,8.4092,8.4486,8.4193,8.4092,8.4303,8.4242,8.4142,8.4142,8.3937,8.3989,8.4193,8.4341,8.4627,8.5029,8.5357,8.559,8.5628,8.5667,8.5779,8.5815,8.5815,8.5852,8.5887,8.5852,8.5852,8.5961,8.5923,8.5741,8.5436,8.4823,8.4265,8.3742,8.301,8.2659,8.2696,8.2696,8.2696,8.2597,8.2534,8.238,8.2316,8.2186,8.2186,8.2186,8.2186,8.2186,8.2186,8.2186,8.2186,8.2186,8.2186,8.2186,8.2076,8.1966,8.2553,8.3361,8.3691,8.3765,8.4278,8.4646,8.4168,8.3801,8.4022,8.4058,8.3691,8.3361,8.3104,8.2884,8.27,8.215,8.4109,8.3663,8.3663,8.3477,8.318,8.318,8.318,8.318,8.318,8.318,8.318,8.318,8.318,8.318,8.318,8.318,8.318,8.318,8.318,8.318,8.318,8.318,8.318,8.318,8.318,8.318,8.318,8.318,8.318,8.318,8.318,8.318,8.318,8.318,8.318,8.3239,8.3452,8.3763,8.4078,8.428,8.4673,8.4854,8.4937,8.4892,8.4486,8.4486,8.4627,8.4486,8.4533,8.4665,8.4757,8.4803,8.4673,8.4533,8.4533,8.4711,8.4803,8.498,8.5355,8.5666,8.5815,8.5887,8.5887,8.589,8.5926,8.5958,8.5958,8.5958,8.5923,8.5996,8.6026,8.6031,8.5923,8.5777,8.5319,8.4689,8.4117,8.3434,8.2987,8.2987,8.2904,8.2843,8.2782,8.2782,8.2534,8.2343,8.2316,8.2186,8.2186,8.2186,8.2186,8.2186,8.2186,8.2186,8.2186,8.2186,8.2186,8.1966,8.1782,8.2186,8.2663,8.2737,8.2884,8.3434,8.3765,8.3434,8.3177,8.3067,8.2957,8.2884,8.2737,8.2553,8.2333,8.2186,8.1782,8.37,8.3217,8.318,8.318,8.318,8.318,8.318,8.318,8.318,8.318,8.318,8.318,8.318,8.318,8.318,8.318,8.318,8.318,8.318,8.318,8.318,8.318,8.318,8.318,8.318,8.318,8.318,8.318,8.318,8.318,8.318,8.318,8.318,8.318,8.3239,8.3376,8.3638,8.4078,8.4476,8.4886,8.5273,8.5433,8.5433,8.5393,8.5105,8.4848,8.4848,8.4803,8.4803,8.4937,8.5105,8.5431,8.5352,8.527,8.519,8.5232,8.5232,8.519,8.5552,8.5779,8.5887,8.5992,8.6031,8.6031,8.6065,8.606,8.6026,8.6065,8.6031,8.6065,8.6094,8.6026,8.6065,8.5884,8.5436,8.4861,8.4505,8.3951,8.3563,8.3301,8.3165,8.2964,8.2964,8.2904,8.2659,8.2471,8.2343,8.2251,8.2186,8.2186,8.2186,8.2186,8.2186,8.2186,8.2186,8.215,8.2039,8.1562,8.1415,8.1379,8.1636,8.1709,8.1856,8.226,8.2517,8.259,8.2627,8.2627,8.2443,8.226,8.2223,8.2296,8.226,8.215,8.2003,8.3217,8.318,8.318,8.318,8.318,8.318,8.318,8.318,8.318,8.318,8.318,8.318,8.318,8.318,8.318,8.318,8.318,8.318,8.318,8.318,8.318,8.318,8.318,8.318,8.318,8.318,8.318,8.318,8.318,8.318,8.318,8.3239,8.3297,8.3239,8.3239,8.3692,8.4142,8.4627,8.4942,8.5317,8.559,8.5667,8.559,8.5511,8.5311,8.5018,8.498,8.5024,8.498,8.498,8.527,8.5471,8.5471,8.5471,8.5471,8.5471,8.5471,8.559,8.5741,8.5777,8.5923,8.606,8.6065,8.6065,8.606,8.6094,8.6094,8.606,8.606,8.606,8.6094,8.6094,8.6094,8.5919,8.5475,8.5155,8.4816,8.4254,8.3779,8.349,8.3281,8.318,8.3084,8.3024,8.2782,8.2597,8.2471,8.2343,8.2251,8.2186,8.2186,8.2186,8.2186,8.1966,8.1929,8.2039,8.1856,8.1342,8.0865,8.0681,8.0571,8.0608,8.0828,8.1158,8.1636,8.2039,8.215,8.2223,8.2186,8.2186,8.2186,8.2223,8.2186,8.215,8.2039,8.318,8.318,8.318,8.318,8.318,8.318,8.318,8.318,8.318,8.318,8.318,8.318,8.318,8.318,8.318,8.318,8.318,8.318,8.318,8.318,8.318,8.318,8.318,8.318,8.318,8.318,8.318,8.318,8.318,8.318,8.318,8.3239,8.3452,8.3489,8.3508,8.387,8.4533,8.4719,8.5029,8.5357,8.5741,8.5704,8.5667,8.5511,8.5228,8.5062,8.5105,8.5148,8.498,8.5105,8.5393,8.5511,8.5511,8.5511,8.5511,8.5511,8.5511,8.559,8.5779,8.5923,8.6026,8.606,8.6099,8.6099,8.6094,8.6094,8.6094,8.6094,8.6094,8.6094,8.6094,8.6094,8.606,8.6026,8.5702,8.5436,8.5033,8.4303,8.3817,8.3655,8.3508,8.3297,8.318,8.3121,8.2904,8.2721,8.2597,8.2471,8.2343,8.2251,8.2186,8.2186,8.2113,8.1819,8.1636,8.1525,8.1085,8.0424,7.991,7.958,7.9543,7.9617,8.0094,8.0571,8.1085,8.1562,8.1893,8.2186,8.2186,8.2186,8.2186,8.2186,8.2186,8.2186,8.215,8.318,8.318,8.318,8.318,8.318,8.318,8.318,8.318,8.318,8.318,8.318,8.318,8.318,8.318,8.318,8.318,8.318,8.318,8.318,8.318,8.318,8.318,8.318,8.318,8.318,8.318,8.318,8.318,8.318,8.318,8.318,8.3318,8.3854,8.3817,8.3922,8.4341,8.4942,8.5071,8.5357,8.559,8.5741,8.5704,8.5667,8.5393,8.5105,8.4848,8.5018,8.498,8.4848,8.519,8.5393,8.5511,8.5511,8.5551,8.5551,8.5551,8.5667,8.5704,8.5815,8.5992,8.606,8.6094,8.6094,8.6094,8.6094,8.6094,8.6094,8.6094,8.6094,8.6094,8.6094,8.6094,8.606,8.5988,8.5919,8.5665,8.5475,8.4772,8.4292,8.4142,8.3747,8.3508,8.3239,8.318,8.3121,8.2904,8.2782,8.256,8.237,8.2343,8.2178,8.2039,8.1856,8.1452,8.1085,8.0791,8.0241,7.9507,7.9103,7.8772,7.8662,7.8772,7.936,8.0021,8.0645,8.1269,8.1893,8.2186,8.2113,8.215,8.2186,8.2186,8.2186,8.2186,8.2186,8.318,8.318,8.318,8.318,8.318,8.318,8.318,8.318,8.318,8.318,8.318,8.318,8.318,8.318,8.318,8.318,8.318,8.318,8.318,8.318,8.318,8.318,8.318,8.318,8.318,8.318,8.318,8.318,8.318,8.318,8.318,8.3452,8.418,8.4242,8.4438,8.4899,8.5317,8.5397,8.5628,8.5813,8.5852,8.5742,8.5667,8.5433,8.5148,8.4937,8.4937,8.4892,8.4848,8.5018,8.5232,8.5393,8.5551,8.5628,8.5705,8.5704,8.5815,8.5852,8.5852,8.5992,8.606,8.6094,8.6094,8.6094,8.6094,8.6094,8.6094,8.6094,8.6094,8.6094,8.6094,8.6094,8.6094,8.606,8.606,8.5954,8.5919,8.5514,8.5071,8.4673,8.4092,8.3747,8.3318,8.318,8.318,8.3121,8.2867,8.256,8.2375,8.237,8.2132,8.1847,8.1553,8.1048,8.0608,8.0021,7.9433,7.8662,7.8516,7.8259,7.8112,7.8075,7.8626,7.9323,8.0241,8.0865,8.1195,8.1636,8.2003,8.2003,8.1966,8.2186,8.2186,8.2186,8.2113,8.318,8.318,8.318,8.318,8.318,8.318,8.318,8.318,8.318,8.318,8.318,8.318,8.318,8.318,8.318,8.318,8.318,8.318,8.318,8.318,8.318,8.318,8.318,8.318,8.318,8.318,8.318,8.318,8.318,8.318,8.3433,8.3763,8.428,8.458,8.5029,8.559,8.559,8.5628,8.5884,8.5923,8.5887,8.5815,8.5704,8.5551,8.5311,8.5148,8.519,8.5148,8.5148,8.5311,8.5393,8.5511,8.5511,8.5551,8.5551,8.559,8.5704,8.5852,8.5852,8.5923,8.6065,8.6094,8.6094,8.6094,8.6094,8.6094,8.6094,8.6094,8.6094,8.6094,8.6094,8.6094,8.6094,8.6094,8.6094,8.606,8.6026,8.5813,8.5397,8.5029,8.4486,8.3817,8.3433,8.318,8.318,8.318,8.301,8.2594,8.2301,8.2264,8.1955,8.1534,8.0966,8.0414,7.9653,7.9029,7.8479,7.7928,7.7892,7.7818,7.7708,7.7745,7.8038,7.8662,7.958,8.0021,8.0241,8.0755,8.1305,8.1599,8.1636,8.1929,8.215,8.2039,8.1856,8.318,8.318,8.318,8.318,8.318,8.318,8.318,8.318,8.318,8.318,8.318,8.318,8.318,8.318,8.318,8.318,8.318,8.318,8.318,8.318,8.318,8.318,8.318,8.318,8.318,8.318,8.318,8.318,8.318,8.3239,8.3376,8.3527,8.4129,8.4627,8.5071,8.5436,8.5702,8.5813,8.5919,8.5992,8.5923,8.5852,8.5742,8.559,8.5393,8.5352,8.5471,8.5393,8.5311,8.5433,8.5511,8.5511,8.5511,8.5551,8.559,8.5628,8.5704,8.5815,8.5777,8.5923,8.5992,8.606,8.6094,8.6094,8.6094,8.6094,8.6094,8.6094,8.6094,8.6094,8.6094,8.6094,8.6094,8.6094,8.6094,8.6094,8.5954,8.5849,8.559,8.5317,8.4719,8.3975,8.3564,8.3318,8.3143,8.3069,8.2809,8.2378,8.2112,8.2066,8.1514,8.0948,8.0345,7.9669,7.8908,7.8357,7.7928,7.7598,7.7561,7.7488,7.7341,7.7488,7.7818,7.8332,7.8956,7.9323,7.9617,8.0057,8.0534,8.0791,8.0901,8.0975,8.1195,8.1415,8.1232,8.318,8.318,8.318,8.318,8.318,8.318,8.318,8.318,8.318,8.318,8.318,8.318,8.318,8.318,8.318,8.318,8.318,8.318,8.318,8.318,8.318,8.318,8.318,8.318,8.318,8.318,8.318,8.318,8.318,8.3239,8.3239,8.326,8.3817,8.4438,8.4986,8.5436,8.5775,8.5954,8.6026,8.6026,8.5887,8.5815,8.5666,8.5473,8.519,8.5018,8.527,8.519,8.498,8.5311,8.5511,8.5511,8.5393,8.559,8.5628,8.5628,8.5628,8.5815,8.5852,8.5887,8.5992,8.606,8.6094,8.6094,8.6094,8.6094,8.6094,8.6094,8.6094,8.6094,8.6094,8.6094,8.6094,8.6094,8.6094,8.6094,8.606,8.5919,8.5739,8.5397,8.481,8.4092,8.3672,8.3396,8.2697,8.2771,8.24,8.188,8.1525,8.1407,8.0955,8.0221,7.9805,7.9204,7.8651,7.8075,7.7623,7.7341,7.7341,7.7341,7.7341,7.7451,7.7598,7.8002,7.8369,7.8736,7.9103,7.9433,7.9653,7.98,7.9874,7.9874,8.0094,8.0461,8.0388,8.318,8.318,8.318,8.318,8.318,8.318,8.318,8.318,8.318,8.318,8.318,8.318,8.318,8.318,8.318,8.318,8.318,8.318,8.318,8.318,8.318,8.318,8.318,8.318,8.318,8.318,8.318,8.318,8.318,8.3239,8.3433,8.3747,8.4092,8.4533,8.5114,8.559,8.5849,8.606,8.6094,8.6026,8.5923,8.5852,8.5742,8.5628,8.5393,8.5311,8.5471,8.5393,8.5352,8.5511,8.5511,8.5311,8.4937,8.5433,8.5433,8.5194,8.5513,8.5742,8.5852,8.5887,8.5923,8.6026,8.6094,8.6094,8.6094,8.6094,8.6094,8.6094,8.6094,8.6094,8.6094,8.6094,8.6094,8.6094,8.6094,8.6094,8.6094,8.5988,8.5884,8.5436,8.4854,8.4314,8.3824,8.3171,8.2536,8.1954,8.1397,8.0877,8.0394,8.0151,8.0094,7.9512,7.9394,7.8832,7.8256,7.7938,7.7597,7.7463,7.7402,7.7402,7.7341,7.7414,7.7488,7.7451,7.7671,7.8075,7.8369,7.8552,7.8772,7.8883,7.9066,7.9176,7.9213,7.947,7.9286,8.318,8.318,8.318,8.318,8.318,8.318,8.318,8.318,8.318,8.318,8.318,8.318,8.318,8.318,8.318,8.318,8.318,8.318,8.318,8.318,8.318,8.318,8.318,8.318,8.318,8.318,8.318,8.318,8.318,8.3239,8.3433,8.3817,8.418,8.4533,8.5197,8.5514,8.5813,8.606,8.6094,8.606,8.5996,8.5887,8.5779,8.5667,8.559,8.5511,8.5511,8.5511,8.5511,8.5511,8.5511,8.5393,8.5232,8.5433,8.5473,8.5393,8.5513,8.5704,8.5815,8.5887,8.5887,8.5992,8.6094,8.6094,8.6094,8.6094,8.6094,8.6094,8.6094,8.6094,8.6094,8.6094,8.6094,8.6094,8.6094,8.6094,8.6094,8.606,8.5992,8.5849,8.5121,8.4324,8.369,8.2798,8.2089,8.1248,8.0654,8.0171,7.9651,7.9205,7.9074,7.8944,7.8809,7.8602,7.8137,7.7931,7.768,7.7584,7.7524,7.7402,7.7341,7.7341,7.7341,7.7378,7.7378,7.7414,7.7708,7.7965,7.7928,7.8038,7.8259,7.8516,7.8516,7.8516,7.8369,8.318,8.318,8.318,8.318,8.318,8.318,8.318,8.318,8.318,8.318,8.318,8.318,8.318,8.318,8.318,8.318,8.318,8.318,8.318,8.318,8.318,8.318,8.318,8.318,8.318,8.318,8.318,8.318,8.318,8.3239,8.3376,8.3692,8.387,8.4078,8.4854,8.5197,8.5397,8.5919,8.6094,8.606,8.5958,8.5887,8.5779,8.5667,8.559,8.5511,8.5511,8.5511,8.5511,8.5511,8.5511,8.5352,8.5352,8.5352,8.5433,8.5433,8.5473,8.5667,8.5779,8.5777,8.5852,8.5923,8.6026,8.606,8.606,8.6094,8.6094,8.6094,8.6094,8.6094,8.6094,8.6094,8.6094,8.6094,8.6094,8.6055,8.6055,8.5978,8.5829,8.5829,8.5055,8.4133,8.3273,8.2398,8.1494,8.0656,8.0022,7.9614,7.9205,7.8908,7.8685,7.8555,7.8498,7.8256,7.8014,7.79,7.782,7.7703,7.7643,7.7524,7.7402,7.7341,7.7341,7.7341,7.7341,7.7341,7.7341,7.7524,7.7451,7.7451,7.7671,7.7965,7.7855,7.7818,7.7598,8.318,8.318,8.318,8.318,8.318,8.318,8.318,8.318,8.318,8.318,8.318,8.318,8.318,8.318,8.318,8.318,8.318,8.318,8.318,8.318,8.318,8.318,8.318,8.318,8.318,8.318,8.318,8.318,8.318,8.318,8.3297,8.3452,8.4242,8.4486,8.4765,8.5235,8.5739,8.606,8.6094,8.606,8.6026,8.5923,8.5779,8.5667,8.5551,8.5511,8.5511,8.5511,8.5511,8.5511,8.5511,8.5311,8.527,8.5311,8.5393,8.5355,8.5473,8.5667,8.5742,8.5779,8.5815,8.5852,8.5923,8.6031,8.6026,8.606,8.606,8.606,8.6094,8.6094,8.6094,8.6094,8.6094,8.6055,8.6017,8.5978,8.594,8.5478,8.5093,8.469,8.4096,8.3282,8.2498,8.1595,8.0539,7.9817,7.9168,7.8796,7.8759,7.8499,7.8276,7.8276,7.8221,7.8276,7.8221,7.8071,7.7957,7.7879,7.7762,7.7584,7.7402,7.7341,7.7341,7.7341,7.7341,7.7341,7.7341,7.7341,7.7341,7.7378,7.7341,7.7414,7.7341,7.7341,7.7341]},{"header":{"parameterUnit":"m.s-1","parameterCategory":1,"la1":31.0,"la2":29.5877,"lo1":-88.7671,"lo2":-86.6584,"dy":0.0162,"dx":0.0185,"nx":115,"ny":88,"refTime":"2023-04-18T06:00:00:Z","depth":0,"parameterNumber":3,"parameterNumberName":"V-component_of_WINDS"},"data":[0.0,0.0,0.0,0.0,0.0,0.0,0.0,0.0,0.0,0.0,0.0,0.0,0.0,0.0,0.0,0.0,0.0,0.0,0.0,0.0,0.0,0.0,0.0,0.0,0.0,0.0,0.0,0.0,0.0,0.0,0.0,0.0,0.0,0.0,0.0,0.0,0.0,0.0,0.0,0.0,0.0,0.0,0.0,0.0,0.0,0.0,0.0,0.0,0.0,0.0,0.0,0.0,0.0,0.0,0.0,0.0,0.0,0.0,0.0,0.0,0.0,0.0,0.0,0.0,0.0,0.0,0.0,0.0,0.0,0.0,0.0,0.0,0.0,0.0,0.0,0.0,0.0,0.0,0.0,0.0,0.0,0.0,0.0,0.0,0.0,0.0,0.0,0.0,0.0,0.0,0.0,0.0,0.0,0.0,0.0,0.0,0.0,0.0,0.0,0.0,0.0,0.0,0.0,0.0,0.0,0.0,0.0,0.0,0.0,0.0,0.0,0.0,0.0,0.0,0.0,0.0,0.0,0.0,0.0,0.0,0.0,0.0,0.0,0.0,0.0,0.0,0.0,0.0,0.0,0.0,0.0,0.0,0.0,0.0,0.0,0.0,0.0,0.0,0.0,0.0,0.0,0.0,0.0,0.0,0.0,0.0,0.0,0.0,0.0,0.0,0.0,0.0,0.0,0.0,0.0,0.0,0.0,0.0,0.0,0.0,0.0,0.0,0.0,0.0,0.0,0.0,0.0,0.0,0.0,0.0,0.0,0.0,0.0,0.0,0.0,0.0,0.0,0.0,0.0,0.0,0.0,0.0,0.0,0.0,0.0,0.0,0.0,0.0,0.0,0.0,0.0,0.0,0.0,0.0,0.0,0.0,0.0,0.0,0.0,0.0,0.0,0.0,0.0,0.0,0.0,0.0,0.0,0.0,0.0,0.0,0.0,0.0,0.0,0.0,0.0,0.0,0.0,0.0,0.0,0.0,0.0,0.0,0.0,0.0,0.0,0.0,0.0,0.0,0.0,0.0,0.0,0.0,0.0,0.0,0.0,0.0,0.0,0.0,0.0,0.0,0.0,0.0,0.0,0.0,0.0,0.0,0.0,0.0,0.0,0.0,0.0,0.0,0.0,0.0,0.0,0.0,0.0,0.0,0.0,0.0,0.0,0.0,0.0,0.0,0.0,0.0,0.0,0.0,0.0,0.0,0.0,0.0,0.0,0.0,0.0,0.0,0.0,0.0,0.0,0.0,0.0,0.0,0.0,0.0,0.0,0.0,0.0,0.0,0.0,0.0,0.0,0.0,0.0,0.0,0.0,0.0,0.0,0.0,0.0,0.0,0.0,0.0,0.0,0.0,0.0,0.0,0.0,0.0,0.0,0.0,0.0,0.0,0.0,0.0,0.0,0.0,0.0,0.0,0.0,0.0,0.0,0.0,0.0,0.0,0.0,0.0,0.0,0.0,0.0,0.0,0.0,0.0,0.0,0.0,0.0,0.0,0.0,0.0,0.0,0.0,0.0,0.0,0.0,0.0,0.0,0.0,0.0,0.0,0.0,0.0,0.0,0.0,0.0,0.0,0.0,0.0,0.0,0.0,0.0,0.0,0.0,0.0,0.0,0.0,0.0,0.0,0.0,0.0,0.0,0.0,0.0,0.0,0.0,0.0,0.0,0.0,0.0,0.0,0.0,0.0,0.0,0.0,0.0,0.0,0.0,0.0,0.0,0.0,0.0,0.0,0.0,0.0,0.0,0.0,0.0,0.0,0.0,0.0,0.0,0.0,0.0,0.0,0.0,0.0,0.0,0.0,0.0,0.0,0.0,0.0,0.0,0.0,0.0,0.0,0.0,0.0,0.0,0.0,0.0,0.0,0.0,0.0,0.0,0.0,0.0,0.0,0.0,0.0,0.0,0.0,0.0,0.0,0.0,0.0,0.0,0.0,0.0,0.0,0.0,0.0,0.0,0.0,0.0,0.0,0.0,0.0,0.0,0.0,0.0,0.0,0.0,0.0,0.0,0.0,0.0,0.0,0.0,0.0,0.0,0.0,0.0,0.0,0.0,0.0,0.0,0.0,0.0,0.0,0.0,0.0,0.0,0.0,0.0,0.0,0.0,0.0,0.0,0.0,0.0,0.0,0.0,0.0,0.0,0.0,0.0,0.0,0.0,0.0,0.0,0.0,0.0,0.0,0.0,0.0,0.0,0.0,0.0,0.0,0.0,0.0,0.0,0.0,0.0,0.0,0.0,0.0,0.0,0.0,0.0,0.0,0.0,0.0,0.0,0.0,0.0,0.0,0.0,0.0,0.0,0.0,0.0,0.0,0.0,0.0,0.0,0.0,0.0,0.0,0.0,0.0,0.0,0.0,0.0,0.0,0.0,0.0,0.0,0.0,0.0,0.0,0.0,0.0,0.0,0.0,0.0,0.0,0.0,0.0,0.0,0.0,0.0,0.0,0.0,0.0,0.0,0.0,0.0,0.0,0.0,0.0,0.0,0.0,0.0,0.0,0.0,0.0,0.0,0.0,0.0,0.0,0.0,0.0,0.0,0.0,0.0,0.0,0.0,0.0,0.0,0.0,0.0,0.0,0.0,0.0,0.0,0.0,0.0,0.0,0.0,0.0,0.0,0.0,0.0,0.0,0.0,0.0,0.0,0.0,0.0,0.0,0.0,0.0,0.0,0.0,0.0,0.0,0.0,0.0,0.0,0.0,0.0,0.0,0.0,0.0,0.0,0.0,0.0,0.0,0.0,0.0,0.0,0.0,0.0,0.0,0.0,0.0,0.0,0.0,0.0,0.0,0.0,0.0,0.0,0.0,0.0,0.0,0.0,0.0,0.0,0.0,0.0,0.0,0.0,0.0,0.0,0.0,0.0,0.0,0.0,0.0,0.0,0.0,0.0,0.0,0.0,0.0,0.0,0.0,0.0,0.0,0.0,0.0,0.0,0.0,0.0,0.0,0.0,0.0,0.0,0.0,0.0,0.0,0.0,0.0,0.0,0.0,0.0,0.0,0.0,0.0,0.0,0.0,0.0,0.0,0.0,0.0,0.0,0.0,0.0,0.0,0.0,0.0,0.0,0.0,0.0,0.0,0.0,0.0,0.0,0.0,0.0,0.0,0.0,0.0,0.0,0.0,0.0,0.0,0.0,0.0,0.0,0.0,0.0,0.0,0.0,0.0,0.0,0.0,0.0,0.0,0.0,0.0,0.0,0.0,0.0,0.0,0.0,0.0,0.0,0.0,0.0,0.0,0.0,0.0,0.0,0.0,0.0,0.0,0.0,0.0,0.0,0.0,0.0,0.0,0.0,0.0,0.0,0.0,0.0,0.0,0.0,0.0,0.0,0.0,0.0,0.0,0.0,0.0,0.0,0.0,0.0,0.0,0.0,0.0,0.0,0.0,0.0,0.0,0.0,0.0,0.0,0.0,0.0,0.0,0.0,0.0,0.0,0.0,0.0,0.0,0.0,0.0,0.0,0.0,0.0,0.0,0.0,0.0,0.0,0.0,0.0,0.0,0.0,0.0,0.0,0.0,0.0,0.0,0.0,0.0,0.0,0.0,0.0,0.0,0.0,0.0,0.0,0.0,0.0,0.0,0.0,0.0,0.0,0.0,0.0,0.0,0.0,0.0,0.0,0.0,0.0,0.0,0.0,0.0,0.0,0.0,0.0,0.0,0.0,0.0,0.0,0.0,0.0,0.0,0.0,0.0,0.0,0.0,0.0,0.0,0.0,0.0,0.0,0.0,0.0,0.0,0.0,0.0,0.0,0.0,0.0,0.0,0.0,0.0,0.0,0.0,0.0,0.0,0.0,0.0,0.0,0.0,0.0,0.0,0.0,0.0,0.0,0.0,0.0,0.0,0.0,0.0,0.0,0.0,0.0,0.0,0.0,0.0,0.0,0.0,0.0,0.0,0.0,0.0,0.0,0.0,0.0,0.0,0.0,0.0,0.0,0.0,0.0,0.0,0.0,0.0,0.0,0.0,0.0,0.0,0.0,0.0,0.0,0.0,0.0,0.0,0.0,0.0,0.0,0.0,0.0,0.0,0.0,0.0,0.0,0.0,0.0,0.0,0.0,0.0,0.0,0.0,0.0,0.0,0.0,0.0,0.0,0.0,0.0,0.0,0.0,0.0,0.0,0.0,0.0,0.0,0.0,0.0,0.0,0.0,0.0,0.0,0.0,0.0,0.0,0.0,0.0,0.0,0.0,0.0,0.0,0.0,0.0,0.0,0.0,0.0,0.0,0.0,0.0,0.0,0.0,0.0,0.0,0.0,0.0,0.0,-2.1224,0.0,0.0,0.0,0.0,0.0,0.0,0.0,0.0,0.0,0.0,0.0,0.0,0.0,0.0,0.0,0.0,0.0,0.0,0.0,0.0,0.0,0.0,0.0,0.0,0.0,0.0,0.0,0.0,0.0,0.0,0.0,0.0,0.0,0.0,0.0,0.0,0.0,0.0,0.0,0.0,0.0,0.0,0.0,0.0,0.0,0.0,0.0,0.0,0.0,0.0,0.0,0.0,0.0,0.0,0.0,0.0,0.0,0.0,0.0,0.0,0.0,0.0,0.0,0.0,0.0,0.0,0.0,0.0,0.0,0.0,0.0,0.0,0.0,0.0,0.0,0.0,0.0,0.0,0.0,0.0,0.0,0.0,0.0,0.0,0.0,0.0,0.0,0.0,0.0,0.0,0.0,0.0,0.0,0.0,0.0,0.0,0.0,0.0,0.0,0.0,0.0,0.0,0.0,0.0,0.0,0.0,0.0,0.0,0.0,0.0,-2.1021,-2.121,-2.1229,-2.1229,-2.1229,0.0,0.0,0.0,0.0,0.0,0.0,0.0,0.0,0.0,0.0,0.0,0.0,0.0,0.0,0.0,0.0,0.0,0.0,0.0,0.0,0.0,0.0,0.0,0.0,0.0,0.0,0.0,0.0,0.0,0.0,0.0,0.0,0.0,0.0,0.0,0.0,0.0,0.0,0.0,0.0,0.0,0.0,0.0,0.0,0.0,0.0,0.0,0.0,0.0,0.0,0.0,0.0,0.0,0.0,0.0,0.0,0.0,0.0,0.0,0.0,0.0,0.0,0.0,0.0,0.0,0.0,0.0,0.0,0.0,0.0,0.0,0.0,0.0,0.0,0.0,0.0,0.0,0.0,0.0,0.0,0.0,0.0,0.0,0.0,0.0,0.0,0.0,0.0,0.0,0.0,0.0,0.0,0.0,0.0,0.0,0.0,0.0,0.0,0.0,0.0,0.0,0.0,0.0,0.0,0.0,0.0,0.0,0.0,0.0,0.0,0.0,0.0,-2.1325,-2.1325,-2.1344,0.0,0.0,0.0,0.0,0.0,0.0,0.0,0.0,0.0,0.0,0.0,0.0,0.0,0.0,0.0,0.0,0.0,0.0,0.0,0.0,0.0,0.0,0.0,0.0,0.0,0.0,0.0,0.0,0.0,0.0,0.0,0.0,0.0,0.0,0.0,0.0,0.0,0.0,0.0,0.0,0.0,0.0,0.0,0.0,0.0,0.0,0.0,0.0,0.0,0.0,0.0,0.0,0.0,0.0,0.0,0.0,0.0,0.0,0.0,0.0,0.0,0.0,0.0,0.0,0.0,0.0,0.0,0.0,0.0,0.0,0.0,0.0,0.0,0.0,0.0,0.0,0.0,0.0,0.0,0.0,0.0,0.0,0.0,0.0,0.0,0.0,0.0,0.0,0.0,0.0,0.0,0.0,0.0,0.0,0.0,0.0,0.0,0.0,0.0,0.0,0.0,0.0,0.0,0.0,0.0,0.0,0.0,0.0,0.0,0.0,-2.1323,-2.1621,-2.1621,0.0,-2.1621,0.0,0.0,0.0,0.0,0.0,0.0,0.0,0.0,0.0,0.0,0.0,0.0,0.0,0.0,0.0,0.0,0.0,0.0,0.0,0.0,0.0,0.0,0.0,0.0,0.0,0.0,0.0,0.0,0.0,0.0,0.0,0.0,0.0,0.0,0.0,0.0,0.0,0.0,0.0,0.0,0.0,0.0,0.0,0.0,0.0,0.0,0.0,0.0,0.0,0.0,0.0,0.0,0.0,0.0,0.0,0.0,0.0,0.0,0.0,0.0,0.0,0.0,0.0,0.0,0.0,0.0,0.0,0.0,0.0,0.0,0.0,0.0,0.0,0.0,0.0,0.0,0.0,0.0,0.0,0.0,0.0,0.0,0.0,0.0,0.0,0.0,0.0,0.0,0.0,0.0,0.0,0.0,0.0,0.0,0.0,0.0,0.0,0.0,0.0,0.0,0.0,0.0,0.0,0.0,0.0,0.0,0.0,0.0,0.0,0.0,-2.1566,-2.1731,-2.1571,-2.1571,0.0,0.0,0.0,0.0,0.0,0.0,0.0,0.0,0.0,0.0,0.0,0.0,0.0,0.0,0.0,0.0,0.0,0.0,0.0,0.0,0.0,0.0,0.0,0.0,0.0,0.0,0.0,0.0,0.0,0.0,0.0,0.0,0.0,0.0,0.0,0.0,0.0,0.0,0.0,0.0,0.0,0.0,0.0,0.0,0.0,0.0,0.0,0.0,0.0,0.0,0.0,0.0,0.0,0.0,0.0,0.0,0.0,0.0,0.0,0.0,0.0,0.0,0.0,0.0,0.0,0.0,0.0,0.0,0.0,0.0,0.0,0.0,0.0,0.0,0.0,0.0,0.0,0.0,0.0,0.0,0.0,0.0,0.0,0.0,0.0,0.0,0.0,0.0,0.0,0.0,0.0,0.0,0.0,0.0,0.0,0.0,0.0,0.0,0.0,0.0,0.0,0.0,0.0,0.0,0.0,0.0,0.0,0.0,0.0,0.0,-2.1642,-2.1553,-2.1463,-2.1374,-2.1302,-2.1302,0.0,0.0,0.0,0.0,0.0,0.0,0.0,0.0,0.0,0.0,0.0,0.0,0.0,0.0,0.0,0.0,0.0,0.0,0.0,0.0,0.0,0.0,0.0,0.0,0.0,0.0,0.0,0.0,0.0,0.0,0.0,0.0,0.0,0.0,0.0,0.0,0.0,0.0,0.0,0.0,0.0,0.0,0.0,0.0,0.0,0.0,0.0,0.0,0.0,0.0,0.0,0.0,0.0,0.0,0.0,0.0,0.0,0.0,0.0,0.0,0.0,0.0,0.0,0.0,0.0,0.0,0.0,0.0,0.0,0.0,0.0,0.0,0.0,0.0,0.0,0.0,0.0,0.0,0.0,0.0,0.0,0.0,0.0,0.0,0.0,0.0,0.0,0.0,0.0,0.0,0.0,0.0,0.0,0.0,0.0,0.0,0.0,0.0,0.0,0.0,0.0,0.0,0.0,0.0,0.0,0.0,0.0,0.0,-2.1731,-2.1482,-2.1302,-2.1105,-2.0997,-2.0997,0.0,0.0,0.0,0.0,0.0,0.0,0.0,0.0,0.0,0.0,0.0,0.0,0.0,0.0,0.0,0.0,0.0,0.0,0.0,0.0,0.0,0.0,0.0,0.0,0.0,0.0,0.0,0.0,0.0,0.0,0.0,0.0,0.0,0.0,0.0,0.0,0.0,0.0,0.0,0.0,0.0,0.0,0.0,0.0,0.0,0.0,0.0,0.0,0.0,0.0,0.0,0.0,0.0,0.0,0.0,0.0,0.0,0.0,0.0,0.0,0.0,0.0,0.0,0.0,0.0,0.0,0.0,0.0,0.0,0.0,0.0,0.0,0.0,0.0,0.0,0.0,0.0,0.0,0.0,0.0,0.0,0.0,0.0,0.0,0.0,0.0,0.0,0.0,0.0,0.0,0.0,0.0,0.0,0.0,0.0,0.0,0.0,0.0,0.0,0.0,0.0,0.0,0.0,0.0,0.0,0.0,0.0,0.0,0.0,-2.1844,-2.1821,-2.176,-2.1462,-2.1369,-2.1181,0.0,0.0,0.0,0.0,0.0,0.0,0.0,0.0,0.0,0.0,0.0,0.0,0.0,0.0,0.0,0.0,0.0,0.0,0.0,0.0,0.0,0.0,0.0,0.0,0.0,0.0,0.0,0.0,0.0,0.0,0.0,0.0,0.0,0.0,0.0,0.0,0.0,0.0,0.0,0.0,0.0,0.0,0.0,0.0,0.0,0.0,0.0,0.0,0.0,0.0,0.0,0.0,0.0,0.0,0.0,0.0,0.0,0.0,0.0,0.0,0.0,0.0,0.0,0.0,0.0,0.0,0.0,0.0,0.0,0.0,0.0,0.0,0.0,0.0,0.0,0.0,0.0,0.0,0.0,0.0,0.0,0.0,0.0,0.0,0.0,0.0,0.0,0.0,0.0,0.0,0.0,0.0,0.0,0.0,0.0,0.0,0.0,0.0,0.0,0.0,0.0,0.0,0.0,0.0,0.0,0.0,0.0,0.0,0.0,-2.1795,0.0,-2.1613,-2.1388,-2.1213,-2.1021,0.0,0.0,0.0,0.0,0.0,0.0,0.0,0.0,0.0,0.0,0.0,0.0,0.0,0.0,0.0,0.0,0.0,0.0,0.0,0.0,0.0,0.0,0.0,0.0,0.0,0.0,0.0,0.0,0.0,0.0,0.0,0.0,0.0,0.0,0.0,0.0,0.0,0.0,0.0,0.0,0.0,0.0,0.0,0.0,0.0,0.0,0.0,0.0,0.0,0.0,0.0,0.0,0.0,0.0,0.0,0.0,0.0,0.0,0.0,0.0,0.0,0.0,0.0,0.0,0.0,0.0,0.0,0.0,0.0,0.0,0.0,0.0,0.0,0.0,0.0,0.0,0.0,0.0,0.0,0.0,0.0,0.0,0.0,0.0,0.0,0.0,0.0,0.0,0.0,0.0,0.0,0.0,0.0,0.0,0.0,0.0,0.0,0.0,0.0,0.0,0.0,0.0,0.0,0.0,0.0,0.0,0.0,0.0,-2.2125,-2.1439,-2.1185,-2.0945,-2.0572,-2.0621,-2.0588,0.0,0.0,0.0,0.0,0.0,0.0,0.0,0.0,0.0,0.0,0.0,0.0,0.0,0.0,0.0,0.0,0.0,0.0,0.0,0.0,0.0,0.0,0.0,0.0,0.0,0.0,0.0,0.0,0.0,0.0,0.0,0.0,0.0,0.0,0.0,0.0,0.0,0.0,0.0,0.0,0.0,0.0,0.0,0.0,0.0,0.0,0.0,0.0,0.0,0.0,0.0,0.0,0.0,0.0,0.0,0.0,0.0,0.0,0.0,0.0,0.0,0.0,0.0,0.0,0.0,0.0,0.0,0.0,0.0,0.0,0.0,0.0,0.0,0.0,0.0,0.0,0.0,0.0,0.0,0.0,0.0,0.0,0.0,0.0,0.0,0.0,0.0,0.0,0.0,0.0,0.0,0.0,0.0,0.0,0.0,0.0,0.0,0.0,0.0,0.0,0.0,0.0,0.0,0.0,0.0,0.0,0.0,0.0,0.0,-2.1673,-2.1816,-2.1723,-2.1186,-2.098,-2.0751,0.0,0.0,0.0,0.0,0.0,0.0,0.0,0.0,0.0,0.0,0.0,0.0,0.0,0.0,0.0,0.0,0.0,0.0,0.0,0.0,0.0,0.0,0.0,0.0,0.0,0.0,0.0,0.0,0.0,0.0,0.0,0.0,0.0,0.0,0.0,0.0,0.0,0.0,0.0,0.0,0.0,0.0,0.0,0.0,0.0,0.0,0.0,0.0,0.0,0.0,0.0,0.0,0.0,0.0,0.0,0.0,0.0,0.0,0.0,0.0,0.0,0.0,0.0,0.0,0.0,0.0,0.0,0.0,0.0,0.0,0.0,0.0,0.0,0.0,0.0,0.0,0.0,0.0,0.0,0.0,0.0,0.0,0.0,0.0,0.0,0.0,0.0,0.0,0.0,0.0,0.0,0.0,0.0,0.0,0.0,0.0,0.0,0.0,0.0,0.0,0.0,0.0,0.0,0.0,0.0,0.0,0.0,0.0,0.0,-2.1588,-2.1666,-2.1604,-2.1276,-2.1078,-2.091,-2.0773,0.0,0.0,0.0,0.0,0.0,0.0,0.0,0.0,0.0,0.0,0.0,0.0,0.0,0.0,0.0,0.0,0.0,0.0,0.0,0.0,0.0,0.0,0.0,0.0,0.0,0.0,0.0,0.0,0.0,0.0,0.0,0.0,0.0,0.0,0.0,0.0,0.0,0.0,0.0,0.0,0.0,0.0,0.0,0.0,0.0,0.0,0.0,0.0,0.0,0.0,0.0,0.0,0.0,0.0,0.0,0.0,0.0,0.0,0.0,0.0,0.0,0.0,0.0,0.0,0.0,0.0,0.0,0.0,0.0,0.0,0.0,0.0,0.0,0.0,0.0,0.0,0.0,0.0,0.0,0.0,0.0,0.0,0.0,0.0,0.0,0.0,0.0,0.0,0.0,0.0,0.0,0.0,0.0,0.0,0.0,0.0,0.0,0.0,0.0,0.0,0.0,0.0,0.0,0.0,0.0,0.0,0.0,0.0,-2.1176,-2.1126,-2.1077,-2.1003,-2.0988,-2.1048,0.0,0.0,0.0,0.0,0.0,0.0,0.0,0.0,0.0,0.0,0.0,0.0,0.0,0.0,0.0,0.0,0.0,0.0,0.0,0.0,0.0,0.0,0.0,0.0,0.0,0.0,0.0,0.0,0.0,0.0,0.0,0.0,0.0,0.0,0.0,0.0,0.0,0.0,0.0,0.0,0.0,0.0,0.0,0.0,0.0,0.0,0.0,0.0,0.0,0.0,0.0,0.0,0.0,0.0,0.0,0.0,0.0,0.0,0.0,0.0,0.0,0.0,0.0,0.0,0.0,0.0,0.0,0.0,0.0,0.0,0.0,0.0,0.0,0.0,0.0,0.0,0.0,0.0,0.0,0.0,0.0,0.0,0.0,0.0,0.0,0.0,0.0,0.0,0.0,0.0,0.0,0.0,0.0,0.0,0.0,0.0,0.0,0.0,0.0,0.0,0.0,0.0,0.0,0.0,0.0,0.0,0.0,0.0,0.0,-2.2076,-2.1892,-2.1516,-2.1213,-2.0957,-2.0802,0.0,0.0,0.0,0.0,0.0,0.0,0.0,0.0,0.0,0.0,0.0,0.0,0.0,0.0,0.0,0.0,0.0,0.0,0.0,0.0,0.0,0.0,0.0,0.0,0.0,0.0,0.0,0.0,0.0,0.0,0.0,0.0,0.0,0.0,0.0,0.0,0.0,0.0,0.0,0.0,0.0,0.0,0.0,0.0,0.0,0.0,0.0,0.0,0.0,0.0,0.0,0.0,0.0,0.0,0.0,0.0,0.0,0.0,0.0,0.0,0.0,0.0,0.0,0.0,0.0,0.0,0.0,0.0,0.0,0.0,0.0,0.0,0.0,0.0,0.0,0.0,0.0,0.0,0.0,0.0,0.0,0.0,0.0,0.0,0.0,0.0,0.0,0.0,0.0,0.0,0.0,0.0,0.0,0.0,0.0,0.0,0.0,0.0,0.0,0.0,0.0,0.0,0.0,0.0,0.0,0.0,0.0,0.0,-2.2291,-2.2341,-2.2153,-2.1869,-2.1478,-2.1299,-2.1046,0.0,0.0,0.0,0.0,0.0,0.0,0.0,0.0,0.0,0.0,0.0,0.0,0.0,0.0,0.0,0.0,0.0,0.0,0.0,0.0,0.0,0.0,0.0,0.0,0.0,0.0,0.0,0.0,0.0,0.0,0.0,0.0,0.0,0.0,0.0,0.0,0.0,0.0,0.0,0.0,0.0,0.0,0.0,0.0,0.0,0.0,0.0,0.0,0.0,0.0,0.0,0.0,0.0,0.0,0.0,0.0,0.0,0.0,0.0,0.0,0.0,0.0,0.0,0.0,0.0,0.0,0.0,0.0,0.0,0.0,0.0,0.0,0.0,0.0,0.0,0.0,0.0,0.0,0.0,0.0,0.0,0.0,0.0,0.0,0.0,0.0,0.0,0.0,0.0,0.0,0.0,0.0,0.0,0.0,0.0,0.0,0.0,0.0,0.0,0.0,0.0,0.0,0.0,0.0,0.0,0.0,0.0,0.0,-2.2426,-2.2131,-2.2168,-2.2071,-2.2058,-2.1727,-2.1644,0.0,0.0,0.0,0.0,0.0,0.0,0.0,0.0,0.0,0.0,0.0,0.0,0.0,0.0,0.0,0.0,0.0,0.0,0.0,0.0,0.0,0.0,0.0,0.0,0.0,0.0,0.0,0.0,0.0,0.0,0.0,0.0,0.0,0.0,0.0,0.0,0.0,0.0,0.0,0.0,0.0,0.0,0.0,0.0,0.0,0.0,0.0,0.0,0.0,0.0,0.0,0.0,0.0,0.0,0.0,0.0,0.0,0.0,0.0,0.0,0.0,0.0,0.0,0.0,0.0,0.0,0.0,0.0,0.0,0.0,0.0,0.0,0.0,0.0,0.0,0.0,0.0,0.0,0.0,0.0,0.0,0.0,0.0,0.0,0.0,0.0,0.0,0.0,0.0,0.0,0.0,0.0,0.0,0.0,0.0,0.0,0.0,0.0,0.0,0.0,0.0,0.0,0.0,0.0,0.0,0.0,0.0,0.0,-2.2849,-2.2786,-2.2754,-2.2686,-2.2672,-2.2015,-2.1578,0.0,0.0,0.0,0.0,0.0,0.0,0.0,0.0,0.0,0.0,0.0,0.0,0.0,0.0,0.0,0.0,0.0,0.0,0.0,0.0,0.0,0.0,0.0,0.0,0.0,0.0,0.0,0.0,0.0,0.0,0.0,0.0,0.0,0.0,0.0,0.0,0.0,0.0,0.0,0.0,0.0,0.0,0.0,0.0,0.0,0.0,0.0,0.0,-2.6278,0.0,0.0,0.0,0.0,0.0,0.0,0.0,0.0,0.0,0.0,0.0,0.0,0.0,0.0,0.0,0.0,0.0,0.0,0.0,0.0,0.0,0.0,0.0,0.0,0.0,0.0,0.0,0.0,0.0,0.0,0.0,0.0,0.0,0.0,0.0,0.0,0.0,0.0,0.0,0.0,0.0,0.0,0.0,0.0,0.0,0.0,0.0,0.0,0.0,0.0,0.0,0.0,0.0,0.0,0.0,0.0,0.0,0.0,0.0,-2.3168,-2.2941,-2.2835,-2.2859,-2.2846,-2.2271,-2.1948,0.0,0.0,0.0,0.0,0.0,0.0,0.0,0.0,0.0,0.0,0.0,0.0,0.0,0.0,0.0,0.0,0.0,0.0,0.0,0.0,0.0,0.0,0.0,0.0,0.0,0.0,0.0,0.0,0.0,0.0,0.0,0.0,0.0,0.0,0.0,0.0,0.0,0.0,0.0,0.0,0.0,0.0,0.0,0.0,0.0,0.0,0.0,0.0,0.0,0.0,0.0,0.0,0.0,0.0,0.0,0.0,0.0,0.0,0.0,0.0,0.0,0.0,0.0,0.0,0.0,0.0,0.0,0.0,0.0,0.0,0.0,0.0,0.0,0.0,0.0,0.0,0.0,0.0,0.0,0.0,0.0,0.0,0.0,0.0,0.0,0.0,0.0,0.0,0.0,0.0,0.0,0.0,0.0,0.0,0.0,0.0,0.0,0.0,0.0,0.0,0.0,0.0,0.0,0.0,0.0,0.0,0.0,-2.3403,-2.3347,-2.3039,-2.301,-2.3006,-2.2993,-2.2712,-2.2418,0.0,0.0,0.0,0.0,0.0,0.0,0.0,0.0,0.0,0.0,0.0,0.0,0.0,0.0,0.0,0.0,0.0,0.0,0.0,0.0,0.0,0.0,0.0,0.0,0.0,0.0,0.0,0.0,0.0,0.0,0.0,0.0,0.0,0.0,0.0,0.0,0.0,0.0,0.0,-2.5036,-2.517,0.0,0.0,0.0,0.0,0.0,0.0,0.0,0.0,-2.5204,0.0,0.0,0.0,0.0,0.0,0.0,0.0,0.0,0.0,0.0,0.0,0.0,0.0,0.0,0.0,0.0,0.0,0.0,0.0,0.0,0.0,0.0,0.0,0.0,0.0,0.0,0.0,0.0,0.0,0.0,0.0,0.0,0.0,0.0,0.0,0.0,0.0,0.0,0.0,0.0,0.0,0.0,0.0,0.0,0.0,0.0,0.0,0.0,0.0,0.0,0.0,0.0,0.0,0.0,0.0,0.0,-2.378,-2.3792,-2.3722,-2.3668,-2.3594,-2.3621,-2.3621,-2.334,-2.3033,-2.2699,0.0,0.0,0.0,0.0,0.0,0.0,0.0,0.0,0.0,0.0,0.0,0.0,0.0,0.0,0.0,0.0,0.0,0.0,0.0,0.0,0.0,0.0,0.0,0.0,0.0,0.0,0.0,0.0,0.0,0.0,0.0,0.0,0.0,0.0,0.0,0.0,0.0,0.0,0.0,-2.4644,-2.466,0.0,0.0,0.0,0.0,0.0,0.0,0.0,0.0,-2.5031,0.0,0.0,0.0,0.0,0.0,0.0,0.0,0.0,0.0,0.0,0.0,0.0,0.0,0.0,0.0,0.0,0.0,0.0,0.0,0.0,0.0,0.0,0.0,0.0,0.0,0.0,0.0,0.0,0.0,0.0,0.0,0.0,0.0,0.0,0.0,0.0,0.0,0.0,0.0,0.0,0.0,0.0,0.0,0.0,0.0,0.0,0.0,0.0,0.0,0.0,0.0,0.0,0.0,0.0,0.0,-2.3969,-2.4052,-2.4036,-2.3754,-2.3781,-2.3781,-2.3768,-2.3634,-2.342,0.0,0.0,0.0,0.0,0.0,0.0,0.0,0.0,0.0,0.0,0.0,0.0,0.0,0.0,0.0,0.0,0.0,0.0,0.0,0.0,0.0,0.0,0.0,0.0,0.0,0.0,0.0,0.0,0.0,0.0,0.0,0.0,0.0,0.0,0.0,0.0,0.0,0.0,0.0,0.0,-2.4392,-2.4487,-2.4388,0.0,0.0,0.0,0.0,0.0,0.0,-2.5368,-2.4988,0.0,0.0,0.0,0.0,0.0,0.0,0.0,0.0,0.0,0.0,0.0,0.0,0.0,0.0,0.0,0.0,0.0,0.0,0.0,0.0,0.0,0.0,0.0,0.0,0.0,0.0,0.0,0.0,0.0,0.0,0.0,0.0,0.0,0.0,0.0,0.0,0.0,0.0,0.0,0.0,0.0,0.0,0.0,0.0,0.0,0.0,0.0,0.0,0.0,0.0,0.0,0.0,0.0,0.0,0.0,-2.405,-2.4245,-2.4317,-2.3941,-2.3941,-2.3941,-2.3941,-2.3888,-2.3741,0.0,0.0,0.0,0.0,0.0,0.0,0.0,0.0,0.0,0.0,0.0,0.0,0.0,0.0,0.0,0.0,0.0,0.0,0.0,0.0,0.0,0.0,0.0,0.0,0.0,0.0,0.0,0.0,0.0,0.0,0.0,0.0,0.0,0.0,0.0,0.0,0.0,0.0,0.0,0.0,0.0,-2.4274,-2.4296,-2.5098,0.0,0.0,0.0,0.0,-2.5992,-2.5283,0.0,0.0,0.0,0.0,0.0,0.0,0.0,0.0,0.0,0.0,0.0,0.0,0.0,0.0,0.0,0.0,0.0,0.0,0.0,0.0,0.0,0.0,0.0,0.0,0.0,0.0,0.0,0.0,0.0,0.0,0.0,0.0,0.0,0.0,0.0,0.0,0.0,0.0,0.0,0.0,0.0,0.0,0.0,0.0,0.0,0.0,0.0,0.0,0.0,0.0,0.0,0.0,0.0,0.0,0.0,0.0,-2.44,-2.4561,-2.4566,-2.4516,-2.4529,-2.4529,-2.4529,-2.4289,-2.4142,0.0,0.0,0.0,0.0,0.0,0.0,0.0,0.0,0.0,0.0,0.0,0.0,0.0,0.0,0.0,0.0,0.0,0.0,0.0,0.0,0.0,0.0,0.0,0.0,0.0,0.0,0.0,0.0,0.0,0.0,0.0,0.0,0.0,0.0,0.0,0.0,0.0,0.0,0.0,0.0,0.0,-2.4121,-2.4296,-2.4419,-2.4699,0.0,0.0,0.0,-2.5691,-2.535,0.0,0.0,0.0,0.0,0.0,0.0,0.0,0.0,0.0,0.0,0.0,0.0,0.0,0.0,0.0,0.0,0.0,0.0,0.0,0.0,0.0,0.0,0.0,0.0,0.0,0.0,0.0,0.0,0.0,0.0,0.0,0.0,0.0,0.0,0.0,0.0,0.0,0.0,0.0,0.0,0.0,0.0,0.0,0.0,0.0,0.0,0.0,0.0,0.0,0.0,0.0,0.0,0.0,0.0,0.0,-2.4872,-2.4946,-2.498,-2.4905,-2.489,-2.505,-2.513,-2.513,-2.485,-2.4623,0.0,0.0,0.0,0.0,0.0,0.0,0.0,0.0,0.0,0.0,0.0,0.0,0.0,0.0,0.0,0.0,0.0,0.0,0.0,0.0,0.0,0.0,0.0,0.0,0.0,0.0,0.0,0.0,0.0,0.0,0.0,0.0,0.0,0.0,0.0,0.0,0.0,0.0,0.0,0.0,0.0,0.0,-2.438,-2.469,0.0,0.0,0.0,-2.5486,-2.5607,0.0,0.0,0.0,0.0,0.0,0.0,0.0,0.0,0.0,0.0,0.0,0.0,0.0,0.0,0.0,0.0,0.0,0.0,0.0,0.0,0.0,0.0,0.0,0.0,0.0,0.0,0.0,0.0,0.0,0.0,0.0,0.0,0.0,0.0,0.0,0.0,0.0,0.0,0.0,0.0,0.0,0.0,0.0,0.0,0.0,0.0,0.0,0.0,0.0,0.0,0.0,0.0,0.0,0.0,0.0,0.0,0.0,-2.545,-2.5323,-2.5184,-2.5197,-2.5398,-2.5518,-2.5504,-2.5304,0.0,0.0,0.0,0.0,0.0,0.0,0.0,0.0,0.0,0.0,0.0,0.0,0.0,0.0,0.0,0.0,0.0,0.0,0.0,0.0,0.0,0.0,0.0,0.0,0.0,0.0,0.0,-2.4159,0.0,0.0,0.0,0.0,0.0,0.0,0.0,0.0,0.0,0.0,0.0,0.0,0.0,0.0,-2.4556,-2.4623,-2.5077,-2.5411,0.0,0.0,-2.5518,-2.5518,-2.5331,-2.5184,0.0,0.0,0.0,0.0,0.0,0.0,0.0,0.0,0.0,0.0,0.0,0.0,0.0,0.0,0.0,0.0,0.0,0.0,0.0,0.0,0.0,0.0,0.0,0.0,0.0,0.0,0.0,0.0,0.0,0.0,0.0,0.0,0.0,0.0,0.0,0.0,0.0,0.0,0.0,0.0,0.0,0.0,0.0,0.0,0.0,0.0,0.0,0.0,0.0,0.0,0.0,0.0,0.0,0.0,0.0,-2.5772,-2.5636,-2.5478,-2.5478,-2.5504,-2.5518,-2.5518,-2.5491,-2.5344,0.0,0.0,0.0,0.0,0.0,0.0,0.0,0.0,0.0,0.0,0.0,0.0,0.0,0.0,0.0,0.0,0.0,0.0,0.0,0.0,0.0,0.0,0.0,0.0,0.0,0.0,0.0,0.0,0.0,0.0,0.0,0.0,0.0,0.0,0.0,0.0,0.0,0.0,0.0,0.0,0.0,-2.4329,-2.4596,-2.4903,-2.5117,0.0,0.0,-2.5518,-2.5518,-2.5504,-2.5491,-2.5491,0.0,0.0,0.0,0.0,0.0,0.0,0.0,0.0,0.0,0.0,0.0,0.0,0.0,0.0,0.0,0.0,0.0,0.0,0.0,0.0,0.0,0.0,0.0,0.0,0.0,0.0,0.0,0.0,0.0,0.0,0.0,0.0,0.0,0.0,0.0,0.0,0.0,0.0,0.0,0.0,0.0,0.0,0.0,0.0,0.0,0.0,0.0,0.0,0.0,0.0,0.0,0.0,0.0,-2.5639,-2.5648,-2.5796,-2.5785,-2.5798,-2.5959,-2.6052,-2.6052,-2.5892,-2.5732,0.0,0.0,0.0,0.0,0.0,0.0,0.0,0.0,0.0,0.0,0.0,0.0,0.0,0.0,0.0,0.0,0.0,0.0,0.0,0.0,0.0,0.0,0.0,0.0,0.0,0.0,0.0,0.0,-2.6023,-2.6325,-2.631,0.0,0.0,0.0,0.0,0.0,0.0,0.0,0.0,0.0,0.0,-2.485,-2.5144,-2.5277,0.0,0.0,-2.5438,-2.5518,-2.5518,-2.5518,-2.5518,-2.5518,-2.5424,0.0,0.0,0.0,0.0,0.0,0.0,0.0,0.0,0.0,0.0,0.0,0.0,0.0,0.0,0.0,0.0,0.0,0.0,0.0,0.0,0.0,0.0,0.0,0.0,0.0,0.0,0.0,0.0,0.0,0.0,0.0,0.0,0.0,0.0,0.0,0.0,0.0,0.0,0.0,0.0,0.0,0.0,0.0,0.0,0.0,0.0,0.0,0.0,0.0,0.0,0.0,0.0,-2.5959,-2.5814,-2.594,-2.6079,-2.6092,-2.6279,-2.64,-2.6386,-2.6199,-2.6039,0.0,0.0,0.0,0.0,0.0,0.0,0.0,0.0,0.0,0.0,0.0,0.0,0.0,0.0,0.0,0.0,0.0,0.0,0.0,0.0,0.0,0.0,0.0,0.0,0.0,0.0,0.0,0.0,-2.5999,-2.6344,-2.6359,0.0,0.0,0.0,0.0,0.0,0.0,0.0,0.0,0.0,0.0,-2.5291,-2.5478,-2.5585,-2.5651,-2.5651,-2.5718,-2.5785,-2.5772,-2.5772,-2.5772,-2.5772,0.0,0.0,0.0,0.0,0.0,0.0,0.0,0.0,0.0,0.0,0.0,0.0,0.0,0.0,0.0,0.0,0.0,0.0,0.0,0.0,0.0,0.0,0.0,0.0,0.0,0.0,0.0,0.0,0.0,0.0,0.0,0.0,0.0,0.0,0.0,0.0,0.0,0.0,0.0,0.0,0.0,0.0,0.0,0.0,0.0,0.0,0.0,0.0,0.0,0.0,0.0,0.0,0.0,0.0,-2.6129,-2.6235,-2.6373,-2.6373,-2.6386,-2.64,-2.6386,-2.6386,-2.6239,-2.5959,0.0,0.0,0.0,0.0,0.0,0.0,0.0,0.0,0.0,0.0,0.0,0.0,0.0,0.0,0.0,0.0,0.0,0.0,0.0,0.0,0.0,0.0,0.0,0.0,0.0,0.0,-2.4788,-2.5312,-2.5786,0.0,0.0,0.0,0.0,0.0,0.0,0.0,0.0,0.0,0.0,-2.5949,-2.5504,-2.5531,-2.5772,-2.5945,-2.5945,-2.6186,-2.636,-2.636,-2.636,-2.6373,0.0,0.0,0.0,0.0,0.0,0.0,0.0,0.0,0.0,0.0,0.0,0.0,0.0,0.0,0.0,0.0,0.0,0.0,0.0,0.0,0.0,0.0,0.0,0.0,0.0,0.0,0.0,0.0,0.0,0.0,0.0,0.0,0.0,0.0,0.0,0.0,0.0,0.0,0.0,0.0,-2.4428,-2.4806,0.0,0.0,0.0,0.0,0.0,0.0,0.0,0.0,0.0,0.0,0.0,0.0,-2.6129,-2.6121,-2.6356,-2.64,-2.64,-2.64,-2.64,-2.64,-2.64,-2.6253,-2.5972,0.0,0.0,0.0,0.0,0.0,0.0,0.0,0.0,0.0,0.0,0.0,0.0,0.0,0.0,0.0,0.0,0.0,0.0,0.0,0.0,0.0,0.0,0.0,0.0,0.0,-2.3909,0.0,0.0,0.0,0.0,0.0,0.0,0.0,0.0,0.0,0.0,0.0,-2.6556,-2.6976,-2.6416,-2.5879,-2.6066,-2.6186,-2.6239,0.0,0.0,0.0,0.0,0.0,0.0,0.0,0.0,0.0,0.0,0.0,0.0,0.0,0.0,-2.493,-2.493,-2.493,-2.493,-2.493,0.0,0.0,0.0,0.0,0.0,0.0,0.0,0.0,0.0,0.0,0.0,0.0,0.0,0.0,0.0,0.0,-2.3768,0.0,0.0,0.0,0.0,0.0,0.0,0.0,0.0,-2.4946,-2.5084,-2.5084,-2.529,-2.54,0.0,-2.5593,-2.5387,0.0,0.0,0.0,0.0,0.0,0.0,0.0,0.0,-2.6221,-2.5959,-2.6239,-2.64,-2.64,-2.64,-2.64,-2.64,-2.64,-2.6306,-2.6119,-2.6012,-2.5865,0.0,0.0,0.0,0.0,0.0,0.0,0.0,0.0,0.0,0.0,0.0,0.0,0.0,0.0,0.0,0.0,0.0,0.0,0.0,0.0,0.0,0.0,0.0,-2.2621,0.0,0.0,0.0,0.0,0.0,0.0,0.0,0.0,0.0,-2.7502,-2.7373,-2.7143,-2.7297,-2.6717,-2.6329,-2.636,0.0,0.0,0.0,0.0,0.0,0.0,0.0,-2.64,-2.64,-2.64,-2.6333,-2.6132,-2.5945,-2.5812,-2.5812,0.0,0.0,-2.5558,-2.5518,-2.5518,-2.5518,-2.5518,-2.5518,-2.5518,-2.5518,-2.5545,0.0,0.0,0.0,0.0,0.0,0.0,0.0,0.0,-2.4649,-2.4649,0.0,0.0,0.0,0.0,0.0,0.0,0.0,0.0,0.0,0.0,-2.5358,-2.5504,-2.5491,-2.5504,-2.5518,-2.5531,-2.5531,-2.5531,-2.5491,-2.5717,0.0,0.0,0.0,0.0,0.0,0.0,-2.627,-2.5985,-2.6253,-2.64,-2.64,-2.64,-2.64,-2.64,-2.64,-2.6386,-2.6373,-2.6119,-2.5972,-2.5972,-2.5692,0.0,0.0,0.0,0.0,0.0,0.0,0.0,0.0,0.0,0.0,0.0,0.0,0.0,0.0,0.0,0.0,0.0,0.0,0.0,0.0,-2.0878,0.0,0.0,0.0,0.0,0.0,0.0,0.0,0.0,0.0,0.0,-2.7648,-2.7817,-2.7777,-2.7591,0.0,0.0,0.0,0.0,-2.64,-2.64,-2.64,-2.64,-2.64,-2.64,-2.64,-2.64,0.0,0.0,-2.6386,-2.6386,-2.6373,-2.6386,-2.636,-2.6213,-2.5665,-2.5571,-2.5571,-2.5558,-2.5585,-2.5545,-2.5545,-2.5598,-2.5665,-2.2947,0.0,0.0,0.0,0.0,-2.3922,-2.4415,-2.4796,-2.5113,-2.5264,-2.5264,-2.5264,0.0,0.0,0.0,0.0,0.0,0.0,-2.5304,-2.5384,-2.5464,-2.5518,-2.5518,-2.5732,-2.5825,-2.5838,-2.6039,-2.6132,-2.6132,-2.6128,-2.6026,-2.5702,0.0,0.0,0.0,0.0,-2.6208,-2.6253,-2.6346,-2.64,-2.64,-2.64,-2.64,-2.64,-2.64,-2.64,-2.6386,-2.6306,-2.6266,-2.6266,-2.5985,0.0,0.0,0.0,0.0,0.0,0.0,0.0,0.0,0.0,0.0,0.0,0.0,0.0,0.0,0.0,0.0,0.0,0.0,0.0,-2.1243,-2.0144,-1.9715,0.0,0.0,0.0,0.0,0.0,0.0,0.0,0.0,0.0,-2.6997,-2.7507,-2.7706,0.0,0.0,-2.7032,-2.6874,-2.6544,-2.64,-2.64,0.0,0.0,0.0,-2.64,-2.64,-2.64,-2.64,-2.64,-2.64,-2.64,-2.64,-2.64,-2.64,-2.6333,-2.6186,-2.6132,-2.6132,-2.6146,-2.6132,-2.6132,-2.6146,-2.6146,-2.6159,-2.3514,-2.3345,-2.314,-2.3414,-2.412,-2.4288,-2.4817,-2.5555,-2.571,-2.5852,-2.5852,-2.5852,-2.5692,-2.5424,-2.5304,0.0,0.0,0.0,-2.5758,-2.5865,-2.5865,-2.5852,-2.5879,-2.6052,-2.6132,-2.6132,-2.6306,-2.64,-2.64,-2.64,-2.6213,-2.5879,0.0,0.0,-2.6119,-2.6132,-2.6213,-2.6386,-2.64,-2.64,-2.64,-2.6507,-2.6613,-2.6734,-2.6627,-2.656,-2.656,-2.6453,-2.64,-2.6386,-2.6226,-2.6079,0.0,0.0,0.0,0.0,0.0,0.0,0.0,0.0,0.0,0.0,0.0,-1.9711,0.0,0.0,0.0,0.0,-1.9661,-2.0082,-1.9574,-1.8894,0.0,0.0,0.0,0.0,0.0,0.0,0.0,-2.2452,-2.3745,-2.4914,-2.5384,-2.6833,-2.7961,-2.8289,-2.7819,-2.7347,-2.7032,0.0,-2.6544,-2.6386,-2.64,-2.64,-2.64,-2.64,-2.64,-2.64,-2.64,-2.64,-2.64,-2.64,-2.64,-2.64,-2.64,-2.64,-2.64,-2.64,-2.64,-2.64,-2.64,-2.64,-2.64,-2.64,-2.64,-2.3876,-2.384,-2.3321,-2.3716,-2.4566,-2.4723,-2.5348,-2.6228,-2.6386,-2.64,-2.64,-2.64,-2.6239,-2.5972,-2.5705,0.0,0.0,-2.5985,-2.6132,-2.6386,-2.64,-2.64,-2.6386,-2.6386,-2.64,-2.6386,-2.64,-2.64,-2.64,-2.64,-2.6386,-2.64,-2.64,-2.64,-2.64,-2.6386,-2.64,-2.6426,-2.6426,-2.644,-2.6466,-2.672,-2.6987,-2.7241,-2.7001,-2.6854,-2.6854,-2.66,-2.6453,-2.6453,-2.644,-2.6306,-2.5883,0.0,0.0,0.0,0.0,0.0,0.0,0.0,0.0,0.0,0.0,0.0,0.0,0.0,0.0,0.0,-1.79,0.0,-1.7018,-1.751,0.0,0.0,0.0,-1.8818,-1.9134,-1.9632,-2.012,-2.1082,0.0,0.0,0.0,0.0,-2.8118,-2.8289,-2.8289,-2.7961,-2.7189,-2.7018,-2.686,-2.6544,-2.6386,-2.6386,-2.64,-2.6426,-2.6453,-2.6453,-2.644,-2.6493,-2.6493,-2.6493,-2.648,-2.6453,-2.6426,-2.6413,-2.64,-2.64,-2.64,-2.64,-2.64,-2.64,-2.64,-2.64,-2.64,-2.4142,-2.4118,-2.3792,-2.3854,-2.4062,-2.4711,-2.5225,-2.5448,-2.607,-2.64,-2.64,-2.64,-2.6346,-2.6279,-2.6213,-2.6213,-2.6293,-2.6279,-2.6319,-2.6386,-2.64,-2.64,-2.64,-2.64,-2.64,-2.64,-2.64,-2.64,-2.64,-2.64,-2.64,-2.64,-2.64,-2.64,-2.64,-2.64,-2.6493,-2.672,-2.672,-2.6827,-2.7054,-2.7121,-2.7188,-2.7268,-2.7201,-2.7161,-2.7161,-2.7094,-2.7054,-2.7054,-2.6841,-2.6039,-2.4665,-2.448,0.0,0.0,0.0,0.0,0.0,0.0,0.0,0.0,0.0,-1.8538,-1.8427,0.0,-1.7069,0.0,-1.6673,-1.7018,-1.8482,-1.7673,0.0,0.0,-1.7527,-1.801,-1.8664,-1.8664,-1.8981,-2.0607,-2.1243,-2.2372,-2.443,-2.5555,-2.6833,-2.8118,-2.8289,-2.8275,-2.7976,-2.7647,-2.7333,-2.6874,-2.6874,-2.6702,-2.6426,-2.6587,-2.672,-2.672,-2.6894,-2.7054,-2.7054,-2.7068,-2.6987,-2.6774,-2.672,-2.6627,-2.644,-2.64,-2.64,-2.64,-2.64,-2.64,-2.64,-2.64,-2.64,-2.4407,-2.4395,-2.4251,-2.419,-2.4178,-2.4591,-2.497,-2.513,-2.5753,-2.607,-2.607,-2.6386,-2.64,-2.64,-2.64,-2.64,-2.64,-2.64,-2.64,-2.64,-2.64,-2.64,-2.64,-2.64,-2.64,-2.64,-2.64,-2.64,-2.64,-2.64,-2.6453,-2.6573,-2.6587,-2.6653,-2.6774,-2.6653,-2.672,-2.7014,-2.7014,-2.7161,-2.7442,-2.7455,-2.7522,-2.7642,-2.7522,-2.7455,-2.7455,-2.7335,-2.7268,-2.6941,-2.662,-2.5878,-2.4723,-2.3925,-2.3133,0.0,0.0,0.0,0.0,0.0,0.0,0.0,0.0,0.0,0.0,0.0,-1.6534,0.0,-1.6534,0.0,-1.7992,-1.7346,-1.6698,-1.6706,-1.6706,-1.7026,-1.7363,-1.7519,-1.7837,-1.8818,-2.0424,-2.1717,-2.2659,-2.5066,-2.6517,-2.6847,-2.7602,-2.8117,-2.7833,-2.749,-2.7217,-2.7037,-2.6905,-2.6959,-2.6747,-2.6921,-2.7028,-2.7028,-2.7161,-2.7268,-2.7268,-2.7268,-2.7215,-2.7054,-2.7014,-2.6974,-2.6814,-2.6787,-2.6774,-2.6774,-2.6774,-2.668,-2.6453,-2.64,-2.64,-2.4685,-2.4685,-2.4637,-2.4625,-2.4601,-2.4466,-2.4751,-2.5072,-2.5499,-2.5792,-2.5753,-2.6228,-2.64,-2.64,-2.64,-2.64,-2.64,-2.64,-2.64,-2.64,-2.64,-2.64,-2.64,-2.64,-2.64,-2.64,-2.64,-2.64,-2.644,-2.644,-2.6587,-2.6867,-2.6881,-2.7028,-2.7295,-2.7068,-2.7068,-2.7321,-2.7362,-2.7495,-2.7749,-2.7762,-2.7883,-2.811,-2.7896,-2.7749,-2.7749,-2.7509,-2.7211,-2.6731,-2.6198,-2.5512,-2.4839,-2.331,-2.2288,0.0,-2.0775,0.0,0.0,0.0,0.0,0.0,0.0,0.0,0.0,-1.6534,-1.6205,-1.6525,-1.6534,-1.6698,-1.6698,-1.6698,-1.6534,-1.6048,-1.6048,-1.6048,-1.6048,-1.6534,-1.6854,-1.7018,-1.9927,-2.1383,-2.1103,-2.448,-2.6426,-2.5883,-2.704,-2.7762,-2.7209,-2.7182,-2.7264,-2.7015,-2.6881,-2.6947,-2.7161,-2.7281,-2.7321,-2.7321,-2.7388,-2.7375,-2.7415,-2.7415,-2.7375,-2.7335,-2.7321,-2.7295,-2.7281,-2.7255,-2.7255,-2.7228,-2.7215,-2.7068,-2.6667,-2.6493,-2.6453,-2.4963,-2.4951,-2.4721,-2.4625,-2.4613,-2.4516,-2.4808,-2.5288,-2.54,-2.5654,-2.5753,-2.6228,-2.64,-2.64,-2.64,-2.64,-2.64,-2.64,-2.64,-2.64,-2.64,-2.64,-2.64,-2.64,-2.64,-2.64,-2.64,-2.6507,-2.6747,-2.6734,-2.6894,-2.7175,-2.7188,-2.7321,0.0,0.0,0.0,0.0,-2.7856,-2.8003,-2.8056,-2.8056,-2.8083,-2.8136,-2.8083,0.0,-2.8056,-2.8003,-2.7808,-2.7317,-2.6581,0.0,0.0,0.0,0.0,0.0,0.0,0.0,0.0,0.0,0.0,0.0,-1.7391,-1.699,-1.6871,-1.6369,-1.6048,-1.6205,-1.6213,-1.6213,-1.6213,-1.604,-1.604,-1.6048,-1.6048,-1.6205,-1.6534,-1.6698,-1.7346,-1.9124,-1.8818,-2.0008,-2.3596,-2.4118,-2.4839,-2.6852,-2.7635,-2.7649,-2.727,-2.7716,-2.808,-2.7663,-2.7351,-2.7201,-2.7255,-2.7468,-2.7615,-2.7642,-2.7829,-2.7949,-2.7949,-2.7949,-2.7869,-2.7682,-2.7615,-2.7535,-2.7335,-2.7268,-2.7308,-2.7268,-2.7281,-2.7228,-2.7121,-2.6907,-2.6734,-2.524,0.0,-2.5083,-2.5023,0.0,-2.5023,-2.5191,-2.5334,-2.5602,-2.6002,-2.6505,-2.6827,-2.6734,-2.66,-2.66,-2.652,-2.64,-2.64,-2.64,-2.64,-2.64,-2.6466,-2.66,-2.66,-2.668,-2.6814,-2.6814,-2.6894,-2.7041,-2.7041,-2.7188,-2.7482,-2.7482,-2.7615,-2.7909,-2.7923,-2.7923,-2.7923,-2.807,-2.815,-2.815,-2.815,-2.815,-2.815,0.0,0.0,0.0,0.0,0.0,0.0,0.0,0.0,0.0,0.0,0.0,-1.9923,-1.9145,-1.8578,-1.8066,-1.7978,-1.7713,-1.7121,-1.6944,-1.6659,-1.6394,-1.6048,-1.6048,-1.6048,-1.6048,-1.6048,-1.6048,-1.6048,-1.6048,-1.6048,-1.6048,-1.6073,-1.6477,-1.6502,-1.7033,-1.8108,-1.9113,-2.0807,-2.3387,-2.4723,-2.5602,-2.7241,-2.773,-2.7646,-2.762,-2.7676,-2.7799,-2.7784,-2.7794,-2.7696,-2.7709,-2.7802,-2.7909,-2.7949,-2.8043,-2.8123,-2.815,-2.815,-2.8083,-2.7949,-2.7923,-2.7856,-2.7736,-2.7696,-2.7709,-2.7696,-2.7696,-2.7709,-2.7682,-2.7348,-2.7041,-2.5578,-2.5578,-2.5566,-2.5542,-2.5506,-2.5506,-2.5482,-2.5568,0.0,0.0,0.0,-2.7105,-2.7121,-2.6907,-2.6907,-2.6774,-2.6547,-2.6547,-2.6547,-2.6547,-2.6547,-2.6667,-2.6894,-2.6894,-2.7028,-2.7255,-2.7268,-2.7295,-2.7335,-2.7348,-2.7482,-2.7749,-2.7776,-2.7909,-2.8123,-2.815,-2.8163,-2.8217,-2.8177,-2.815,-2.815,-2.815,-2.815,-2.815,-2.815,-2.815,-2.815,-2.815,-2.7981,-2.7474,-2.558,-2.4714,-2.5239,-2.1618,-2.0066,-2.0915,-1.9213,-1.775,-1.7404,-1.7262,-1.6991,-1.6633,-1.66,-1.6454,-1.6162,-1.6137,-1.6137,-1.6137,-1.6137,-1.6146,-1.6137,-1.6137,-1.6137,-1.6137,-1.6137,-1.6202,-1.6324,-1.6349,-1.6742,-1.7552,-1.9913,-2.1787,-2.2655,-2.4661,-2.6691,-2.6935,-2.7131,-2.7429,-2.7749,-2.7602,-2.7714,-2.7749,-2.7936,-2.811,-2.8136,-2.8123,-2.815,-2.8123,-2.8136,-2.815,-2.815,-2.815,-2.815,-2.8123,-2.8136,-2.8123,-2.8136,-2.8096,-2.815,-2.815,-2.815,-2.815,-2.8096,-2.7762,-2.7428,-2.6109,-2.6109,-2.6109,-2.5977,-2.5771,-2.5771,-2.5811,-2.5908,-2.5781,-2.5853,-2.6134,-2.6626,-2.6928,-2.7201,-2.7201,-2.7188,-2.7134,-2.7134,-2.7148,0.0,-2.7148,-2.7161,-2.7201,-2.7201,-2.7228,-2.7268,-2.7268,-2.7402,-2.7615,-2.7629,-2.7789,-2.8043,-2.8083,-2.8096,-2.8136,-2.815,-2.827,-2.8537,-2.827,-2.815,-2.815,-2.815,-2.815,-2.815,-2.815,-2.815,-2.815,-2.815,-2.7981,-2.7474,-2.6796,-2.5239,-2.2654,-2.1618,-2.0066,-1.7981,-1.743,-1.7247,-1.7247,-1.7047,-1.6974,-1.682,-1.6674,-1.656,-1.6511,-1.6503,-1.6503,-1.6503,-1.6487,-1.6503,-1.6503,-1.6495,-1.6487,-1.6495,-1.6495,-1.6519,-1.6535,-1.6544,-1.7561,-2.0289,-2.0259,-2.1022,-2.3706,-2.3752,-2.417,-2.5373,-2.6268,-2.6343,-2.7693,-2.8043,-2.8043,-2.807,-2.811,-2.815,-2.815,-2.815,-2.815,-2.815,-2.815,-2.815,-2.815,-2.815,-2.815,-2.815,-2.815,-2.815,-2.815,-2.815,-2.815,-2.815,-2.815,-2.815,-2.815,-2.803,-2.7909,-2.6218,-2.6218,-2.6218,-2.6146,-2.6037,-2.6037,-2.6054,-2.5983,-2.586,-2.6161,-2.6762,-2.7249,-2.749,-2.7509,-2.7509,-2.7415,-2.7268,-2.7268,-2.7268,-2.7268,-2.7268,-2.7348,-2.7495,-2.7509,-2.7589,-2.7736,-2.7749,-2.7802,-2.7923,-2.7936,-2.8003,-2.8136,-2.815,-2.823,-2.839,-2.839,-2.8537,-2.8831,-2.8551,-2.847,-2.8617,-2.8631,-2.8631,-2.8631,-2.8631,-2.8631,-2.8631,-2.8631,-2.8379,-2.8063,-2.6999,-2.5885,-2.5409,-2.2298,-2.0395,-2.0047,-1.8147,-1.7112,-1.7112,-1.7112,-1.708,-1.6998,-1.6917,-1.6868,-1.6868,-1.669,-1.6584,-1.6584,-1.6584,-1.6584,-1.6584,-1.6584,-1.6584,-1.6584,-1.6584,-1.6625,-1.6714,-1.673,-1.7442,-1.9057,-1.959,-2.0647,-2.3302,-2.3835,-2.472,-2.6563,-2.6927,-2.7279,-2.8136,-2.815,-2.815,-2.8136,-2.815,-2.815,-2.815,-2.815,-2.815,-2.815,-2.815,-2.815,-2.815,-2.815,-2.815,-2.815,-2.815,-2.815,-2.815,-2.815,-2.815,-2.815,-2.815,-2.815,-2.815,-2.815,-2.8096,-2.6399,-2.6411,-2.6399,-2.6363,-2.6315,-2.6242,-2.6097,-2.5928,-2.609,-2.65,-2.7328,-2.7695,-2.768,-2.7649,-2.7636,-2.7682,-2.7482,-2.7468,-2.7468,-2.7468,-2.7468,-2.7589,-2.7776,-2.7789,-2.7923,-2.8123,-2.815,-2.815,-2.815,-2.815,-2.8177,-2.8243,-2.8243,-2.8404,-2.8698,-2.8711,-2.8845,-2.9112,-2.8911,-2.8885,-2.9032,-2.9045,-2.9045,-2.9045,-2.9032,-2.9045,-2.9045,-2.9045,-2.8938,-2.8724,-2.7279,-2.6648,-2.6961,-2.3075,-2.0811,-2.1149,-1.8689,-1.7112,-1.7112,-1.7112,-1.7112,-1.7112,-1.7112,-1.7112,-1.7088,-1.686,-1.6698,-1.6698,-1.6714,-1.6706,-1.6714,-1.6714,-1.6698,-1.6698,-1.6698,-1.6771,-1.6885,-1.6909,-1.7297,-1.8121,-1.97,-2.1241,-2.2966,-2.452,-2.5714,-2.6927,-2.7968,-2.815,-2.815,-2.815,-2.815,-2.815,-2.815,-2.815,-2.815,-2.815,-2.815,-2.815,-2.815,-2.815,-2.815,-2.815,-2.815,-2.815,-2.815,-2.815,-2.815,-2.815,-2.815,-2.815,-2.815,-2.815,-2.815,-2.815,-2.815,-2.6942,-2.6954,-2.6942,-2.681,-2.658,-2.6339,-2.6218,-2.6182,-2.6545,-2.6884,-2.6959,-2.6498,-2.6783,-2.7435,-2.7604,-2.7733,-2.8043,-2.8056,-2.8043,-2.8043,-2.8056,-2.807,-2.8083,-2.8096,-2.811,-2.815,-2.815,-2.815,-2.815,-2.8163,-2.8297,-2.8537,-2.8564,-2.8711,-2.8965,-2.9005,-2.9138,-2.9432,-2.9419,-2.9285,-2.9058,-2.9045,-2.9045,-2.9045,-2.9045,-2.9045,-2.9072,-2.9045,-2.9032,-2.9005,-2.8818,-2.7209,-2.4305,-2.3063,-2.1379,-1.8406,-1.7378,-1.7112,-1.7112,-1.7112,-1.7112,-1.7112,-1.7112,-1.7112,-1.7112,-1.708,-1.7055,-1.7039,-1.7055,-1.7206,-1.7063,-1.7222,-1.7372,-1.753,-1.7372,-1.7071,-1.7238,-1.7088,-1.8305,-2.176,-2.1932,-2.2966,-2.452,-2.5373,-2.5556,-2.5896,-2.7279,-2.815,-2.815,-2.815,-2.815,-2.815,-2.815,-2.815,-2.815,-2.815,-2.815,-2.815,-2.815,-2.815,-2.815,-2.815,-2.815,-2.815,-2.815,-2.815,-2.815,-2.815,-2.815,-2.815,-2.815,-2.815,-2.815,-2.815,-2.815,-2.7027,-2.7027,-2.7027,-2.6966,-2.6858,-2.6749,-2.6604,-2.6472,-2.6649,-2.6552,-2.6558,-2.6163,-2.6673,-2.738,-2.7382,-2.7643,-2.7812,-2.815,-2.815,-2.815,-2.815,-2.815,-2.815,-2.815,-2.815,-2.815,-2.815,-2.815,-2.8177,-2.8323,-2.8564,-2.8831,-2.8858,-2.9005,-2.9285,-2.9299,-2.9446,-2.9726,-2.974,-2.9673,-2.9566,-2.9553,-2.9553,-2.9553,-2.9553,-2.9553,-2.9553,-2.9566,-2.9472,-2.9325,-2.9299,-2.8504,-2.6733,-2.4481,-2.2486,-2.0889,-1.8601,-1.7274,-1.7274,-1.7169,-1.7112,-1.7112,-1.7112,-1.7112,-1.7112,-1.7112,-1.7112,-1.7288,-1.8147,-1.8663,-1.8837,-1.97,-2.0385,-2.0385,-2.0385,-2.0211,-2.0385,-2.0211,-2.1078,-2.2449,-2.2622,-2.3309,-2.5032,-2.6406,-2.6418,-2.5896,-2.6927,-2.8136,-2.815,-2.815,-2.815,-2.815,-2.815,-2.815,-2.815,-2.815,-2.815,-2.815,-2.815,-2.815,-2.815,-2.815,-2.815,-2.815,-2.815,-2.815,-2.815,-2.815,-2.815,-2.815,-2.815,-2.815,-2.815,-2.815,-2.815,-2.7027,-2.7027,-2.7027,-2.7027,-2.7027,-2.7027,-2.6918,-2.6761,-2.6749,-2.6629,-2.6447,-2.6363,-2.6582,-2.7071,-2.7324,-2.7367,-2.7709,-2.797,-2.827,-2.8257,-2.819,-2.815,-2.815,-2.8243,-2.827,-2.8283,-2.8364,-2.8404,-2.8417,-2.8604,-2.8871,-2.9125,-2.9165,-2.9312,-2.9579,-2.9606,-2.9713,-2.9887,-2.9913,-2.9913,-2.99,-2.9913,-2.9913,-2.9913,-2.9913,-2.9913,-2.9913,-2.9913,-2.982,-2.9606,-2.9606,-2.9322,-2.8393,-2.5796,-2.3941,-2.3155,-1.9651,-1.7632,-1.8161,-1.7687,-1.7258,-1.725,-1.7218,-1.7185,-1.7177,-1.7136,-1.7112,-1.7279,-1.8837,-1.97,-1.9351,-2.0385,-2.1068,-2.1078,-2.1078,-2.1078,-2.0905,-2.1068,-2.1078,-2.176,-2.2277,-2.3309,-2.5203,-2.6927,-2.7448,-2.6066,-2.694,-2.815,-2.815,-2.815,-2.815,-2.815,-2.815,-2.815,-2.815,-2.815,-2.815,-2.815,-2.815,-2.815,-2.815,-2.815,-2.815,-2.815,-2.815,-2.815,-2.815,-2.815,-2.815,-2.815,-2.815,-2.815,-2.815,-2.815,-2.815,-2.7027,-2.7027,-2.7027,-2.7027,-2.7027,-2.7027,-2.7027,-2.6979,-2.7003,-2.6991,-2.6918,-2.6725,-2.6616,-2.6746,-2.6832,-2.7409,-2.8069,-2.7995,-2.8063,-2.8379,-2.831,-2.8163,-2.8163,-2.8444,-2.8577,-2.8604,-2.8804,-2.8951,-2.8978,-2.9018,-2.9165,-2.9446,-2.9459,-2.9606,-2.9833,-2.986,-2.99,-2.9913,-2.9913,-2.9913,-2.9913,-2.9913,-2.9913,-2.9913,-2.9913,-2.9913,-2.9913,-2.9913,-2.99,-2.9887,-2.9873,-2.913,-2.7267,-2.6689,-2.538,-2.3386,-1.9779,-1.8527,-1.9949,-1.8853,-1.7764,-1.7764,-1.7803,-1.755,-1.789,-1.7764,-1.7689,-1.7296,-1.9241,-1.9572,-1.8182,-1.8514,-1.8488,-1.8663,-1.7972,-1.8147,-1.7797,-1.9012,-1.8313,-2.0211,-2.2105,-2.3652,-2.5373,-2.7096,-2.7109,-2.6248,-2.7096,-2.815,-2.815,-2.815,-2.815,-2.815,-2.815,-2.815,-2.815,-2.815,-2.815,-2.815,-2.815,-2.815,-2.815,-2.815,-2.815,-2.815,-2.815,-2.815,-2.815,-2.815,-2.815,-2.815,-2.815,-2.815,-2.815,-2.815,-2.815,-2.7184,-2.7027,-2.7027,-2.7027,-2.7027,-2.7027,-2.7027,-2.7027,-2.7027,-2.7027,-2.7015,-2.693,-2.6894,-2.6882,-2.6965,-2.709,-2.746,-2.7533,-2.7843,-2.8004,-2.7901,-2.7849,-2.7862,-2.8139,-2.8351,-2.8551,-2.8818,-2.9138,-2.9312,-2.9325,-2.9472,-2.9713,-2.9766,-2.982,-2.99,-2.9913,-2.9913,-2.9913,-2.9913,-2.9913,-2.9913,-2.9913,-2.9913,-2.9913,-2.9913,-2.9913,-2.9913,-2.9913,-2.9913,-2.9913,-2.9913,-2.8989,-2.7148,-2.5615,-2.4074,-2.2343,-2.1669,-2.1951,-2.2291,-2.0753,-2.0138,-2.1194,-2.0073,-1.9857,-2.1077,-2.1195,-2.1146,-2.1313,-2.1666,-2.1852,-2.1439,-2.09,-2.1597,-2.3481,-2.3148,-2.2126,-2.2632,-2.3481,-2.3995,-2.3835,-2.5032,-2.6066,-2.5726,-2.7096,-2.7448,-2.6066,-2.7096,-2.7968,-2.815,-2.815,-2.815,-2.815,-2.815,-2.815,-2.815,-2.815,-2.815,-2.815,-2.815,-2.815,-2.815,-2.815,-2.815,-2.815,-2.815,-2.815,-2.815,-2.815,-2.815,-2.815,-2.815,-2.815,-2.815,-2.815,-2.815,-2.7389,-2.7172,-2.716,-2.7111,-2.7027,-2.7027,-2.7027,-2.7027,-2.7027,-2.7027,-2.7027,-2.7027,-2.7027,-2.7027,-2.7027,-2.7026,-2.7029,-2.7284,-2.7599,-2.7762,-2.7686,-2.7635,-2.7661,-2.825,-2.8465,-2.8491,-2.911,-2.9066,-2.8691,-2.8704,-2.845,-2.7883,-2.8076,-2.7895,-2.8076,-2.8088,-2.7908,-2.8076,-2.8629,-2.8989,-2.9002,-2.9554,-2.9913,-2.9913,-2.9913,-2.9913,-2.9913,-2.9913,-2.9913,-2.9913,-2.9913,-2.8989,-2.6979,-2.4419,-2.277,-2.2198,-2.1896,-2.2353,-2.2525,-2.0953,-2.0343,-2.158,-2.0629,-2.0421,-2.1481,-2.1591,-2.1552,-2.1552,-2.1552,-2.173,-2.2203,-2.1459,-2.25,-2.5639,-2.5454,-2.4718,-2.466,-2.5689,-2.5811,-2.5397,-2.6066,-2.6418,-2.5896,-2.7109,-2.7096,-2.5714,-2.7096,-2.8136,-2.815,-2.815,-2.815,-2.815,-2.815,-2.815,-2.815,-2.815,-2.8163,-2.8163,-2.815,-2.815,-2.815,-2.815,-2.815,-2.815,-2.815,-2.815,-2.815,-2.815,-2.815,-2.815,-2.815,-2.815,-2.815,-2.815,-2.815,-2.7655,-2.7437,-2.7425,-2.7268,-2.7075,-2.7039,-2.7027,-2.7027,-2.7027,-2.7027,-2.7027,-2.7027,-2.7027,-2.7027,-2.7027,-2.7003,-2.7099,-2.7263,-2.7521,-2.7852,-2.7637,-2.7536,-2.7561,-2.8307,-2.8765,-2.8778,-2.9575,-2.8783,-2.7304,-2.7123,-2.6411,-2.4602,-2.4602,-2.4785,-2.4237,-2.4602,-2.4419,-2.4785,-2.6241,-2.6966,-2.716,-2.8809,-2.9734,-2.9913,-2.9913,-2.9913,-2.9913,-2.9913,-2.9913,-2.9913,-2.9913,-2.8989,-2.6785,-2.3677,-2.2034,-2.2954,-2.0557,-1.9639,-2.0917,-1.9798,-1.8845,-1.9384,-1.8551,-1.8643,-1.934,-1.9045,-1.8949,-1.9491,-1.913,-1.9103,-2.0544,-1.9977,-2.029,-2.2778,-2.36,-2.3336,-2.3206,-2.3152,-2.3771,-2.5323,-2.5982,-2.558,-2.5921,-2.7212,-2.7591,-2.6702,-2.7212,-2.827,-2.8297,-2.8297,-2.8203,-2.8203,-2.8297,-2.8377,-2.827,-2.8163,-2.819,-2.819,-2.8163,-2.815,-2.815,-2.815,-2.815,-2.815,-2.815,-2.815,-2.815,-2.815,-2.815,-2.815,-2.815,-2.815,-2.815,-2.815,-2.815,-2.7932,-2.7679,-2.7498,-2.7377,-2.728,-2.7111,-2.7027,-2.7027,-2.7027,-2.7027,-2.7027,-2.7027,-2.7027,-2.7027,-2.7027,-2.7027,-2.7015,-2.7111,-2.7267,-2.7243,-2.7169,-2.712,-2.7324,-2.7745,-2.8322,-2.9065,-2.9681,-2.8809,-2.7341,-2.6979,-2.606,-2.4419,-2.3871,-2.4054,-2.3871,-2.4054,-2.4054,-2.4054,-2.4602,-2.5514,-2.6785,-2.7521,-2.8449,-2.9734,-2.9913,-2.9913,-2.9913,-2.9913,-2.9913,-2.9913,-2.9913,-2.9002,-2.6979,-2.4591,-2.3504,-2.3871,-2.2954,-2.2402,-2.2586,-2.1306,-2.0566,-2.1471,-2.087,-2.0842,-2.1935,-2.1866,-2.2353,-2.3262,-2.292,-2.2738,-2.4371,-2.4541,-2.3677,-2.3365,-2.2087,-2.173,-2.2183,-2.2683,-2.4612,-2.7195,-2.7875,-2.7875,-2.7875,-2.8565,-2.8353,-2.7836,-2.8366,-2.8724,-2.8738,-2.8698,-2.8764,-2.8764,-2.8751,-2.8671,-2.8617,-2.8577,-2.8591,-2.8511,-2.8404,-2.8337,-2.8297,-2.8283,-2.8257,-2.8243,-2.823,-2.8203,-2.819,-2.8177,-2.8203,-2.815,-2.815,-2.815,-2.815,-2.815,-2.815,-2.8198,-2.7944,-2.7775,-2.7582,-2.7413,-2.7244,-2.7111,-2.7039,-2.7027,-2.7027,-2.7027,-2.7027,-2.7027,-2.7027,-2.7027,-2.7027,-2.7027,-2.7027,-2.7027,-2.7027,-2.7027,-2.7027,-2.7027,-2.7558,-2.8281,-2.9002,-2.9541,-2.8269,-2.606,-2.5878,-2.4602,-2.2218,-2.185,-2.185,-2.185,-2.185,-2.2034,-2.277,-2.2954,-2.4237,-2.6423,-2.6979,-2.7883,-2.9541,-2.9913,-2.9913,-2.9913,-2.9913,-2.9554,-2.8809,-2.8269,-2.7341,-2.6785,-2.515,-2.3687,-2.2954,-2.277,-2.2586,-2.185,-2.0381,-2.0381,-2.1296,-2.0751,-2.0381,-2.1665,-2.2218,-2.3687,-2.4226,-2.4215,-2.4419,-2.5503,-2.5866,-2.5173,-2.3644,-2.4162,-2.3738,-2.4029,-2.4629,-2.6182,-2.8295,-2.8831,-2.9045,-2.9045,-2.9045,-2.9045,-2.9045,-2.9045,-2.9045,-2.9045,-2.9018,-2.9045,-2.9058,-2.8978,-2.8951,-2.9005,-2.9005,-2.9005,-2.8871,-2.8724,-2.8671,-2.8617,-2.8631,-2.8617,-2.8631,-2.8617,-2.8511,-2.8484,-2.839,-2.8364,-2.827,-2.8203,-2.815,-2.815,-2.815,-2.815,-2.8463,-2.8234,-2.821,-2.7896,-2.7486,-2.7413,-2.7256,-2.7051,-2.7027,-2.7027,-2.7027,-2.7027,-2.7027,-2.7027,-2.7027,-2.7027,-2.7027,-2.7027,-2.7027,-2.7027,-2.7027,-2.7027,-2.7027,-2.7558,-2.8281,-2.9002,-2.9182,-2.7534,-2.4967,-2.4785,-2.2218,-1.9834,-1.9462,-1.8541,-1.9276,-1.8541,-1.9834,-2.1306,-2.1481,-2.3494,-2.6785,-2.6979,-2.7883,-2.9734,-2.9913,-2.9913,-2.9913,-2.9541,-2.8809,-2.7341,-2.5878,-2.5696,-2.6241,-2.515,-2.3321,-2.185,-2.149,-2.0751,-1.9276,-1.9276,-1.9091,-1.9648,-1.9099,-1.8363,-1.9276,-2.0751,-2.185,-2.2218,-2.3321,-2.4237,-2.4419,-2.4602,-2.458,-2.4956,-2.634,-2.7708,-2.8981,-2.8556,-2.8491,-2.8802,-2.9098,-2.9112,-2.9179,-2.9165,-2.9165,-2.9165,-2.9179,-2.9205,-2.9205,-2.9232,-2.9138,-2.9165,-2.9259,-2.9285,-2.9366,-2.9366,-2.9366,-2.9325,-2.9152,-2.9032,-2.8911,-2.8885,-2.8885,-2.8911,-2.8951,-2.8845,-2.8751,-2.8657,-2.8564,-2.8484,-2.8364,-2.8217,-2.819,-2.8243,-2.819,-2.8584,-2.8487,-2.8282,-2.8005,-2.7691,-2.751,-2.728,-2.7039,-2.7027,-2.7027,-2.7027,-2.7027,-2.7027,-2.7027,-2.7027,-2.7027,-2.7027,-2.7027,-2.7027,-2.7027,-2.7027,-2.7027,-2.7027,-2.7558,-2.8101,-2.8655,-2.9002,-2.8076,-2.6423,-2.606,-2.4774,-2.2586,-2.0936,-2.0381,-2.0381,-2.0381,-2.0566,-2.1296,-2.2586,-2.4408,-2.6604,-2.6966,-2.7895,-2.9721,-2.9913,-2.9913,-2.9734,-2.8449,-2.8436,-2.9002,-2.7341,-2.6423,-2.6785,-2.515,-2.3687,-2.3137,-2.2954,-2.2954,-2.2218,-2.0936,-2.0936,-2.2034,-2.0019,-1.8913,-2.0196,-2.0751,-2.185,-2.277,-2.3871,-2.4785,-2.5878,-2.6241,-2.6797,-2.7895,-2.7172,-2.6761,-2.7591,-2.7541,-2.8041,-2.9317,-2.9659,-2.9633,-2.9633,-2.9633,-2.9633,-2.9633,-2.9633,-2.9633,-2.9566,-2.9579,-2.9539,-2.9646,-2.9713,-2.9713,-2.9713,-2.9713,-2.9726,-2.974,-2.9619,-2.9432,-2.9245,-2.9058,-2.9032,-2.9018,-2.9138,-2.9098,-2.9018,-2.8925,-2.8818,-2.8711,-2.8711,-2.8644,-2.8524,-2.8497,-2.835,-2.862,-2.8608,-2.8451,-2.8222,-2.7956,-2.7691,-2.7437,-2.7208,-2.7075,-2.7027,-2.7027,-2.7027,-2.7027,-2.7027,-2.7027,-2.7027,-2.7027,-2.7027,-2.7027,-2.7027,-2.7027,-2.7027,-2.7027,-2.7377,-2.7752,-2.8474,-2.8835,-2.8088,-2.716,-2.6979,-2.5878,-2.4054,-2.2954,-2.2402,-2.2402,-2.2402,-2.276,-2.3494,-2.4054,-2.5332,-2.7883,-2.7341,-2.8076,-2.9541,-2.9913,-2.9913,-2.9734,-2.8809,-2.8809,-2.9182,-2.8076,-2.6979,-2.6979,-2.606,-2.4602,-2.3137,-2.277,-2.277,-2.2586,-2.1665,-2.2034,-2.3321,-2.1665,-2.0936,-2.1481,-2.2402,-2.4226,-2.3871,-2.5332,-2.6979,-2.7895,-2.8256,-2.8809,-2.9182,-2.7895,-2.6979,-2.8076,-2.8424,-2.8809,-2.9541,-2.9913,-2.9913,-2.9913,-2.9913,-2.9913,-2.99,-2.986,-2.986,-2.986,-2.9913,-2.9913,-2.9913,-2.9913,-2.9847,-2.982,-2.982,-2.982,-2.986,-2.9847,-2.97,-2.9566,-2.9325,-2.9366,-2.9379,-2.9392,-2.9366,-2.9285,-2.9192,-2.9098,-2.9045,-2.9085,-2.9005,-2.8858,-2.8671,-2.8524,-2.862,-2.862,-2.862,-2.8463,-2.8174,-2.792,-2.763,-2.7389,-2.7135,-2.7027,-2.7027,-2.7027,-2.7027,-2.7027,-2.7027,-2.7027,-2.7027,-2.7027,-2.7027,-2.7027,-2.7027,-2.7027,-2.7027,-2.7027,-2.7571,-2.8294,-2.8474,-2.8101,-2.7715,-2.7521,-2.6604,-2.5332,-2.4785,-2.4237,-2.4237,-2.4237,-2.5332,-2.606,-2.5696,-2.6616,-2.8809,-2.8436,-2.8449,-2.9541,-2.9913,-2.9913,-2.9913,-2.9734,-2.9913,-2.9913,-2.8076,-2.716,-2.6966,-2.6966,-2.5138,-2.2576,-2.2034,-2.185,-2.1481,-2.1665,-2.185,-2.3321,-2.3321,-2.3137,-2.2218,-2.4054,-2.5332,-2.4785,-2.7715,-2.9182,-2.9541,-2.9734,-2.9734,-2.9913,-2.9734,-2.9734,-2.9913,-2.9913,-2.9913,-2.9913,-2.9913,-2.9913,-2.9913,-2.9913,-2.9913,-2.9913,-2.9913,-2.9913,-2.9913,-2.9913,-2.9913,-2.9913,-2.9913,-2.9913,-2.99,-2.99,-2.99,-2.99,-2.99,-2.9833,-2.9833,-2.9726,-2.9806,-2.982,-2.9686,-2.9606,-2.9553,-2.9472,-2.9379,-2.9366,-2.9379,-2.9245,-2.9085,-2.8871,-2.8698,-2.862,-2.862,-2.862,-2.8463,-2.8186,-2.792,-2.7667,-2.7401,-2.7148,-2.7027,-2.7027,-2.7027,-2.7027,-2.7027,-2.7027,-2.7027,-2.7027,-2.7027,-2.7027,-2.7027,-2.7027,-2.7027,-2.7027,-2.7027,-2.739,-2.792,-2.8294,-2.8462,-2.8629,-2.8809,-2.9002,-2.8449,-2.6797,-2.6423,-2.6241,-2.6241,-2.6423,-2.716,-2.7895,-2.8629,-2.9362,-2.9541,-2.9362,-2.9913,-2.9913,-2.9913,-2.9913,-2.9913,-2.9913,-2.9362,-2.8256,-2.716,-2.6785,-2.5696,-2.4419,-2.3321,-2.3137,-2.3137,-2.3137,-2.2034,-2.185,-2.3504,-2.2034,-2.0566,-2.3321,-2.4054,-2.5332,-2.6241,-2.8449,-2.9541,-2.9913,-2.9913,-2.9913,-2.9913,-2.9913,-2.9913,-2.9913,-2.9913,-2.9913,-2.9913,-2.9913,-2.9913,-2.9913,-2.9913,-2.9913,-2.9913,-2.9913,-2.9913,-2.9913,-2.9913,-2.9913,-2.9913,-2.9913,-2.9913,-2.9913,-2.9913,-2.9913,-2.9913,-2.9913,-2.9913,-2.9913,-2.9913,-2.9913,-2.9913,-2.9887,-2.982,-2.9726,-2.9766,-2.9686,-2.9686,-2.9659,-2.9539,-2.9379,-2.9125,-2.8871,-2.862,-2.862,-2.862,-2.8463,-2.8186,-2.792,-2.7667,-2.7401,-2.7148,-2.7027,-2.7027,-2.7027,-2.7027,-2.7027,-2.7027,-2.7027,-2.7027,-2.7027,-2.7027,-2.7027,-2.7027,-2.7027,-2.7027,-2.7027,-2.7196,-2.7739,-2.792,-2.8462,-2.8835,-2.9015,-2.9015,-2.9195,-2.8088,-2.7727,-2.7727,-2.7895,-2.8076,-2.8256,-2.9182,-2.9913,-2.9913,-2.9913,-2.9913,-2.9913,-2.9913,-2.9913,-2.9913,-2.9913,-2.9913,-2.9721,-2.8809,-2.7883,-2.7148,-2.5878,-2.4591,-2.2954,-2.2586,-2.2586,-2.2218,-2.185,-2.185,-2.3687,-2.185,-2.185,-2.277,-2.3321,-2.3871,-2.4785,-2.6604,-2.8809,-2.9734,-2.9913,-2.9913,-2.9913,-2.9913,-2.9913,-2.9913,-2.9913,-2.9913,-2.9913,-2.9913,-2.9913,-2.9913,-2.9913,-2.9913,-2.9913,-2.9913,-2.9913,-2.9913,-2.9913,-2.9913,-2.9913,-2.9913,-2.9913,-2.9913,-2.9913,-2.9913,-2.9913,-2.9913,-2.9913,-2.9913,-2.9913,-2.9913,-2.994,-2.9967,-2.9913,-2.986,-2.9913,-2.9953,-2.9873,-2.982,-2.9793,-2.9633,-2.9312,-2.9072,-2.862,-2.862,-2.862,-2.8463,-2.8186,-2.792,-2.7655,-2.7401,-2.7148,-2.7027,-2.7027,-2.7027,-2.7027,-2.7027,-2.7027,-2.7027,-2.7027,-2.7027,-2.7027,-2.7027,-2.7027,-2.7027,-2.7027,-2.7027,-2.7208,-2.7558,-2.7739,-2.792,-2.8294,-2.8474,-2.8655,-2.8474,-2.8474,-2.8294,-2.8474,-2.8835,-2.9002,-2.9002,-2.9362,-2.9734,-2.9913,-2.9913,-2.9913,-2.9913,-2.9913,-2.9913,-2.9913,-2.9913,-2.9913,-2.9913,-2.9913,-2.8989,-2.7883,-2.6785,-2.5503,-2.185,-2.1665,-2.1121,-2.0751,-2.0566,-2.1121,-2.3137,-2.2954,-2.2402,-2.185,-2.2402,-2.277,-2.331,-2.4774,-2.7341,-2.9182,-2.9182,-2.9362,-2.9734,-2.9913,-2.9913,-2.9913,-2.9913,-2.9913,-2.9913,-2.9913,-2.9913,-2.9913,-2.9913,-2.9913,-2.9913,-2.9913,-2.9913,-2.9913,-2.9913,-2.9913,-2.9913,-2.9913,-2.9913,-2.9913,-2.9913,-2.9913,-2.9913,-2.9913,-2.9927,-2.994,-3.0034,-3.006,-3.0034,-3.0034,-3.0034,-3.01,-3.0221,-3.0207,-3.006,-3.006,-3.0154,-2.9887,-2.9486,-2.9245,-2.862,-2.862,-2.862,-2.8463,-2.8186,-2.792,-2.7642,-2.7401,-2.7135,-2.7027,-2.7027,-2.7027,-2.7027,-2.7027,-2.7027,-2.7027,-2.7027,-2.7027,-2.7027,-2.7027,-2.7027,-2.7027,-2.7027,-2.7027,-2.7027,-2.7196,-2.7377,-2.7739,-2.792,-2.8294,-2.8294,-2.8474,-2.8474,-2.8474,-2.8474,-2.8655,-2.8822,-2.9002,-2.9362,-2.9541,-2.9913,-2.9913,-2.9913,-2.9913,-2.9913,-2.9913,-2.9913,-2.9913,-2.9913,-2.9913,-2.9913,-2.9734,-2.9002,-2.7895,-2.606,-2.386,-2.2034,-2.0936,-1.9648,-1.8913,-1.8913,-1.9099,-1.9462,-2.0381,-2.0751,-2.1296,-2.185,-2.3137,-2.3687,-2.5332,-2.716,-2.7702,-2.8436,-2.9182,-2.9913,-2.9913,-2.9913,-2.9913,-2.9913,-2.9913,-2.9913,-2.9913,-2.9913,-2.9913,-2.9913,-2.9913,-2.9913,-2.9913,-2.9913,-2.9913,-2.9913,-2.9913,-2.9913,-2.9913,-2.9913,-2.9913,-2.9913,-2.9913,-2.9927,-2.9953,-3.002,-3.0194,-3.0247,-3.0341,-3.0354,-3.0368,-3.0448,-3.0528,-3.0528,-3.0448,-3.0488,-3.0541,-3.0154,-2.974,-2.9339,-2.862,-2.8608,-2.8475,-2.8246,-2.798,-2.7715,-2.7461,-2.722,-2.7087,-2.7027,-2.7027,-2.7027,-2.7027,-2.7027,-2.7027,-2.7027,-2.7027,-2.7027,-2.7027,-2.7027,-2.7027,-2.7027,-2.7027,-2.7027,-2.7027,-2.7027,-2.7196,-2.7377,-2.7377,-2.7571,-2.7752,-2.7752,-2.7752,-2.7752,-2.7752,-2.792,-2.8281,-2.8822,-2.9002,-2.9362,-2.9913,-2.9913,-2.9913,-2.9913,-2.9913,-2.9913,-2.9913,-2.9913,-2.9913,-2.9913,-2.9913,-2.9913,-2.9554,-2.8989,-2.7521,-2.5696,-2.3677,-2.1665,-1.9639,-1.8719,-1.8176,-1.7989,-1.7989,-1.8549,-1.9285,-1.9648,-2.0566,-2.185,-2.2586,-2.3321,-2.515,-2.6241,-2.7341,-2.8256,-2.9182,-2.9734,-2.9913,-2.9913,-2.9913,-2.9913,-2.9913,-2.9913,-2.9913,-2.9913,-2.9913,-2.9913,-2.9913,-2.9913,-2.9913,-2.9913,-2.9913,-2.9913,-2.9913,-2.9913,-2.9913,-2.9913,-2.9913,-2.9913,-2.994,-2.9967,-3.0114,-3.0301,-3.0581,-3.0808,-3.0795,-3.0728,-3.0675,-3.0702,-3.0768,-3.0808,-3.0755,-3.0635,-3.0354,-3.0007,-2.9579,-2.8596,-2.8524,-2.8294,-2.8017,-2.7727,-2.751,-2.728,-2.7063,-2.7039,-2.7027,-2.7027,-2.7027,-2.7027,-2.7027,-2.7027,-2.7027,-2.7027,-2.7027,-2.7027,-2.7027,-2.7027,-2.7027,-2.7027,-2.7027,-2.7027,-2.7027,-2.7027,-2.7027,-2.7027,-2.7027,-2.7027,-2.7208,-2.7027,-2.7027,-2.7208,-2.739,-2.7933,-2.8281,-2.8835,-2.9375,-2.9734,-2.9913,-2.9913,-2.9913,-2.9913,-2.9734,-2.9182,-2.9734,-2.9541,-2.9362,-2.9554,-2.9913,-2.9913,-2.9913,-2.9182,-2.7521,-2.5332,-2.2943,-2.0917,-1.8719,-1.7803,-1.7803,-1.7803,-1.7989,-1.8363,-1.8541,-1.8913,-2.001,-2.0566,-2.1296,-2.2943,-2.4591,-2.5503,-2.6604,-2.7883,-2.9169,-2.9169,-2.9362,-2.9913,-2.9913,-2.9913,-2.9913,-2.9913,-2.9913,-2.9913,-2.9913,-2.9913,-2.9913,-2.9913,-2.9913,-2.9913,-2.9913,-2.9913,-2.9913,-2.9913,-2.9913,-2.9913,-2.9913,-2.9953,-2.9993,-3.0194,-3.0421,-3.0728,-3.1022,-3.1169,-3.1089,-3.0996,-3.0929,-3.1036,-3.1049,-3.0942,-3.0715,-3.0408,-3.01,-2.9713,-2.8475,-2.8246,-2.821,-2.792,-2.7498,-2.7425,-2.7268,-2.7051,-2.7027,-2.7027,-2.7027,-2.7027,-2.7027,-2.7027,-2.7027,-2.7027,-2.7027,-2.7027,-2.7027,-2.7027,-2.7027,-2.7027,-2.7027,-2.7027,-2.7027,-2.7027,-2.7027,-2.7027,-2.7027,-2.7027,-2.7027,-2.7027,-2.7027,-2.7027,-2.7027,-2.7208,-2.739,-2.7739,-2.8281,-2.8835,-2.9554,-2.9541,-2.9541,-2.9541,-2.9362,-2.8989,-2.7895,-2.8629,-2.8809,-2.7883,-2.8989,-2.9734,-2.9913,-2.9913,-2.9913,-2.8629,-2.6241,-2.3137,-2.1111,-1.8905,-1.7616,-1.7616,-1.7616,-1.7803,-1.7989,-1.7989,-1.7989,-1.7616,-1.8354,-1.9276,-2.0557,-2.1093,-2.2198,-2.3849,-2.5866,-2.6773,-2.7148,-2.9362,-2.9734,-2.9734,-2.9734,-2.9734,-2.9734,-2.9913,-2.9913,-2.9913,-2.9913,-2.9913,-2.9913,-2.9913,-2.9913,-2.9913,-2.9913,-2.9913,-2.9913,-2.9913,-2.9913,-2.9913,-2.9953,-3.0034,-3.0341,-3.0595,-3.0822,-3.1089,-3.1263,-3.133,-3.1183,-3.1169,-3.1316,-3.1209,-3.0982,-3.0728,-3.0448,-3.0127,-2.986,-2.8318,-2.8174,-2.7884,-2.763,-2.7413,-2.7268,-2.7135,-2.7051,-2.7027,-2.7027,-2.7027,-2.7027,-2.7027,-2.7027,-2.7027,-2.7027,-2.7027,-2.7027,-2.7027,-2.7027,-2.7027,-2.7027,-2.7027,-2.7027,-2.7027,-2.7027,-2.7027,-2.7027,-2.7027,-2.7027,-2.7027,-2.7027,-2.7027,-2.7027,-2.7027,-2.7027,-2.739,-2.7558,-2.7546,-2.7546,-2.7546,-2.7172,-2.6616,-2.6616,-2.6616,-2.6797,-2.6979,-2.6253,-2.6979,-2.6423,-2.716,-2.6435,-2.6797,-2.7341,-2.7895,-2.6253,-2.515,-2.331,-2.184,-1.9091,-1.7803,-1.7242,-1.7242,-1.7242,-1.7616,-1.7429,-1.7429,-1.7437,-1.7624,-1.7981,-1.871,-1.9622,-2.0353,-2.183,-2.3849,-2.5309,-2.6411,-2.8629,-2.9913,-2.9734,-2.9554,-2.9554,-2.9554,-2.9734,-2.9734,-2.9913,-2.9913,-2.9913,-2.9913,-2.9913,-2.9913,-2.9913,-2.9913,-2.9913,-2.9913,-2.9913,-2.9913,-2.9913,-2.9913,-3.0087,-3.0488,-3.0782,-3.0902,-3.1062,-3.1209,-3.1263,-3.1263,-3.1236,-3.1196,-3.1102,-3.0982,-3.0675,-3.0394,-3.0341,-2.998,-2.8005,-2.7968,-2.7582,-2.7389,-2.7317,-2.7111,-2.7027,-2.7027,-2.7027,-2.7027,-2.7027,-2.7027,-2.7027,-2.7027,-2.7027,-2.7027,-2.7027,-2.7027,-2.7027,-2.7027,-2.7027,-2.7027,-2.7027,-2.7027,-2.7027,-2.7027,-2.7027,-2.7027,-2.7027,-2.7027,-2.7027,-2.7027,-2.7027,-2.7027,-2.7027,-2.7027,-2.7027,-2.664,-2.6265,-2.5889,-2.5514,-2.4591,-2.4237,-2.4054,-2.4054,-2.4408,-2.5138,-2.4967,-2.515,-2.4591,-2.4785,-2.4602,-2.4785,-2.5514,-2.5696,-2.4602,-2.3504,-2.2576,-2.0917,-1.8896,-1.7421,-1.7055,-1.6868,-1.7055,-1.7055,-1.6868,-1.6681,-1.6868,-1.7242,-1.6868,-1.7048,-1.8338,-1.8524,-1.9992,-2.2188,-2.3849,-2.5684,-2.7895,-2.9195,-2.9195,-2.9015,-2.9015,-2.9195,-2.9554,-2.9734,-2.9913,-2.9913,-2.9913,-2.9913,-2.9913,-2.9913,-2.9913,-2.9913,-2.9913,-2.9913,-2.9913,-2.9913,-2.99,-2.99,-3.0074,-3.0448,-3.0648,-3.0742,-3.0915,-3.1102,-3.0996,-3.0862,-3.0955,-3.1036,-3.0835,-3.0662,-3.0515,-3.0354,-3.0314,-3.0087,-2.7473,-2.7473,-2.7437,-2.728,-2.7075,-2.7039,-2.7027,-2.7027,-2.7027,-2.7027,-2.7027,-2.7027,-2.7027,-2.7027,-2.7027,-2.7027,-2.7027,-2.7027,-2.7027,-2.7027,-2.7027,-2.7027,-2.7027,-2.7027,-2.7027,-2.7027,-2.7027,-2.7027,-2.7027,-2.7027,-2.7027,-2.7027,-2.7027,-2.7027,-2.7027,-2.7027,-2.6276,-2.5719,-2.4978,-2.4237,-2.3677,-2.3116,-2.3127,-2.3504,-2.3687,-2.3321,-2.185,-2.2954,-2.3321,-2.2392,-2.277,-2.3137,-2.3137,-2.3871,-2.3687,-2.2954,-2.2402,-2.1296,-1.963,-1.8338,-1.7608,-1.7616,-1.7429,-1.6868,-1.6681,-1.6681,-1.6494,-1.6306,-1.6494,-1.6494,-1.6126,-1.6119,-1.686,-1.7965,-2.0168,-2.2382,-2.4408,-2.7172,-2.8462,-2.8474,-2.8474,-2.8474,-2.8642,-2.8822,-2.9375,-2.9554,-2.9913,-2.9913,-2.9913,-2.9913,-2.9913,-2.9913,-2.9913,-2.9913,-2.9913,-2.9913,-2.9913,-2.9873,-2.9833,-3.0047,-3.0341,-3.0461,-3.0488,-3.0675,-3.0808,-3.0635,-3.0501,-3.0581,-3.0595,-3.0461,-3.0341,-3.0247,-3.0167,-3.01,-2.99,-2.7329,-2.7184,-2.7184,-2.7123,-2.7027,-2.7027,-2.7027,-2.7027,-2.7027,-2.7027,-2.7027,-2.7027,-2.7027,-2.7027,-2.7027,-2.7027,-2.7027,-2.7027,-2.7027,-2.7027,-2.7027,-2.7027,-2.7027,-2.7027,-2.7027,-2.7027,-2.7027,-2.7027,-2.7027,-2.7027,-2.7027,-2.7027,-2.7027,-2.7027,-2.7027,-2.6845,-2.5913,-2.4613,-2.3515,-2.278,-2.1111,-2.0372,-2.0196,-2.0381,-2.185,-2.185,-2.1296,-2.185,-2.1665,-2.1306,-2.0936,-2.0751,-2.1111,-2.1665,-2.1665,-2.1121,-2.0751,-2.001,-1.8532,-1.7234,-1.6681,-1.6306,-1.6306,-1.6501,-1.6314,-1.5931,-1.5931,-1.5931,-1.6119,-1.5938,-1.5556,-1.5751,-1.6119,-1.6673,-1.833,-2.0723,-2.2933,-2.5707,-2.7365,-2.7365,-2.7739,-2.792,-2.8101,-2.8101,-2.8822,-2.9362,-2.9554,-2.9913,-2.9913,-2.9913,-2.9913,-2.9913,-2.9913,-2.9913,-2.9913,-2.9913,-2.9913,-2.9833,-2.9766,-2.9913,-3.0087,-3.0114,-3.0167,-3.0368,-3.0488,-3.0368,-3.0274,-3.0234,-3.0194,-3.0167,-3.0114,-3.0047,-2.9967,-2.9913,-2.9766,-2.7196,-2.7039,-2.7027,-2.7027,-2.7027,-2.7027,-2.7027,-2.7027,-2.7027,-2.7027,-2.7027,-2.7027,-2.7027,-2.7027,-2.7027,-2.7027,-2.7027,-2.7027,-2.7027,-2.7027,-2.7027,-2.7027,-2.7027,-2.7027,-2.7027,-2.7027,-2.7027,-2.7027,-2.7027,-2.7027,-2.7027,-2.7027,-2.7027,-2.7027,-2.6845,-2.6288,-2.5172,-2.3515,-2.2044,-2.0575,-1.8905,-1.8354,-1.8354,-1.8541,-1.9648,-2.0566,-2.0566,-2.0751,-2.0751,-2.0196,-1.9648,-1.8549,-1.8727,-1.9099,-1.9276,-1.9091,-1.9091,-1.9276,-1.7795,-1.6868,-1.6306,-1.5744,-1.5751,-1.5751,-1.5563,-1.5368,-1.5556,-1.5563,-1.5751,-1.5563,-1.5181,-1.5556,-1.5563,-1.6112,-1.7965,-2.0178,-2.1461,-2.3677,-2.515,-2.6265,-2.6821,-2.7558,-2.7558,-2.7739,-2.8462,-2.9002,-2.9362,-2.9734,-2.9913,-2.9913,-2.9913,-2.9913,-2.9913,-2.9913,-2.9913,-2.99,-2.986,-2.9686,-2.9633,-2.9619,-2.9713,-2.974,-2.9793,-2.994,-3.0034,-3.006,-3.0074,-3.0074,-3.0007,-2.994,-2.9927,-2.9953,-2.994,-2.99,-2.9847,-2.7039,-2.7027,-2.7027,-2.7027,-2.7027,-2.7027,-2.7027,-2.7027,-2.7027,-2.7027,-2.7027,-2.7027,-2.7027,-2.7027,-2.7027,-2.7027,-2.7027,-2.7027,-2.7027,-2.7027,-2.7027,-2.7027,-2.7027,-2.7027,-2.7027,-2.7027,-2.7027,-2.7027,-2.7027,-2.7027,-2.7027,-2.6845,-2.6664,-2.6845,-2.6845,-2.499,-2.3137,-2.1296,-2.0001,-1.8524,-1.7608,-1.7429,-1.7803,-1.8176,-1.8913,-2.0019,-2.001,-1.9825,-2.001,-2.001,-1.9099,-1.8363,-1.8363,-1.8363,-1.8363,-1.8363,-1.8363,-1.7803,-1.686,-1.6673,-1.6119,-1.5368,-1.5563,-1.5563,-1.5368,-1.5181,-1.5181,-1.5368,-1.5368,-1.5368,-1.5181,-1.5181,-1.5181,-1.5924,-1.7779,-1.9074,-2.0363,-2.2576,-2.4419,-2.5525,-2.6458,-2.7027,-2.7196,-2.7377,-2.8101,-2.8642,-2.9002,-2.9362,-2.9734,-2.9913,-2.9913,-2.9913,-2.9913,-2.9833,-2.982,-2.986,-2.9793,-2.9606,-2.9432,-2.9366,-2.9325,-2.9339,-2.9419,-2.9539,-2.9713,-2.986,-2.99,-2.9927,-2.9913,-2.9913,-2.9913,-2.9927,-2.9913,-2.99,-2.986,-2.7027,-2.7027,-2.7027,-2.7027,-2.7027,-2.7027,-2.7027,-2.7027,-2.7027,-2.7027,-2.7027,-2.7027,-2.7027,-2.7027,-2.7027,-2.7027,-2.7027,-2.7027,-2.7027,-2.7027,-2.7027,-2.7027,-2.7027,-2.7027,-2.7027,-2.7027,-2.7027,-2.7027,-2.7027,-2.7027,-2.7027,-2.6845,-2.5913,-2.5924,-2.573,-2.4247,-2.1665,-2.0927,-1.963,-1.8338,-1.686,-1.7242,-1.7624,-1.8176,-1.9285,-1.9834,-1.9648,-1.9462,-2.001,-1.9648,-1.8541,-1.8176,-1.8176,-1.8176,-1.8176,-1.8176,-1.8176,-1.7803,-1.6868,-1.6119,-1.5556,-1.5368,-1.5375,-1.5375,-1.5181,-1.5181,-1.5181,-1.5181,-1.5181,-1.5181,-1.5181,-1.5181,-1.5368,-1.5556,-1.6853,-1.7965,-1.9436,-2.2392,-2.443,-2.4978,-2.573,-2.6664,-2.7027,-2.7208,-2.7739,-2.8281,-2.8642,-2.9002,-2.9362,-2.9734,-2.9913,-2.9913,-2.9887,-2.978,-2.9713,-2.9673,-2.9513,-2.9272,-2.9085,-2.8965,-2.8951,-2.8978,-2.9152,-2.9325,-2.9513,-2.9686,-2.9806,-2.9913,-2.9913,-2.9913,-2.9913,-2.9913,-2.9913,-2.9913,-2.99,-2.7027,-2.7027,-2.7027,-2.7027,-2.7027,-2.7027,-2.7027,-2.7027,-2.7027,-2.7027,-2.7027,-2.7027,-2.7027,-2.7027,-2.7027,-2.7027,-2.7027,-2.7027,-2.7027,-2.7027,-2.7027,-2.7027,-2.7027,-2.7027,-2.7027,-2.7027,-2.7027,-2.7027,-2.7027,-2.7027,-2.7027,-2.647,-2.4441,-2.443,-2.4064,-2.2402,-2.0001,-1.9445,-1.8338,-1.7414,-1.686,-1.7242,-1.7624,-1.8541,-1.9648,-2.0566,-2.0019,-2.001,-2.0566,-1.9276,-1.8541,-1.8176,-1.8176,-1.7989,-1.7989,-1.7989,-1.7429,-1.7242,-1.6681,-1.5744,-1.5368,-1.5181,-1.5181,-1.5181,-1.5181,-1.5181,-1.5181,-1.5181,-1.5181,-1.5181,-1.5181,-1.5181,-1.5368,-1.5549,-1.5924,-1.704,-1.7779,-2.0548,-2.2586,-2.3137,-2.4807,-2.573,-2.6845,-2.7027,-2.7208,-2.7739,-2.8101,-2.8629,-2.9169,-2.9362,-2.9707,-2.986,-2.9793,-2.9646,-2.9513,-2.9406,-2.9205,-2.8938,-2.8791,-2.8671,-2.8631,-2.8671,-2.8885,-2.9125,-2.9352,-2.9579,-2.9806,-2.9913,-2.9887,-2.99,-2.9913,-2.9913,-2.9913,-2.9913,-2.9913,-2.7027,-2.7027,-2.7027,-2.7027,-2.7027,-2.7027,-2.7027,-2.7027,-2.7027,-2.7027,-2.7027,-2.7027,-2.7027,-2.7027,-2.7027,-2.7027,-2.7027,-2.7027,-2.7027,-2.7027,-2.7027,-2.7027,-2.7027,-2.7027,-2.7027,-2.7027,-2.7027,-2.7027,-2.7027,-2.7027,-2.7027,-2.5913,-2.3148,-2.277,-2.2034,-2.0187,-1.8524,-1.8152,-1.7227,-1.6486,-1.6494,-1.7055,-1.7429,-1.8354,-1.9462,-2.0196,-2.0196,-2.0381,-2.0566,-2.0019,-1.9091,-1.8541,-1.7989,-1.7616,-1.7437,-1.7242,-1.6681,-1.6494,-1.6494,-1.5744,-1.5368,-1.5181,-1.5181,-1.5181,-1.5181,-1.5181,-1.5181,-1.5181,-1.5181,-1.5181,-1.5181,-1.5181,-1.5181,-1.5368,-1.5368,-1.5737,-1.5924,-1.7592,-1.9445,-2.1111,-2.3321,-2.4807,-2.647,-2.7027,-2.7027,-2.7208,-2.7727,-2.8025,-2.8565,-2.9169,-2.9488,-2.9588,-2.9482,-2.9499,-2.9339,-2.9125,-2.8911,-2.8631,-2.8577,-2.8484,-2.843,-2.8417,-2.8617,-2.8871,-2.9205,-2.9432,-2.9553,-2.9713,-2.9847,-2.9847,-2.9833,-2.9913,-2.9913,-2.9913,-2.9887,-2.7027,-2.7027,-2.7027,-2.7027,-2.7027,-2.7027,-2.7027,-2.7027,-2.7027,-2.7027,-2.7027,-2.7027,-2.7027,-2.7027,-2.7027,-2.7027,-2.7027,-2.7027,-2.7027,-2.7027,-2.7027,-2.7027,-2.7027,-2.7027,-2.7027,-2.7027,-2.7027,-2.7027,-2.7027,-2.7027,-2.6106,-2.4613,-2.278,-2.1481,-1.963,-1.7414,-1.7414,-1.7227,-1.6112,-1.6119,-1.6306,-1.6681,-1.7242,-1.7989,-1.8913,-1.9462,-1.9276,-1.9462,-1.9462,-1.8913,-1.8541,-1.8176,-1.8176,-1.7989,-1.7989,-1.7803,-1.7242,-1.6494,-1.6494,-1.6119,-1.5563,-1.5181,-1.5181,-1.5181,-1.5181,-1.5181,-1.5181,-1.5181,-1.5181,-1.5181,-1.5181,-1.5181,-1.5181,-1.5181,-1.5181,-1.5368,-1.5556,-1.6486,-1.8152,-1.963,-2.185,-2.443,-2.6106,-2.7027,-2.7027,-2.7027,-2.7172,-2.7435,-2.7938,-2.8527,-2.8821,-2.9073,-2.9269,-2.907,-2.8991,-2.8764,-2.8564,-2.8364,-2.835,-2.8323,-2.8283,-2.8297,-2.8404,-2.8631,-2.8965,-2.9125,-2.9205,-2.9392,-2.9593,-2.97,-2.9713,-2.982,-2.99,-2.986,-2.9793,-2.7027,-2.7027,-2.7027,-2.7027,-2.7027,-2.7027,-2.7027,-2.7027,-2.7027,-2.7027,-2.7027,-2.7027,-2.7027,-2.7027,-2.7027,-2.7027,-2.7027,-2.7027,-2.7027,-2.7027,-2.7027,-2.7027,-2.7027,-2.7027,-2.7027,-2.7027,-2.7027,-2.7027,-2.7027,-2.6845,-2.6288,-2.5537,-2.3331,-2.1296,-1.9445,-1.7965,-1.6853,-1.6486,-1.5924,-1.5744,-1.6119,-1.6494,-1.7055,-1.7803,-1.8541,-1.8727,-1.8363,-1.8541,-1.8913,-1.8354,-1.8176,-1.8176,-1.8176,-1.7989,-1.7803,-1.7616,-1.7242,-1.6681,-1.6673,-1.6119,-1.5744,-1.5368,-1.5181,-1.5181,-1.5181,-1.5181,-1.5181,-1.5181,-1.5181,-1.5181,-1.5181,-1.5181,-1.5181,-1.5181,-1.5181,-1.5181,-1.5737,-1.6299,-1.7414,-1.8524,-2.0927,-2.3881,-2.5548,-2.647,-2.7015,-2.6991,-2.6906,-2.6965,-2.7275,-2.7658,-2.8067,-2.8268,-2.8452,-2.8604,-2.8525,-2.8326,-2.8364,-2.8243,-2.823,-2.8203,-2.815,-2.8203,-2.8323,-2.8511,-2.8738,-2.8871,-2.8978,-2.9138,-2.9312,-2.9406,-2.9446,-2.9472,-2.9553,-2.9633,-2.9566,-2.7027,-2.7027,-2.7027,-2.7027,-2.7027,-2.7027,-2.7027,-2.7027,-2.7027,-2.7027,-2.7027,-2.7027,-2.7027,-2.7027,-2.7027,-2.7027,-2.7027,-2.7027,-2.7027,-2.7027,-2.7027,-2.7027,-2.7027,-2.7027,-2.7027,-2.7027,-2.7027,-2.7027,-2.7027,-2.6845,-2.6845,-2.6652,-2.443,-2.2034,-1.9816,-1.7965,-1.6479,-1.5737,-1.5556,-1.5556,-1.6306,-1.6681,-1.7234,-1.8168,-1.9276,-2.0019,-1.9099,-1.9276,-2.001,-1.8913,-1.8176,-1.8176,-1.8541,-1.7803,-1.7616,-1.7616,-1.7421,-1.6681,-1.6494,-1.6306,-1.5744,-1.5368,-1.5181,-1.5181,-1.5181,-1.5181,-1.5181,-1.5181,-1.5181,-1.5181,-1.5181,-1.5181,-1.5181,-1.5181,-1.5181,-1.5181,-1.5368,-1.5924,-1.6666,-1.8152,-2.0557,-2.3321,-2.4785,-2.5696,-2.687,-2.6894,-2.6773,-2.6604,-2.6686,-2.7041,-2.7284,-2.7622,-2.7869,-2.8048,-2.7852,-2.784,-2.8061,-2.815,-2.815,-2.815,-2.815,-2.819,-2.8243,-2.839,-2.8524,-2.8657,-2.8791,-2.8911,-2.8991,-2.9045,-2.9072,-2.9072,-2.9152,-2.9285,-2.9259,-2.7027,-2.7027,-2.7027,-2.7027,-2.7027,-2.7027,-2.7027,-2.7027,-2.7027,-2.7027,-2.7027,-2.7027,-2.7027,-2.7027,-2.7027,-2.7027,-2.7027,-2.7027,-2.7027,-2.7027,-2.7027,-2.7027,-2.7027,-2.7027,-2.7027,-2.7027,-2.7027,-2.7027,-2.7027,-2.6845,-2.6106,-2.4807,-2.3321,-2.1665,-1.9259,-1.7219,-1.6299,-1.5368,-1.5181,-1.5556,-1.6119,-1.6494,-1.7055,-1.7616,-1.8541,-1.8913,-1.8363,-1.8541,-1.8727,-1.8176,-1.8176,-1.8913,-2.0196,-1.8354,-1.8354,-1.9082,-1.7981,-1.7055,-1.6494,-1.6306,-1.6119,-1.5556,-1.5181,-1.5181,-1.5181,-1.5181,-1.5181,-1.5181,-1.5181,-1.5181,-1.5181,-1.5181,-1.5181,-1.5181,-1.5181,-1.5181,-1.5181,-1.5549,-1.6112,-1.7965,-2.0372,-2.2198,-2.3838,-2.523,-2.6222,-2.6629,-2.6447,-2.6278,-2.6122,-2.6236,-2.6411,-2.6797,-2.7144,-2.7337,-2.7328,-2.7408,-2.7669,-2.7812,-2.7981,-2.7981,-2.815,-2.8177,-2.8203,-2.819,-2.827,-2.8417,-2.8524,-2.8591,-2.8671,-2.8711,-2.8778,-2.8818,-2.8831,-2.8925,-2.8858,-2.7027,-2.7027,-2.7027,-2.7027,-2.7027,-2.7027,-2.7027,-2.7027,-2.7027,-2.7027,-2.7027,-2.7027,-2.7027,-2.7027,-2.7027,-2.7027,-2.7027,-2.7027,-2.7027,-2.7027,-2.7027,-2.7027,-2.7027,-2.7027,-2.7027,-2.7027,-2.7027,-2.7027,-2.7027,-2.6845,-2.6106,-2.443,-2.3148,-2.1665,-1.8888,-1.7592,-1.6486,-1.5368,-1.5181,-1.5368,-1.5938,-1.6306,-1.6868,-1.7429,-1.7803,-1.8176,-1.8176,-1.8176,-1.8176,-1.8176,-1.8176,-1.8541,-1.9091,-1.8354,-1.8168,-1.8541,-1.7981,-1.7242,-1.6681,-1.6306,-1.6306,-1.5744,-1.5181,-1.5181,-1.5181,-1.5181,-1.5181,-1.5181,-1.5181,-1.5181,-1.5181,-1.5181,-1.5181,-1.5181,-1.5181,-1.5181,-1.5181,-1.5368,-1.5744,-1.6299,-1.8871,-2.122,-2.3013,-2.5116,-2.608,-2.6399,-2.6206,-2.6049,-2.588,-2.5735,-2.5884,-2.6032,-2.656,-2.6682,-2.6714,-2.6834,-2.7317,-2.7474,-2.7643,-2.7981,-2.815,-2.815,-2.815,-2.8163,-2.8163,-2.8177,-2.8283,-2.8377,-2.8364,-2.8404,-2.8484,-2.8577,-2.8577,-2.8577,-2.8524,-2.7027,-2.7027,-2.7027,-2.7027,-2.7027,-2.7027,-2.7027,-2.7027,-2.7027,-2.7027,-2.7027,-2.7027,-2.7027,-2.7027,-2.7027,-2.7027,-2.7027,-2.7027,-2.7027,-2.7027,-2.7027,-2.7027,-2.7027,-2.7027,-2.7027,-2.7027,-2.7027,-2.7027,-2.7027,-2.6845,-2.6288,-2.499,-2.4247,-2.3515,-2.0372,-1.8888,-1.8152,-1.5924,-1.5181,-1.5368,-1.5931,-1.6306,-1.6868,-1.7429,-1.7803,-1.8176,-1.8176,-1.8176,-1.8176,-1.8176,-1.8176,-1.8727,-1.8727,-1.8727,-1.8354,-1.8354,-1.8168,-1.7429,-1.6868,-1.6673,-1.6494,-1.6119,-1.5556,-1.5368,-1.5368,-1.5181,-1.5181,-1.5181,-1.5181,-1.5181,-1.5181,-1.5181,-1.5181,-1.5181,-1.5181,-1.5174,-1.5174,-1.516,-1.5327,-1.5327,-1.7498,-2.0198,-2.2313,-2.4408,-2.55,-2.5818,-2.6001,-2.5868,-2.5735,-2.5639,-2.5566,-2.5714,-2.5885,-2.5995,-2.6103,-2.6443,-2.6796,-2.7135,-2.7304,-2.7643,-2.7981,-2.815,-2.815,-2.815,-2.815,-2.815,-2.815,-2.8217,-2.819,-2.819,-2.827,-2.8377,-2.8337,-2.8323,-2.8243,-2.7027,-2.7027,-2.7027,-2.7027,-2.7027,-2.7027,-2.7027,-2.7027,-2.7027,-2.7027,-2.7027,-2.7027,-2.7027,-2.7027,-2.7027,-2.7027,-2.7027,-2.7027,-2.7027,-2.7027,-2.7027,-2.7027,-2.7027,-2.7027,-2.7027,-2.7027,-2.7027,-2.7027,-2.7027,-2.7027,-2.6664,-2.5913,-2.277,-2.185,-2.0742,-1.8896,-1.6666,-1.5368,-1.5181,-1.5368,-1.5556,-1.6119,-1.6868,-1.7429,-1.7989,-1.8176,-1.8176,-1.8176,-1.8176,-1.8176,-1.8176,-1.8913,-1.9099,-1.8913,-1.8541,-1.8532,-1.8168,-1.7429,-1.7055,-1.6868,-1.6681,-1.6494,-1.6119,-1.5751,-1.5556,-1.5368,-1.5368,-1.5368,-1.5181,-1.5181,-1.5181,-1.5181,-1.5181,-1.5174,-1.5167,-1.516,-1.5153,-1.5072,-1.5004,-1.5696,-1.6919,-1.9036,-2.0952,-2.282,-2.4623,-2.4975,-2.5723,-2.5602,-2.559,-2.5506,-2.5433,-2.5433,-2.5604,-2.5433,-2.5604,-2.5933,-2.6273,-2.6626,-2.6965,-2.7474,-2.7981,-2.815,-2.815,-2.815,-2.815,-2.815,-2.815,-2.815,-2.815,-2.8163,-2.815,-2.8177,-2.815,-2.815,-2.815]}]]